     2              OBSERVATION DATA    GPS                 RINEX VERSION / TYPE
teqc 1998Oct22 19990510 18:15:24UTC                         PGM / RUN BY / DATE
                                                            COMMENT
Original Marker Name: LPUR                                  COMMENT
Campaign Name: northern baja california 1999                COMMENT
4-Character Station Name: LPUR                              COMMENT
6-Character Antenna Code: DMRCHT                            COMMENT
Vertical Measurement Point: BCR                             COMMENT
Vertical Offset to Rinex Ref. Point: 0.0349                 COMMENT
Radial Measurement Point: ECF                               COMMENT
Radial Offset to Rinex Ref. Point: 0.1896                   COMMENT
Antenna Height from Field Measurement: 1.5960 m             COMMENT
Additional Antenna Identification Info.:                    COMMENT
Turborogue and Ashtech Choke Ring                           COMMENT
Original XYZ: -2283695.6532 -4889421.3760 3388558.3685      COMMENT
New XYZ position is based on association with SCEC monument COMMENT
E1C8L7I1+0011. Position of that monument is believed to be  COMMENT
valid to within 1 m horizontally; vertical accuracy         COMMENT
should be no worse than 3-times this value.                 COMMENT
                                                            COMMENT
Revised Rinex header created by UCSD GPS archive for        COMMENT
GSAC on 31-Aug-1999 (1999:243) 22:13:38 GMT                 COMMENT
For assistance contact dagnew@ucsd.edu or hjohnson@ucsd.edu COMMENT
                                                            COMMENT
CICESE/SAHOPE/UABC                                          MARKER NAME
JRO CICESE (ENSENADA)                                       OBSERVER / AGENCY
DMRCHT ASHTECH Z12-XII3 1F50                                REC # / TYPE / VERS
758 DORNE-MARGOL. TYPE T                                    ANT # / TYPE
 -2308418.0000 -4874045.0000  3393827.0000                  APPROX POSITION XYZ
        1.5498        0.0000        0.0000                  ANTENNA: DELTA H/E/N
     1     1     0                                          WAVELENGTH FACT L1/2
     7    C1    L1    L2    P1    P2    S1    S2            # / TYPES OF OBSERV
     0                                                      INTERVAL
  1999     4    26     0     2    0.000000                  TIME OF FIRST OBS
  1999     4    26    21    30    0.000000                  TIME OF LAST OBS
                                                            END OF HEADER
 99  4 26  0  2  0.0000000  0  4G26G23G 6G17
  21881847.305      -26181.00749    -18045.76546  21881847.312    21881854.312
       231.000         185.000
  21546900.603      -94938.18849    -66921.78747  21546899.932    21546907.711
       239.000         205.000
  20516948.644       84008.86449     60785.97847  20516948.672    20516955.324
       243.000         209.000
  21393669.143      -42525.44549    -30252.33947  21393668.571    21393675.549
       239.000         203.000
 99  4 26  0  2 29.9990000  0  6G30G26G23G22G 6G17
                    177476.70244                                  23952519.122
       211.000         129.000
  21580106.756      -36416.02749    -26021.04346  21580107.133    21580114.729
       230.000         187.000
  21239364.968     -135624.41249    -98625.26647  21239365.153    21239372.631
       239.000         204.000
  23393245.451       -7127.08249     -5153.02545  23393245.113    23393253.583
       217.000         159.000
  20223867.345      119277.63849     88268.13247  20223867.938    20223874.359
       243.000         210.000
  21090371.852      -60944.83549    -44605.08747  21090371.210    21090377.851
       240.000         204.000
 99  4 26  0  3  0.0000000  0  7G30G26G23G22G21G 6G17
  24086107.004     -610396.13549   -503049.93145  24086106.645    24086121.201
       214.000         147.000
  21691002.436    -1029077.10549   -799523.13346  21691002.491    21691009.350
       231.000         186.000
  21344434.492    -1158900.95449   -895983.53147  21344433.986    21344441.968
       240.000         204.000
  23505679.292     -991708.20449   -772359.08245  23505677.778    23505686.430
       219.000         159.000
                   -929738.55244                                  24524697.968
       207.000         110.000
  20343406.046     -827963.36849   -649841.75247  20343406.493    20343412.987
       245.000         211.000
  21199632.726    -1062192.87349   -824798.33147  21199632.430    21199639.481
       241.000         205.000
 99  4 26  0  3 30.0000000  0  7G30G26G23G22G21G 6G17
  24105139.290     -510383.17849   -425118.07745  24105139.779    24105152.207
       214.000         149.000
  21687439.513    -1047799.06849   -814111.61546  21687439.608    21687447.193
       231.000         186.000
  21335012.013    -1208416.05749   -934566.65847  21335011.899    21335019.550
       239.000         204.000
  23503642.820    -1002408.13149   -780696.65445  23503641.198    23503650.913
       219.000         161.000
  24507963.854    -1296719.59349   -998200.79145  24507962.061    24507978.580
       208.000         137.000
  20348473.968     -801332.06249   -629090.09147  20348474.065    20348480.716
       244.000         211.000
  21194359.351    -1089904.62149   -846391.86547  21194359.021    21194365.971
       240.000         204.000
 99  4 26  0  4  0.0000000  0  7G30G26G23G22G21G 6G17
  24124171.675     -410366.74349   -347183.52445  24124173.003    24124184.702
       211.000         149.000
  21683985.274    -1065950.95549   -828255.89046  21683985.489    21683992.889
       229.000         185.000
  21325664.597    -1257536.73949   -972842.43847  21325664.340    21325672.217
       238.000         204.000
  23501707.244    -1012578.07249   -788621.26745  23501707.027    23501715.292
       217.000         160.000
  24491278.011    -1384402.63649  -1066524.83245  24491277.172    24491289.711
       205.000         136.000
  20353639.495     -774187.29149   -607938.33347  20353639.579    20353646.399
       243.000         211.000
  21189115.397    -1117462.46549   -867865.48947  21189115.171    21189122.152
       239.000         204.000
 99  4 26  0  4 30.0000000  0  7G30G26G23G22G21G 6G17
  24143201.129     -310366.71549   -269261.71245  24143201.459    24143215.177
       211.000         147.000
  21680634.733    -1083557.94449   -841975.57346  21680634.799    21680641.764
       230.000         185.000
  21316388.296    -1306284.18949  -1010827.40147  21316388.581    21316395.966
       239.000         204.000
  23499868.848    -1022238.86049   -796149.13445  23499868.280    23499876.887
       220.000         161.000
  24474622.868    -1471923.74649  -1134722.71645  24474622.861    24474635.423
       206.000         138.000
  20358900.128     -746542.80149   -586397.18847  20358900.606    20358906.930
       243.000         211.000
  21183892.182    -1144910.29449   -889253.37847  21183891.857    21183898.836
       239.000         204.000
 99  4 26  0  5  0.0000000  0  7G30G26G23G22G21G 6G17
  24162243.819     -210296.42949   -191285.20545  24162244.726    24162259.466
       212.000         149.000
  21677407.142    -1100518.90049   -855191.85146  21677407.473    21677414.668
       231.000         185.000
  21307200.278    -1354567.78149  -1048450.90447  21307200.122    21307207.912
       240.000         204.000
  23498145.177    -1031296.94149   -803207.35845  23498144.563    23498153.811
       218.000         162.000
  24458018.735    -1559178.64649  -1202713.11045  24458017.627    24458033.844
       208.000         141.000
  20364274.399     -718301.19949   -564390.75047  20364274.656    20364281.313
       243.000         211.000
  21178704.216    -1172173.47649   -910497.38747  21178703.798    21178710.798
       240.000         204.000
 99  4 26  0  5 30.0000000  0  7G30G26G23G22G21G 6G17
  24181284.056     -110240.84149   -113320.15145  24181285.145    24181298.657
       212.000         150.000
  21674290.617    -1116895.93349   -867953.12046  21674291.071    21674298.136
       230.000         186.000
  21298090.404    -1402440.66549  -1085754.37847  21298090.239    21298097.998
       239.000         205.000
  23496520.498    -1039834.42649   -809859.90945  23496520.018    23496528.324
       217.000         160.000
  24441452.423    -1646234.23449  -1270548.18345  24441452.055    24441465.814
       205.000         141.000
  20369747.600     -689539.60649   -541979.13447  20369747.907    20369754.550
       243.000         211.000
  21173538.531    -1199319.62949   -931650.20347  21173538.105    21173545.186
       240.000         205.000
 99  4 26  0  6  0.0000000  0  7G30G26G23G22G21G 6G17
  24200319.255      -10211.24849    -35375.33045  24200319.447    24200335.219
       211.000         147.000
  21671287.299    -1132678.10549   -880250.86246  21671287.360    21671294.705
       229.000         186.000
  21289062.973    -1449880.23049  -1122720.20147  21289062.499    21289070.215
       239.000         205.000
  23494993.449    -1047858.89049   -816112.70945  23494992.545    23495001.564
       217.000         159.000
  24424924.873    -1733085.81749  -1338224.39745  24424924.886    24424937.270
       211.000         141.000
  20375318.065     -660266.73849   -519169.11947  20375318.321    20375325.134
       243.000         211.000
  21168396.232    -1226342.73649   -952707.14247  21168395.525    21168402.524
       240.000         204.000
 99  4 26  0  6 30.0000000  0  7G30G26G23G22G21G 6G17
  24219357.116       89832.43549     42580.46445  24219357.378    24219372.585
       209.000         147.000
  21668409.634    -1147799.96049   -892034.06946  21668409.562    21668417.356
       231.000         186.000
  21280129.360    -1496826.55449  -1159301.68047  21280128.983    21280136.847
       240.000         205.000
  23493578.319    -1055295.61949   -821907.54545  23493577.944    23493586.407
       218.000         159.000
  24408447.085    -1819676.92049  -1405697.58245  24408445.895    24408460.584
       209.000         146.000
  20380999.803     -630408.96949   -495903.34647  20381000.167    20381006.679
       243.000         210.000
  21163293.621    -1253156.75549   -973601.15847  21163292.967    21163300.297
       240.000         204.000
 99  4 26  0  7  0.0000000  0  7G30G26G23G22G21G 6G17
  24238374.375      189767.96449    120451.92545  24238375.882    24238388.734
       210.000         148.000
  21665637.299    -1162368.57049   -903386.16846  21665637.741    21665645.087
       230.000         186.000
  21271270.476    -1543380.20649  -1195577.18347  21271270.266    21271277.813
       240.000         205.000
  23492256.680    -1062241.11949   -827319.60245  23492256.939    23492264.339
       216.000         157.000
  24391998.261    -1906114.86949  -1473051.37545  24391996.702    24392012.579
       208.000         147.000
  20386771.215     -600080.22549   -472270.56647  20386771.292    20386778.109
       244.000         210.000
  21158213.591    -1279852.29049   -994402.83547  21158213.074    21158220.300
       240.000         205.000
 99  4 26  0  7 30.0000000  0  7G30G26G23G22G21G 6G17
  24257365.094      289563.52749    198214.37045  24257365.695    24257381.409
       210.000         146.000
  21662965.220    -1176410.58249   -914327.95346  21662965.871    21662972.103
       230.000         186.000
  21262478.721    -1589581.07949  -1231577.78647  21262478.402    21262486.100
       240.000         206.000
  23491022.622    -1068726.29249   -832372.98145  23491022.184    23491031.358
       216.000         157.000
  24375572.767    -1992428.92249  -1540308.66345  24375572.722    24375585.256
       209.000         144.000
  20392627.865     -569303.48449   -448288.71047  20392627.917    20392634.791
       243.000         210.000
  21153152.130    -1306450.50849  -1015128.69147  21153151.558    21153158.747
       239.000         205.000
 99  4 26  0  8  0.0000000  0  7G30G26G23G22G21G 6G17
  24276336.694      389258.30349    275898.27445  24276336.922    24276354.433
       212.000         148.000
  21660399.910    -1189891.09349   -924832.18946  21660399.827    21660407.404
       231.000         186.000
  21253757.508    -1635411.43149  -1267289.67747  21253757.200    21253764.525
       240.000         206.000
  23489882.762    -1074716.10149   -837040.32545  23489882.733    23489890.218
       218.000         157.000
  24359175.723    -2078595.97049  -1607451.54845  24359174.734    24359188.254
       206.000         142.000
  20398578.606     -538032.23149   -423921.51047  20398578.708    20398585.240
       243.000         210.000
  21148116.968    -1332910.55949  -1035746.88547  21148116.574    21148123.557
       239.000         205.000
 99  4 26  0  8 30.0000000  0  7G30G26G23G22G21G 6G17
  24295304.594      488934.37349    353567.53245  24295305.360    24295319.750
       210.000         148.000
  21657955.814    -1202734.87249   -934840.27546  21657955.439    21657963.456
       230.000         186.000
  21245119.385    -1680805.25449  -1302661.41947  21245118.830    21245126.405
       239.000         206.000
  23488849.279    -1080147.17749   -841272.32845  23488847.879    23488856.835
       217.000         158.000
  24342820.043    -2164543.37149  -1674423.08245  24342819.197    24342834.437
       214.000         148.000
  20404637.212     -506194.15049   -399112.63047  20404637.274    20404644.047
       242.000         210.000
  21143121.240    -1359163.04449  -1056203.34047  21143121.012    21143127.814
       240.000         205.000
 99  4 26  0  9  0.0000000  0  7G30G26G23G22G21G 6G17
  24314266.064      588576.26749    431210.26145  24314267.443    24314281.211
       209.000         147.000
  21655628.267    -1214966.16249   -944371.10246  21655628.241    21655635.214
       231.000         186.000
  21236557.884    -1725795.85849  -1337718.96247  21236557.357    21236565.099
       241.000         206.000
  23487912.261    -1085070.92549   -845109.02145  23487912.287    23487919.725
       217.000         158.000
  24326499.004    -2250310.88349  -1741254.53645  24326498.615    24326512.239
       209.000         148.000
  20410793.516     -473842.79449   -373903.79647  20410793.752    20410800.435
       243.000         210.000
  21138157.292    -1385248.98849  -1076530.02147  21138156.928    21138164.012
       239.000         205.000
 99  4 26  0  9 30.0000000  0  7G30G26G23G22G21G 6G17
  24333215.867      688156.94849    508805.21845  24333216.635    24333231.700
       205.000         145.000
  21653412.151    -1226612.14549   -953445.84246  21653412.504    21653419.574
       231.000         187.000
  21228065.441    -1770423.92849  -1372494.01447  21228065.226    21228072.565
       241.000         206.000
  23487064.460    -1089526.13049   -848580.59545  23487064.743    23487072.345
       217.000         158.000
  24310205.581    -2335930.80949  -1807971.01445  24310203.336    24310217.527
       206.000         142.000
  20417043.259     -441000.51249   -348312.42747  20417043.375    20417050.025
       243.000         210.000
  21133219.638    -1411196.80049  -1096749.07247  21133219.227    21133226.072
       240.000         205.000
 99  4 26  0 10  0.0000000  0  7G30G26G23G22G21G 6G17
  24352161.108      787712.50749    586380.60445  24352162.858    24352178.128
       213.000         148.000
  21651311.809    -1237649.54749   -962046.36046  21651312.129    21651318.947
       232.000         186.000
  21219649.617    -1814649.00749  -1406955.05047  21219649.272    21219656.851
       241.000         207.000
  23486311.394    -1093483.95549   -851664.61045  23486310.915    23486319.315
       216.000         158.000
  24293947.830    -2421364.90149  -1874542.71145  24293947.300    24293959.628
       211.000         145.000
  20423391.792     -407638.98749   -322316.44447  20423392.050    20423398.501
       243.000         210.000
  21128314.771    -1436971.95549  -1116833.57347  21128314.592    21128321.597
       240.000         205.000
 99  4 26  0 10 30.0000000  0  7G30G26G23G22G21G 6G17
  24371095.702      887212.02649    663912.34745  24371097.990    24371111.348
       208.000         146.000
  21649321.432    -1248108.76149   -970196.34646  21649321.147    21649328.335
       230.000         186.000
  21211306.365    -1858492.88649  -1441119.05147  21211305.898    21211313.123
       240.000         207.000
  23485648.984    -1096965.32849   -854377.34345  23485648.764    23485656.962
       213.000         156.000
  24277723.928    -2506621.71449  -1940976.24045  24277723.012    24277736.825
       211.000         149.000
  20429833.861     -373785.91349   -295937.43447  20429833.660    20429840.425
       243.000         210.000
  21123436.257    -1462608.84449  -1136810.34347  21123435.470    21123442.587
       239.000         205.000
 99  4 26  0 11  0.0000000  0  7G30G26G23G22G21G 6G17
  24390015.989      986637.21349    741386.15445  24390017.172    24390031.932
       210.000         143.000
  21647441.819    -1257985.82949   -977892.71946  21647442.318    21647449.077
       231.000         186.000
  21203036.503    -1901951.02849  -1474982.47347  21203036.183    21203043.787
       241.000         207.000
  23485079.952    -1099954.73449   -856706.73445  23485079.128    23485088.124
       212.000         153.000
  24261535.270    -2591691.53049  -2007264.03045  24261533.890    24261546.511
       213.000         144.000
  20436370.500     -339435.58249   -269170.96547  20436370.665    20436377.180
       243.000         210.000
  21118584.971    -1488102.48349  -1156675.49047  21118584.348    21118591.822
       240.000         205.000
 99  4 26  0 11 30.0000000  0  7G30G26G23G22G21G 6G17
  24408919.837     1085974.52649    818791.48145  24408921.335    24408938.004
       209.000         147.000
  21645671.123    -1267291.10649   -985143.53746  21645671.563    21645678.129
       231.000         186.000
  21194838.065    -1945034.29349  -1508553.78847  21194837.369    21194845.112
       240.000         207.000
  23484604.271    -1102454.64149   -858654.71345  23484603.417    23484611.973
       213.000         152.000
  24245383.315    -2676570.15849  -2073402.96345  24245382.961    24245395.508
       210.000         146.000
  20443001.647     -304588.86249   -242017.68647  20443001.864    20443008.435
       243.000         210.000
  21113757.710    -1513469.96549  -1176442.34047  21113757.450    21113764.060
       239.000         205.000
 99  4 26  0 12  0.0000000  0  7G30G26G23G22G21G 6G17
  24427809.880     1185241.75949    896142.15345  24427810.719    24427825.082
       209.000         145.000
  21644014.346    -1275997.54949   -991927.73346  21644014.730    21644021.791
       231.000         187.000
  21186717.651    -1987706.95849  -1541805.15447  21186717.311    21186724.902
       241.000         207.000
  23484226.563    -1104439.69549   -860201.50945  23484225.829    23484234.532
       212.000         152.000
  24229271.999    -2761234.66549  -2139374.93945  24229271.334    24229285.202
       213.000         150.000
  20449728.917     -269236.92349   -214470.74047  20449729.027    20449735.669
       243.000         210.000
  21108954.998    -1538708.23949  -1196108.49047  21108954.415    21108961.460
       239.000         205.000
 99  4 26  0 12 30.0000000  0  7G30G26G23G22G21G 6G17
  24446682.821     1284418.56049    973422.41445  24446683.553    24446698.503
       210.000         142.000
  21642472.008    -1284102.88649   -998243.52846  21642472.268    21642479.713
       231.000         187.000
  21178675.950    -2029966.26049  -1574734.42747  21178675.498    21178682.999
       240.000         207.000
  23483945.450    -1105916.21249   -861352.03245  23483945.403    23483954.685
       212.000         152.000
  24213197.750    -2845704.48849  -2205195.24245  24213195.653    24213208.498
       212.000         148.000
  20456548.098     -233402.08349   -186547.50047  20456548.376    20456554.957
       242.000         209.000
  21104173.751    -1563833.64749  -1215686.70247  21104173.055    21104180.201
       240.000         205.000
 99  4 26  0 13  0.0000000  0  7G30G26G23G22G21G 6G17
  24465538.168     1383503.14049   1050630.81645  24465539.270    24465555.793
       207.000         140.000
  21641043.724    -1291608.58249  -1004092.06246  21641044.057    21641050.712
       232.000         187.000
  21170711.650    -2071818.98449  -1607346.86947  21170710.942    21170718.505
       241.000         208.000
  23483758.401    -1106899.68749   -862118.37945  23483758.093    23483766.201
       214.000         153.000
  24197156.909    -2929998.87949  -2270878.87545  24197156.157    24197168.808
       212.000         152.000
  20463456.831     -197096.82149   -158257.69747  20463456.824    20463463.609
       242.000         209.000
  21099414.068    -1588845.94949  -1235176.77047  21099413.340    21099420.361
       240.000         205.000
 99  4 26  0 13 30.0000000  0  7G30G26G23G22G21G 6G17
  24484380.795     1482520.96949   1127787.13745  24484380.776    24484398.899
       205.000         143.000
  21639730.141    -1298511.54049  -1009470.94746  21639730.276    21639736.791
       231.000         187.000
  21162828.217    -2113246.31749  -1639627.86247  21162827.809    21162835.350
       241.000         208.000
  23483667.110    -1107379.56949   -862492.32445  23483667.315    23483676.000
       214.000         155.000
  24181149.115    -3014118.18549  -2336426.03845  24181147.660    24181160.854
       210.000         149.000
  20470457.221     -160309.75249   -129592.47347  20470457.427    20470464.057
       241.000         209.000
  21094678.092    -1613733.35749  -1254569.53547  21094677.669    21094684.744
       240.000         206.000
 99  4 26  0 14  0.0000000  0  7G30G26G23G22G21G 6G17
  24503208.101     1581457.40549   1204880.12045  24503211.190    24503224.128
       210.000         143.000
  21638529.862    -1304818.82849  -1014385.66546  21638529.997    21638536.358
       231.000         187.000
  21155029.413    -2154229.43749  -1671562.70647  21155029.068    21155036.282
       241.000         208.000
  23483671.101    -1107359.02049   -862476.32645  23483670.703    23483679.087
       215.000         155.000
  24165173.227    -3098070.46749  -2401843.05045  24165172.559    24165185.897
       211.000         150.000
  20477549.423     -123040.19049   -100551.27047  20477549.527    20477556.353
       240.000         209.000
  21089968.154    -1638484.63649  -1273856.22747  21089967.989    21089974.785
       240.000         206.000
 99  4 26  0 14 30.0000000  0  7G30G26G23G22G21G 6G17
  24522024.953     1680339.78949   1281930.93245  24522025.655    24522041.766
       208.000         139.000
  21637447.396    -1310506.93749  -1018817.90546  21637447.387    21637454.542
       232.000         187.000
  21147318.733    -2194749.45949  -1703136.68747  21147318.256    21147325.459
       242.000         208.000
  23483774.226    -1106816.80849   -862053.84145  23483773.622    23483782.492
       216.000         154.000
  24149233.730    -3181831.24149  -2467110.91545  24149232.654    24149245.453
       210.000         148.000
  20484739.614      -85255.43449    -71108.62047  20484739.780    20484746.547
       241.000         209.000
  21085294.135    -1663046.58149  -1292995.36947  21085293.505    21085300.620
       240.000         206.000
 99  4 26  0 15  0.0000000  0  7G30G26G23G22G21G 6G17
  24540830.451     1779162.11249   1358934.91145  24540831.576    24540847.692
       210.000         143.000
  21636480.832    -1315585.97449  -1022775.55246  21636480.436    21636487.579
       231.000         187.000
  21139691.930    -2234828.48749  -1734367.03947  21139691.356    21139698.650
       242.000         208.000
  23483975.165    -1105760.56249   -861230.80645  23483975.112    23483983.848
       216.000         154.000
  24133331.918    -3265394.91749  -2532225.08445  24133331.812    24133344.500
       213.000         152.000
  20492030.226      -46943.00649    -41254.79247  20492030.133    20492036.842
       241.000         209.000
  21080657.014    -1687414.67049  -1311983.45547  21080656.225    21080663.431
       241.000         206.000
 99  4 26  0 15 30.0000000  0  7G30G26G23G22G21G 6G17
  24559623.439     1877917.99849   1435887.14945  24559625.985    24559640.541
       208.000         141.000
  21635630.351    -1320054.27749  -1026257.29946  21635630.135    21635637.982
       230.000         187.000
  21132149.112    -2274466.05949  -1765253.40747  21132148.668    21132156.072
       241.000         208.000
  23484274.672    -1104186.86949   -860004.56545  23484274.275    23484283.336
       215.000         155.000
  24117470.182    -3348747.39949  -2597174.77645  24117469.913    24117480.630
       210.000         148.000
  20499423.187       -8092.65249    -10981.81247  20499423.315    20499430.021
       241.000         209.000
  21076057.580    -1711584.75049  -1330817.25847  21076057.169    21076064.016
       240.000         206.000
 99  4 26  0 16  0.0000000  0  7G30G26G23G22G21G 6G17
  24578400.850     1976592.87949   1512776.25145  24578402.616    24578418.684
       206.000         139.000
  21634897.144    -1323907.24349  -1029259.56446  21634897.352    21634904.441
       231.000         187.000
  21124685.793    -2313685.63049  -1795814.05347  21124685.305    21124692.821
       242.000         209.000
  23484671.291    -1102102.76949   -858380.60345  23484670.151    23484679.746
       214.000         155.000
  24101649.581    -3431882.86749  -2661955.33945  24101647.497    24101661.157
       208.000         145.000
  20506917.745       31291.50149     19707.12647  20506917.796    20506924.583
       241.000         209.000
  21071495.007    -1735561.37849  -1349500.32647  21071494.778    21071501.366
       240.000         206.000
 99  4 26  0 16 30.0000000  0  7G30G26G23G22G21G 6G17
  24597159.681     2075169.36549   1589588.69745  24597161.499    24597177.047
       207.000         139.000
  21634279.954    -1327150.69849  -1031786.88446  21634280.319    21634287.306
       230.000         187.000
  21117291.884    -2352540.80749  -1826090.76147  21117291.313    21117298.728
       241.000         209.000
  23485162.361    -1099522.43149   -856369.95145  23485161.001    23485171.732
       214.000         154.000
  24085869.606    -3514806.69549  -2726571.04245  24085869.989    24085880.893
       214.000         148.000
  20514509.352       71185.57049     50793.39247  20514509.710    20514516.173
       240.000         208.000
  21066963.228    -1759376.28549  -1368057.37347  21066962.665    21066969.636
       240.000         206.000
 99  4 26  0 17  0.0000000  0  7G30G26G23G22G21G 6G17
  24615894.635     2173619.60749   1666302.74445  24615895.020    24615914.571
       208.000         141.000
  21633775.352    -1329802.63249  -1033853.28546  21633775.979    21633782.166
       231.000         187.000
  21109963.055    -2391053.98249  -1856100.97047  21109962.647    21109969.953
       241.000         209.000
  23485746.396    -1096453.27449   -853978.42245  23485746.316    23485755.022
       217.000         154.000
  24070127.736    -3597529.95549  -2791030.41545  24070125.339    24070139.731
       210.000         149.000
  20522196.498      111581.68049     82270.86447  20522196.629    20522203.429
       241.000         208.000
  21062454.930    -1783067.40149  -1386517.96147  21062454.566    21062461.342
       240.000         206.000
 99  4 26  0 17 30.0000000  0  7G30G26G23G22G21G 6G17
  24634601.918     2271925.54549   1742904.36845  24634603.809    24634619.035
       207.000         139.000
  21633382.913    -1331865.06449  -1035460.32546  21633383.160    21633389.827
       233.000         187.000
  21102701.573    -2429212.84449  -1885835.08247  21102701.224    21102708.252
       243.000         209.000
  23486421.639    -1092904.71849   -851213.34345  23486421.449    23486429.908
       217.000         156.000
  24054420.751    -3680068.59349  -2855345.92245  24054419.602    24054432.079
       214.000         149.000
  20529975.887      152462.36149    114125.92247  20529975.913    20529982.810
       242.000         208.000
  21057965.127    -1806661.50849  -1404902.95647  21057964.664    21057971.662
       242.000         206.000
 99  4 26  0 18  0.0000000  0  7G30G26G23G22G21G 6G17
  24653283.506     2370096.19549   1819400.61445  24653284.716    24653302.311
       206.000         140.000
  21633105.716    -1333321.49649  -1036595.16346  21633105.613    21633112.823
       231.000         187.000
  21095511.628    -2466996.28249  -1915276.67347  21095511.421    21095518.452
       242.000         209.000
  23487190.282    -1088865.85149   -848066.18245  23487190.027    23487198.992
       217.000         157.000
  24038750.122    -3762417.69149  -2919513.79445  24038749.270    24038760.648
       214.000         150.000
  20537848.619      193833.51949    146363.16947  20537848.733    20537855.485
       240.000         208.000
  21053494.423    -1830155.21849  -1423209.73047  21053493.740    21053500.762
       240.000         207.000
 99  4 26  0 18 30.0000000  0  7G30G26G23G22G21G 6G17
  24671938.996     2468130.93449   1895790.82345  24671939.422    24671957.215
       208.000         139.000
  21632942.535    -1334178.64749  -1037263.01946  21632942.286    21632950.129
       232.000         187.000
  21088396.116    -2504388.72049  -1944413.57947  21088395.548    21088402.719
       244.000         210.000
  23488051.129    -1084342.12149   -844541.22245  23488051.420    23488059.143
       217.000         158.000
  24023114.592    -3844582.67249  -2983538.21945  24023113.385    24023126.426
       210.000         151.000
  20545816.207      235703.38449    178989.02547  20545816.137    20545822.929
       242.000         208.000
  21049042.439    -1853550.11549  -1441439.49447  21049041.882    21049048.766
       242.000         207.000
 99  4 26  0 19  0.0000000  0  7G30G26G23G22G21G 6G17
  24690574.225     2566057.03049   1972096.47945  24690575.720    24690592.370
       210.000         139.000
  21632896.043    -1334422.77849  -1037453.21746  21632896.208    21632903.405
       230.000         187.000
  21081365.700    -2541333.79549  -1973201.89547  21081365.294    21081372.504
       242.000         210.000
  23489008.751    -1079310.25749   -840620.29345  23489008.568    23489017.159
       217.000         158.000
  24007515.559    -3926553.87149  -3047411.58045  24007513.414    24007528.914
       208.000         153.000
  20553883.965      278099.78749    212025.15547  20553884.272    20553890.921
       241.000         208.000
  21044615.800    -1876812.55649  -1459566.05947  21044615.386    21044622.156
       240.000         207.000
 99  4 26  0 19 30.0000000  0  7G30G26G23G22G21G 6G17
  24709193.293     2663898.32149   2048336.13445  24709194.571    24709212.016
       205.000         139.000
  21632970.057    -1334033.58749  -1037149.90546  21632970.466    21632977.357
       231.000         187.000
  21074423.722    -2577814.04749  -2001628.01147  21074423.360    21074430.298
       242.000         210.000
  23490063.143    -1073769.63149   -836302.95345  23490062.278    23490071.258
       218.000         159.000
  23991956.452    -4008316.12449  -3111122.14045  23991956.764    23991966.466
       216.000         152.000
  20562050.263      321013.59649    245464.46847  20562050.439    20562057.248
       241.000         208.000
  21040219.462    -1899915.30949  -1477568.18947  21040219.079    21040225.891
       241.000         207.000
 99  4 26  0 20  0.0000000  0  7G30G26G23G22G21G 6G17
  24727794.980     2761650.57349   2124506.20345  24727796.213    24727813.925
       201.000         138.000
  21633162.243    -1333023.54149  -1036362.81946  21633161.794    21633169.396
       231.000         187.000
  21067563.007    -2613867.06949  -2029721.22547  21067562.610    21067569.560
       242.000         210.000
  23491213.151    -1067726.64949   -831594.12245  23491212.192    23491221.623
       217.000         159.000
  23976438.490    -4089863.95349  -3174665.71245  23976437.558    23976450.750
       209.000         152.000
  20570313.146      364435.02949    279299.33247  20570313.169    20570319.778
       240.000         208.000
  21035855.432    -1922848.62749  -1495438.29647  21035855.151    21035861.983
       241.000         207.000
 99  4 26  0 20 30.0000000  0  7G30G26G23G22G21G 6G17
  24746376.813     2859297.09449   2200593.98845  24746378.459    24746395.249
       211.000         141.000
  21633470.319    -1331404.18449  -1035100.92846  21633469.920    21633477.462
       232.000         187.000
  21060778.774    -2649518.33649  -2057501.37847  21060778.187    21060785.425
       242.000         210.000
  23492455.406    -1061198.80549   -826507.49445  23492455.312    23492464.151
       216.000         159.000
  23960959.093    -4171206.58649  -3238049.26745  23960958.494    23960970.225
       212.000         152.000
  20578668.113      408340.57249    313511.42547  20578668.174    20578674.750
       241.000         208.000
  21031521.858    -1945621.80449  -1513183.60747  21031521.351    21031528.342
       240.000         207.000
 99  4 26  0 21  0.0000000  0  7G30G26G23G22G21G 6G17
  24764936.545     2956827.13349   2276591.09645  24764935.942    24764956.479
       200.000         135.000
  21633895.623    -1329169.09749  -1033359.26046  21633895.896    21633902.534
       232.000         187.000
  21054068.218    -2684782.29749  -2084979.74247  21054067.812    21054074.921
       242.000         210.000
  23493788.600    -1054193.07949   -821048.48845  23493787.829    23493796.377
       216.000         158.000
  23945519.163    -4252344.14049  -3301273.09945  23945519.512    23945529.621
       215.000         154.000
  20587110.747      452707.18049    348082.78647  20587110.810    20587117.752
       240.000         208.000
  21027217.808    -1968239.53649  -1530807.80247  21027217.170    21027224.189
       240.000         207.000
 99  4 26  0 21 30.0000000  0  7G30G26G23G22G21G 6G17
  24783466.599     3054203.38049   2352468.19445  24783469.081    24783487.214
       212.000         139.000
  21634433.765    -1326341.05849  -1031155.55246  21634434.023    21634440.595
       232.000         187.000
  21047420.019    -2719718.71449  -2112202.87247  21047419.495    21047426.632
       242.000         210.000
  23495204.888    -1046750.23549   -815248.86545  23495203.929    23495213.900
       213.000         158.000
  23930114.947    -4333292.61949  -3364349.64245  23930113.357    23930124.729
       212.000         149.000
  20595636.455      497509.93849    382994.00647  20595636.637    20595643.216
       241.000         208.000
  21022936.808    -1990736.11649  -1548337.59047  21022936.524    21022943.379
       241.000         207.000
 99  4 26  0 22  0.0000000  0  7G30G26G23G22G21G 6G17
  24801965.518     3151412.23949   2428214.90845  24801967.475    24801984.606
       209.000         146.000
  21635083.002    -1322928.97449  -1028496.74046  21635083.313    21635090.454
       231.000         187.000
  21040833.126    -2754332.95249  -2139174.95547  21040832.575    21040839.525
       242.000         210.000
  23496704.317    -1038870.15449   -809108.53745  23496704.750    23496713.202
       216.000         158.000
  23914742.140    -4414075.99249  -3427297.44845  23914742.728    23914753.567
       218.000         155.000
  20604247.431      542760.53649    418254.19247  20604247.606    20604254.138
       240.000         208.000
  21018676.366    -2013125.11349  -1565783.54447  21018675.993    21018682.590
       240.000         207.000
 99  4 26  0 22 30.0000000  0  6G26G23G22G21G 6G17
  21635844.411    -1318927.76449  -1025378.86546  21635844.666    21635851.648
       232.000         187.000
  21034312.995    -2788596.05349  -2165873.42547  21034312.568    21034319.760
       242.000         210.000
  23498288.077    -1030547.31549   -802623.22345  23498287.804    23498296.229
       215.000         159.000
  23899399.354    -4494703.48349  -3490123.89945  23899398.721    23899410.044
       209.000         155.000
  20612944.511      588463.89749    453867.18447  20612944.735    20612951.530
       240.000         207.000
  21014437.274    -2035401.68649  -1583141.89147  21014436.898    21014443.750
       240.000         207.000
 99  4 26  0 23  0.0000000  0  6G26G23G22G21G 6G17
  21636717.903    -1314337.82649  -1021802.24946  21636717.722    21636724.746
       233.000         187.000
  21027862.939    -2822491.28849  -2192285.24847  21027862.534    21027869.290
       244.000         210.000
  23499958.136    -1021771.25849   -795784.72745  23499957.618    23499967.193
       218.000         160.000
  23884086.432    -4575171.59149  -3552826.06545  23884086.071    23884095.600
       216.000         152.000
  20621731.831      634641.60749    489849.80147  20621731.802    20621738.515
       242.000         207.000
  21010222.152    -2057552.44049  -1600402.19347  21010221.636    21010228.240
       242.000         207.000
 99  4 26  0 23 30.0000000  0  6G26G23G22G21G 6G17
  21637707.524    -1309137.02549  -1017749.63546  21637707.577    21637714.688
       232.000         187.000
  21021491.422    -2855973.82949  -2218375.49847  21021490.685    21021497.917
       242.000         210.000
  23501721.644    -1012504.05549   -788563.53645  23501720.607    23501730.391
       216.000         161.000
  23868809.788    -4655450.65049  -3615380.98445  23868808.857    23868820.981
       215.000         155.000
  20630618.597      681341.74849    526239.49547  20630618.850    20630625.406
       240.000         207.000
  21006037.932    -2079540.65249  -1617535.85247  21006037.343    21006044.150
       241.000         207.000
 99  4 26  0 24  0.0000000  0  6G26G23G22G21G 6G17
  21638815.898    -1303312.31049  -1013210.84746  21638816.419    21638822.990
       232.000         187.000
  21015207.414    -2888996.12949  -2244107.10747  21015207.155    21015214.064
       242.000         210.000
  23503583.062    -1002722.74049   -780941.73545  23503582.019    23503591.479
       216.000         162.000
  23853573.850    -4735515.02349  -3677768.55645  23853572.805    23853585.275
       211.000         157.000
  20639606.872      728575.40349    563044.92447  20639606.897    20639613.838
       240.000         207.000
  21001889.284    -2101342.04749  -1634523.92447  21001888.905    21001895.730
       241.000         207.000
 99  4 26  0 24 30.0000000  0  6G26G23G22G21G 6G17
  21640044.147    -1296857.37949  -1008180.99046  21640043.769    21640051.493
       232.000         187.000
  21009013.268    -2921546.65149  -2269471.10147  21009012.693    21009019.807
       244.000         210.000
  23505544.320     -992416.47549   -772910.86845  23505543.651    23505553.225
       217.000         162.000
  23838387.274    -4815319.69649  -3739953.80145  23838386.399    23838396.922
       216.000         156.000
  20648696.995      776344.31249    600267.42847  20648697.294    20648703.828
       241.000         207.000
  20997777.731    -2122948.33349  -1651359.96347  20997777.131    20997784.081
       241.000         207.000
 99  4 26  0 25  0.0000000  0  6G26G23G22G21G 6G17
  21641391.051    -1289779.01749  -1002665.34146  21641391.127    21641397.938
       232.000         187.000
  21002905.266    -2953644.25049  -2294482.16547  21002904.842    21002911.666
       243.000         210.000
  23507604.555     -981590.22549   -764474.81945  23507603.825    23507612.654
       215.000         162.000
  23823251.264    -4894860.43049  -3801933.39945  23823251.616    23823262.454
       218.000         159.000
  20657888.994      824648.35349    637906.91447  20657889.321    20657896.057
       240.000         207.000
  20993701.298    -2144370.16949  -1668052.27847  20993700.733    20993707.442
       240.000         207.000
 99  4 26  0 25 30.0000000  0  6G26G23G22G21G 6G17
  21642854.206    -1282090.19249   -996674.00446  21642854.174    21642861.154
       232.000         187.000
  20996879.329    -2985310.41049  -2319157.04947  20996878.803    20996885.581
       243.000         211.000
  23509759.861     -970264.10249   -755649.25745  23509759.482    23509769.370
       218.000         162.000
  23808164.099    -4974143.20149  -3863711.93445  23808161.743    23808174.151
       214.000         158.000
  20667178.276      873463.54949    675944.70947  20667178.510    20667185.003
       240.000         207.000
  20989656.146    -2165627.35749  -1684616.29447  20989655.544    20989662.766
       241.000         207.000
 99  4 26  0 26  0.0000000  0  6G26G23G22G21G 6G17
  21644431.356    -1273802.06949   -990215.68046  21644431.412    21644437.857
       234.000         187.000
  20990928.422    -3016582.03449  -2343524.50147  20990927.863    20990934.739
       243.000         211.000
  23512006.171     -958459.49349   -746450.85745  23512005.108    23512014.797
       218.000         162.000
  23793123.410    -5053181.07949  -3925299.66945  23793122.894    23793132.385
       216.000         158.000
  20676558.289      922755.73249    714354.17447  20676558.297    20676565.074
       241.000         206.000
  20985638.963    -2186737.69849  -1701065.89147  20985638.625    20985645.196
       242.000         207.000
 99  4 26  0 26 30.0000000  0  6G26G23G22G21G 6G17
  21646121.281    -1264921.54249   -983295.73746  21646121.702    21646128.250
       233.000         187.000
  20985046.408    -3047492.20349  -2367610.29847  20985045.875    20985052.826
       243.000         211.000
  23514341.832     -946185.20649   -736886.47145  23514341.840    23514349.571
       219.000         162.000
  23778122.299    -5132012.16549  -3986726.30245  23778120.320    23778132.899
       212.000         156.000
  20686027.435      972516.34549    753128.65747  20686027.421    20686034.162
       241.000         206.000
  20981648.141    -2207709.39149  -1717407.44447  20981647.458    20981654.661
       241.000         207.000
 99  4 26  0 27  0.0000000  0  6G26G23G22G21G 6G17
  21647924.235    -1255446.78249   -975912.76646  21647924.564    21647931.530
       232.000         187.000
  20979231.852    -3078047.76649  -2391419.78747  20979231.490    20979238.472
       242.000         211.000
  23516763.628     -933459.20749   -726970.11246  23516762.994    23516771.390
       219.000         163.000
  23763155.072    -5210663.57649  -4048012.85545  23763155.160    23763165.387
       215.000         156.000
  20695587.498     1022754.59049    792275.30747  20695587.773    20695594.297
       240.000         206.000
  20977683.773    -2228542.24049  -1733640.81047  20977683.692    20977690.517
       241.000         207.000
 99  4 26  0 27 30.0000000  0  6G26G23G22G21G 6G17
  21649843.226    -1245362.30149   -968054.68146  21649843.385    21649850.147
       233.000         187.000
  20973488.701    -3108227.97249  -2414936.78147  20973488.396    20973495.286
       243.000         211.000
  23519271.547     -920280.44349   -716700.92246  23519270.698    23519279.768
       218.000         163.000
  23748223.300    -5289129.46349  -4109154.89545  23748222.738    23748234.075
       214.000         155.000
  20705239.455     1073475.84649    831798.34747  20705239.591    20705246.337
       240.000         206.000
  20973748.340    -2249222.93749  -1749755.60847  20973748.106    20973754.671
       240.000         207.000
 99  4 26  0 28  0.0000000  0  6G26G23G22G21G 6G17
  21651881.703    -1234649.92949   -959707.33246  21651881.944    21651889.088
       232.000         187.000
  20967822.256    -3138005.44449  -2438139.96547  20967821.929    20967828.724
       243.000         211.000
  23521870.034     -906625.42749   -706060.63845  23521868.939    23521878.184
       217.000         162.000
  23733326.880    -5367409.45049  -4170152.06045  23733325.631    23733335.796
       216.000         155.000
  20714986.397     1124696.22149    871710.29647  20714986.563    20714993.260
       240.000         206.000
  20969844.124    -2269739.67849  -1765742.65147  20969843.489    20969850.250
       241.000         207.000
 99  4 26  0 28 30.0000000  0  6G26G23G22G21G 6G17
  21654042.352    -1223295.61249   -950859.77746  21654042.788    21654049.693
       233.000         187.000
  20962241.513    -3167332.52349  -2460992.19547  20962241.142    20962247.985
       243.000         211.000
  23524561.788     -892479.63949   -695037.93346  23524560.116    23524570.143
       216.000         163.000
  23718469.448    -5445485.41449  -4230990.26545  23718468.546    23718480.040
       214.000         156.000
  20724833.876     1176444.99749    912033.99147  20724833.996    20724840.713
       239.000         206.000
  20965972.703    -2290084.08349  -1781595.41747  20965972.509    20965978.889
       240.000         207.000
 99  4 26  0 29  0.0000000  0  6G26G23G22G21G 6G17
  21656326.149    -1211294.33449   -941508.08146  21656326.097    21656333.268
       232.000         187.000
  20956750.878    -3196185.64949  -2483475.10547  20956750.504    20956757.390
       242.000         211.000
  23527347.316     -877840.91649   -683631.11045  23527346.357    23527355.918
       217.000         162.000
  23703657.780    -5523320.14149  -4291640.48545  23703657.869    23703668.691
       216.000         156.000
  20734781.613     1228720.50349    952768.12947  20734781.589    20734788.403
       239.000         206.000
  20962135.349    -2310249.55849  -1797308.74347  20962134.806    20962141.532
       241.000         207.000
 99  4 26  0 29 30.0000000  0  6G26G23G22G21G 6G17
  21658733.032    -1198645.93149   -931652.14446  21658733.281    21658739.819
       233.000         187.000
  20951350.216    -3224566.24349  -2505589.80847  20951349.862    20951356.660
       243.000         211.000
  23530228.825     -862697.85349   -671831.33245  23530228.382    23530237.361
       217.000         161.000
  23688892.829    -5600909.97449  -4352099.86945  23688891.771    23688902.137
       214.000         157.000
  20744825.980     1281503.77149    993897.92147  20744826.435    20744832.930
       240.000         205.000
  20958333.240    -2330229.87449  -1812877.79847  20958332.778    20958339.681
       241.000         208.000
 99  4 26  0 30  0.0000000  0  6G26G23G22G21G 6G17
  21661261.914    -1185356.28649   -921296.53446  21661262.000    21661268.239
       232.000         187.000
  20946033.469    -3252505.85449  -2527360.88547  20946032.923    20946039.775
       243.000         211.000
  23533205.215     -847056.93249   -659643.58745  23533204.991    23533213.828
       216.000         160.000
  23674174.185    -5678256.00649  -4412369.28345  23674171.992    23674183.714
       215.000         156.000
  20754965.702     1334788.10049   1035418.15847  20754965.686    20754972.382
       240.000         205.000
  20954565.147    -2350031.37949  -1828307.52047  20954564.417    20954571.090
       241.000         208.000
 99  4 26  0 30 30.0000000  0  6G26G23G22G21G 6G17
  21663908.689    -1171447.28049   -910458.31946  21663909.108    21663915.537
       232.000         187.000
  20940790.171    -3280059.38349  -2548831.12547  20940789.643    20940796.720
       243.000         211.000
  23536267.688     -830963.88349   -647103.55245  23536266.981    23536275.412
       217.000         161.000
  23659501.005    -5755363.29549  -4472452.66045  23659499.999    23659510.933
       216.000         158.000
  20765197.615     1388556.96149   1077315.94447  20765197.543    20765204.654
       239.000         205.000
  20950829.268    -2369663.44149  -1843605.21247  20950828.883    20950835.461
       241.000         208.000
 99  4 26  0 31  0.0000000  0  6G26G23G22G21G 6G17
  21666669.919    -1156936.92349   -899151.51246  21666670.316    21666677.009
       233.000         187.000
  20935609.294    -3307284.97349  -2570045.82847  20935608.630    20935615.886
       244.000         211.000
  23539412.536     -814437.69349   -634226.01145  23539411.325    23539420.247
       217.000         160.000
  23644869.640    -5832250.93049  -4532364.87145  23644868.868    23644878.571
       218.000         159.000
  20775516.493     1442783.01749   1119569.98647  20775516.549    20775523.283
       240.000         205.000
  20947122.641    -2389142.04449  -1858783.32447  20947121.829    20947128.674
       242.000         208.000
 99  4 26  0 31 30.0000000  0  6G26G23G22G21G 6G17
  21669538.269    -1141863.55149   -887405.99346  21669538.011    21669544.561
       233.000         187.000
  20930480.631    -3334235.97749  -2591046.57047  20930479.930    20930486.938
       244.000         211.000
  23542633.059     -797513.90849   -621038.62445  23542632.025    23542641.348
       217.000         161.000
  23630270.404    -5908970.19449  -4592145.91045  23630270.144    23630280.118
       218.000         159.000
  20785916.762     1497436.91749   1162157.41247  20785916.859    20785923.625
       240.000         205.000
  20943435.104    -2408519.90749  -1873882.93247  20943434.382    20943441.206
       241.000         208.000
 99  4 26  0 32  0.0000000  0  6G26G23G22G21G 6G17
  21672511.821    -1126236.94549   -875229.38546  21672512.222    21672519.032
       233.000         187.000
  20925404.791    -3360909.42049  -2611831.02647  20925404.444    20925411.105
       244.000         211.000
  23545928.879     -780194.02749   -607542.63845  23545928.153    23545937.204
       218.000         161.000
  23615704.403    -5985514.41149  -4651790.53745  23615704.428    23615713.722
       218.000         161.000
  20796399.242     1552522.66549   1205081.34947  20796399.522    20796406.303
       240.000         205.000
  20939764.526    -2427808.75049  -1888913.18147  20939763.843    20939770.626
       243.000         208.000
 99  4 26  0 32 30.0000000  0  6G26G23G22G21G 6G17
  21675592.442    -1110048.28949   -862614.81746  21675592.799    21675599.826
       232.000         187.000
  20920390.982    -3387257.23349  -2632361.74747  20920390.535    20920397.290
       243.000         211.000
  23549302.661     -762464.96849   -593727.78245  23549302.167    23549311.019
       218.000         162.000
  23601174.506    -6061868.51849  -4711287.03145  23601173.308    23601183.811
       216.000         161.000
  20806966.644     1608054.71949   1248353.04847  20806966.996    20806973.588
       238.000         204.000
  20936112.702    -2446999.55849  -1903867.04147  20936112.041    20936118.761
       241.000         208.000
 99  4 26  0 33  0.0000000  0  6G26G23G22G21G 6G17
  21678781.687    -1093288.68149   -849555.34846  21678781.932    21678788.877
       232.000         187.000
  20915447.242    -3413236.43349  -2652605.24247  20915446.867    20915453.693
       243.000         211.000
  23552759.725     -744298.08149   -579571.79345  23552758.954    23552767.593
       218.000         162.000
  23586681.666    -6138027.53149  -4770631.52245  23586680.051    23586690.370
       217.000         161.000
  20817620.577     1664041.07349   1291978.74747  20817620.601    20817627.611
       239.000         204.000
  20932480.195    -2466088.21149  -1918741.29947  20932479.606    20932486.292
       241.000         208.000
 99  4 26  0 33 30.0000000  0  6G26G23G22G21G 6G17
  21682085.734    -1075925.44949   -836025.52546  21682086.364    21682093.106
       232.000         187.000
  20910583.552    -3438795.10249  -2672521.04747  20910583.035    20910589.688
       242.000         212.000
  23556305.310     -725666.41649   -565053.62746  23556304.270    23556313.258
       217.000         163.000
  23572231.930    -6213960.61149  -4829799.97945  23572230.834    23572241.082
       216.000         161.000
  20828367.151     1720514.83249   1335984.24447  20828367.471    20828374.306
       238.000         204.000
  20928874.832    -2485034.36149  -1933504.51247  20928874.212    20928881.186
       240.000         208.000
 99  4 26  0 34  0.0000000  0  6G26G23G22G21G 6G17
  21685507.610    -1057943.43149   -822013.53246  21685507.955    21685514.624
       232.000         187.000
  20905803.557    -3463913.73049  -2692093.96147  20905803.234    20905810.015
       244.000         211.000
  23559938.382     -706574.54049   -550176.86545  23559936.765    23559946.558
       216.000         162.000
  23557826.801    -6289658.90549  -4888785.45245  23557826.436    23557836.452
       218.000         161.000
  20839206.264     1777474.60349   1380368.45047  20839206.408    20839213.285
       239.000         204.000
  20925302.936    -2503804.65149  -1948130.69247  20925302.425    20925309.210
       242.000         208.000
 99  4 26  0 34 30.0000000  0  6G26G23G22G21G 6G17
  21689053.524    -1039309.53549   -807493.58146  21689053.661    21689060.364
       232.000         187.000
  20901111.487    -3488570.69449  -2711307.14447  20901111.152    20901118.004
       243.000         211.000
  23563663.339     -686999.28649   -534923.43445  23563662.016    23563672.082
       217.000         161.000
  23543470.565    -6365101.36749  -4947571.63645  23543470.155    23543479.234
       217.000         162.000
  20850143.198     1834948.48949   1425153.26347  20850143.286    20850150.146
       240.000         204.000
  20921771.981    -2522360.07849  -1962589.45047  20921771.409    20921778.130
       242.000         208.000
 99  4 26  0 35  0.0000000  0  6G26G23G22G21G 6G17
  21692720.553    -1020038.99849   -792477.55446  21692720.782    21692727.210
       231.000         187.000
  20896500.338    -3512802.59749  -2730189.11447  20896499.954    20896506.725
       243.000         212.000
  23567480.229     -666941.47949   -519293.99946  23567479.813    23567488.923
       216.000         163.000
  23529159.752    -6440303.79749  -5006170.75045  23529158.812    23529170.075
       216.000         161.000
  20861173.639     1892913.49949   1470320.77247  20861173.760    20861180.558
       239.000         204.000
  20918281.724    -2540701.32749  -1976881.31547  20918281.045    20918287.852
       241.000         208.000
 99  4 26  0 35 30.0000000  0  6G26G23G22G21G 6G17
  21696509.446    -1000128.24949   -776962.65746  21696509.409    21696516.831
       231.000         186.000
  20891969.071    -3536614.28749  -2748743.64047  20891968.801    20891975.391
       242.000         212.000
  23571388.142     -646405.23349   -503291.73845  23571387.008    23571396.326
       216.000         161.000
  23514894.114    -6515269.59349  -5064585.48145  23514893.878    23514903.773
       217.000         162.000
  20872298.092     1951372.77449   1515873.41947  20872298.398    20872305.093
       239.000         204.000
  20914833.082    -2558823.95549  -1991002.81847  20914832.383    20914839.133
       241.000         208.000
 99  4 26  0 36  0.0000000  0  6G26G23G22G21G 6G17
  21700415.621     -979601.20449   -760967.52846  21700415.285    21700422.334
       232.000         186.000
  20887514.648    -3560022.27649  -2766983.59247  20887514.185    20887521.148
       243.000         212.000
  23575382.830     -625412.93049   -486934.11045  23575381.563    23575391.663
       215.000         159.000
  23500669.655    -6590018.86349  -5122831.50145  23500668.696    23500678.764
       217.000         162.000
  20883512.994     2010307.12549   1561796.26147  20883512.945    20883520.141
       238.000         203.000
  20911421.472    -2576752.29949  -2004972.93647  20911421.044    20911427.662
       241.000         208.000
 99  4 26  0 36 30.0000000  0  6G26G23G22G21G 6G17
  21704440.926     -958447.98649   -744484.47346  21704440.658    21704447.819
       233.000         186.000
  20883138.652    -3583018.33249  -2784902.56247  20883138.054    20883144.952
       245.000         212.000
  23579469.409     -603937.87049   -470200.31745  23579468.454    23579477.350
       218.000         160.000
  23486491.029    -6664527.56249  -5180890.07645  23486491.091    23486499.695
       222.000         162.000
  20894822.310     2069738.00049   1608105.99947  20894822.166    20894829.291
       240.000         203.000
  20908046.434    -2594488.08349  -2018793.01247  20908045.891    20908052.369
       243.000         208.000
 99  4 26  0 37  0.0000000  0  6G26G23G22G21G 6G17
  21708580.420     -936694.59449   -727533.75446  21708580.403    21708587.180
       231.000         186.000
  20878836.232    -3605627.26549  -2802519.88047  20878835.913    20878842.618
       243.000         212.000
  23583643.052     -582005.49649   -453110.18645  23583642.494    23583650.913
       217.000         161.000
  23472354.425    -6738815.99449  -5238777.01146  23472354.197    23472363.388
       220.000         163.000
  20906221.356     2129640.07149   1654782.89747  20906221.474    20906228.457
       238.000         203.000
  20904700.701    -2612069.99149  -2032493.18547  20904700.297    20904706.618
       241.000         208.000
 99  4 26  0 37 30.0000000  0  6G26G23G22G21G 6G17
  21712834.574     -914338.40949   -710113.33146  21712834.278    21712841.042
       231.000         186.000
  20874608.489    -3627843.99149  -2819831.57647  20874608.120    20874614.962
       243.000         212.000
  23587900.528     -559632.40149   -435676.62245  23587900.356    23587908.939
       216.000         161.000
  23458260.348    -6812880.20549  -5296489.24246  23458259.965    23458269.627
       220.000         163.000
  20917709.777     2190012.01149   1701825.93347  20917709.791    20917716.616
       238.000         203.000
  20901381.656    -2629511.64849  -2046084.06847  20901381.325    20901387.718
       241.000         208.000
 99  4 26  0 38  0.0000000  0  6G26G23G22G21G 6G17
  21717202.699     -891383.17149   -692226.10646  21717202.943    21717209.085
       231.000         186.000
  20870454.387    -3649673.95449  -2836841.90347  20870454.105    20870460.655
       243.000         212.000
  23592241.761     -536818.66849   -417899.71145  23592241.501    23592250.051
       216.000         160.000
  23444211.447    -6886707.42149  -5354016.82046  23444210.311    23444220.922
       218.000         163.000
  20929285.524     2250842.91549   1749226.60347  20929285.497    20929292.521
       238.000         203.000
  20898088.617    -2646816.68249  -2059568.49447  20898088.045    20898094.693
       241.000         208.000
 99  4 26  0 38 30.0000000  0  6G26G23G22G21G 6G17
  21721684.964     -867828.65549   -673871.92246  21721684.751    21721691.946
       231.000         185.000
  20866370.541    -3671134.81549  -2853564.61547  20866369.853    20866376.647
       243.000         212.000
  23596667.439     -513562.18449   -399777.79545  23596666.947    23596676.023
       215.000         160.000
  23430206.809    -6960301.29749  -5411362.50346  23430206.795    23430215.607
       221.000         164.000
  20940947.544     2312127.18449   1796980.53947  20940947.634    20940954.414
       238.000         202.000
  20894820.465    -2663990.91649  -2072950.99747  20894819.797    20894826.406
       241.000         208.000
 99  4 26  0 39  0.0000000  0  6G26G23G22G21G 6G17
  21726277.786     -843693.34349   -655065.16246  21726277.841    21726284.488
       231.000         185.000
  20862353.840    -3692242.45649  -2870012.09347  20862353.503    20862360.149
       243.000         212.000
  23601170.234     -489899.54549   -381339.40645  23601169.980    23601178.387
       216.000         158.000
  23416240.126    -7033696.42049  -5468553.37246  23416239.585    23416249.782
       220.000         164.000
  20952691.526     2373841.81249   1845069.82447  20952691.733    20952698.673
       238.000         202.000
  20891573.924    -2681051.52549  -2086244.95847  20891573.375    20891579.939
       241.000         208.000
 99  4 26  0 39 30.0000000  0  6G26G23G22G21G 6G17
  21730986.800     -818947.06949   -635782.32446  21730987.341    21730993.214
       231.000         185.000
  20858410.846    -3712962.83049  -2886157.79847  20858410.573    20858417.214
       243.000         212.000
  23605753.391     -465815.02649   -362572.26845  23605752.877    23605761.957
       216.000         161.000
  23402316.066    -7106867.31349  -5525569.51346  23402314.555    23402324.404
       217.000         164.000
  20964522.823     2436015.61249   1893516.90047  20964522.983    20964529.867
       238.000         202.000
  20888356.635    -2697958.59249  -2099419.28047  20888356.122    20888362.509
       241.000         208.000
 99  4 26  0 40  0.0000000  0  6G26G23G22G21G 6G17
  21735810.225     -793600.02449   -616031.35846  21735810.761    21735817.050
       232.000         185.000
  20854539.567    -3733306.65549  -2902010.09347  20854539.323    20854545.902
       244.000         212.000
  23610415.019     -441318.59849   -343484.20245  23610415.070    23610423.918
       218.000         162.000
  23388432.899    -7179822.36149  -5582417.44446  23388432.215    23388442.345
       218.000         165.000
  20976442.132     2498651.72249   1942324.21347  20976442.251    20976449.253
       238.000         202.000
  20885167.279    -2714718.70249  -2112479.09047  20885166.810    20885173.488
       241.000         208.000
 99  4 26  0 40 30.0000000  0  6G26G23G22G21G 6G17
  21740749.954     -767641.95349   -595804.26646  21740750.382    21740756.248
       232.000         185.000
  20850742.874    -3753258.56349  -2917556.99547  20850742.601    20850749.169
       244.000         212.000
  23615157.240     -416398.68549   -324066.13045  23615156.587    23615165.354
       217.000         160.000
  23374593.110    -7252550.22749  -5639088.35146  23374593.076    23374602.425
       221.000         164.000
  20988453.510     2561771.51549   1991508.43147  20988453.706    20988460.449
       238.000         202.000
  20882009.381    -2731313.58149  -2125410.14547  20882008.886    20882015.294
       242.000         208.000
 99  4 26  0 41  0.0000000  0  6G26G23G22G21G 6G17
  21745806.522     -741069.55849   -575098.47746  21745806.471    21745813.388
       231.000         185.000
  20847025.472    -3772793.81749  -2932779.23547  20847024.995    20847031.550
       243.000         212.000
  23619981.528     -391046.77749   -304311.43845  23619981.297    23619988.683
       216.000         159.000
  23360800.336    -7325031.74749  -5695567.27746  23360798.935    23360808.879
       220.000         164.000
  21000560.923     2625396.34349   2041086.18147  21000560.914    21000567.899
       237.000         202.000
  20878886.261    -2747725.63349  -2138198.73747  20878885.528    20878892.101
       242.000         209.000
 99  4 26  0 41 30.0000000  0  6G26G23G22G21G 6G17
  21750980.113     -713881.96949   -553913.31546  21750980.500    21750986.486
       231.000         185.000
  20843387.818    -3791909.54449  -2947674.57147  20843387.433    20843393.987
       243.000         212.000
  23624892.643     -365238.94049   -284201.47945  23624891.658    23624901.420
       215.000         159.000
  23347059.095    -7397242.10449  -5751834.92646  23347059.177    23347067.504
       221.000         165.000
  21012764.923     2689528.54249   2091059.27947  21012764.956    21012772.058
       237.000         202.000
  20875800.904    -2763939.19749  -2150832.67347  20875800.274    20875806.811
       241.000         209.000
 99  4 26  0 42  0.0000000  0  6G26G23G22G21G 6G17
  21756267.927     -686094.47949   -532260.70746  21756268.329    21756274.564
       232.000         186.000
  20839824.673    -3810633.98349  -2962265.01148  20839824.190    20839830.890
       244.000         213.000
  23629889.420     -338980.89949   -263740.70845  23629888.778    23629897.265
       217.000         160.000
  23333366.198    -7469198.23549  -5807904.46946  23333365.467    23333375.598
       220.000         165.000
  21025059.677     2754137.74849   2141404.07447  21025059.564    21025066.750
       237.000         201.000
  20872749.393    -2779974.89249  -2163328.00047  20872748.717    20872755.501
       241.000         209.000
 99  4 26  0 42 30.0000000  0  6G26G23G22G21G 6G17
  21761667.514     -657719.39349   -510150.23346  21761667.711    21761674.455
       231.000         185.000
  20836331.419    -3828991.12749  -2976569.24748  20836331.128    20836337.205
       244.000         213.000
  23634969.093     -312287.12049   -242940.41345  23634968.132    23634977.152
       214.000         160.000
  23319716.432    -7540926.99649  -5863796.83446  23319715.887    23319724.917
       222.000         165.000
  21037440.308     2819198.13849   2192100.44147  21037440.273    21037447.230
       238.000         201.000
  20869728.265    -2795851.05049  -2175699.01847  20869727.648    20869734.486
       242.000         209.000
 99  4 26  0 43  0.0000000  0  6G26G23G22G21G 6G17
  21767177.885     -628762.10149   -487586.08546  21767178.346    21767184.809
       231.000         185.000
  20832902.830    -3847008.56549  -2990608.77448  20832902.432    20832908.854
       244.000         213.000
  23640126.299     -285186.31449   -221822.95145  23640126.001    23640135.069
       217.000         161.000
  23306104.908    -7612455.71549  -5919533.30346  23306103.360    23306113.124
       220.000         165.000
  21049901.269     2884680.86949   2243125.91047  21049901.267    21049907.875
       238.000         201.000
  20866732.862    -2811591.91149  -2187964.60447  20866732.242    20866738.932
       242.000         209.000
 99  4 26  0 43 30.0000000  0  6G26G23G22G21G 6G17
  21772802.902     -599202.04049   -464552.25646  21772803.232    21772809.718
       231.000         185.000
  20829538.784    -3864686.49749  -3004383.76048  20829538.431    20829545.046
       244.000         213.000
  23645360.258     -257681.81949   -200390.93645  23645359.478    23645369.120
       213.000         160.000
  23292530.610    -7683788.41349  -5975117.06046  23292530.107    23292539.499
       221.000         166.000
  21062439.491     2950569.27049   2294467.47747  21062439.487    21062446.510
       237.000         201.000
  20863763.867    -2827194.23649  -2200122.24947  20863763.307    20863769.767
       241.000         209.000
 99  4 26  0 44  0.0000000  0  6G26G23G22G21G 6G17
  21778539.624     -569055.46149   -441061.40746  21778539.761    21778546.584
       232.000         185.000
  20826235.855    -3882043.61049  -3017908.75148  20826235.287    20826242.077
       244.000         213.000
  23650665.192     -229804.14049   -178668.10545  23650664.755    23650674.084
       217.000         159.000
  23278990.192    -7754944.09449  -6030562.89446  23278988.512    23278998.551
       218.000         166.000
  21075053.327     3016855.26749   2346118.86647  21075053.674    21075060.389
       237.000         201.000
  20860817.011    -2842680.14549  -2212189.17947  20860816.377    20860822.757
       241.000         209.000
 99  4 26  0 44 30.0000000  0  6G26G23G22G21G 6G17
  21784387.893     -538322.46549   -417113.60046  21784387.962    21784394.547
       232.000         185.000
  20822998.130    -3899057.93849  -3031166.63748  20822997.559    20823004.361
       243.000         213.000
  23656041.358     -201552.94149   -156654.22345  23656040.574    23656050.371
       216.000         160.000
  23265486.614    -7825903.93149  -6085856.06946  23265486.999    23265495.453
       224.000         167.000
  21087748.623     3083569.15949   2398103.67247  21087748.565    21087755.590
       238.000         200.000
  20857897.524    -2858022.08849  -2224143.92847  20857897.028    20857903.333
       242.000         209.000
 99  4 26  0 45  0.0000000  0  6G26G23G22G21G 6G17
  21790351.592     -506983.40349   -392693.53546  21790351.943    21790358.174
       232.000         185.000
  20819833.129    -3915689.86649  -3044126.54448  20819832.530    20819839.131
       244.000         213.000
  23661494.684     -172895.27949   -134323.64245  23661494.128    23661502.829
       215.000         159.000
  23252026.767    -7896635.82749  -6140971.70046  23252027.306    23252036.596
       224.000         166.000
  21100529.836     3150734.66249   2450440.38647  21100529.827    21100536.638
       238.000         200.000
  20855014.057    -2873174.87349  -2235951.27747  20855013.505    20855019.872
       242.000         209.000
 99  4 26  0 45 30.0000000  0  6G26G23G22G21G 6G17
  21796425.579     -475064.38749   -367821.56546  21796425.199    21796432.189
       231.000         185.000
  20816738.385    -3931952.73849  -3056798.88048  20816737.862    20816744.528
       244.000         213.000
  23667024.881     -143833.58649   -111678.22245  23667024.400    23667033.259
       217.000         159.000
  23238609.940    -7967141.60349  -6195911.10046  23238608.866    23238617.240
       222.000         168.000
  21113395.254     3218342.74449   2503121.96747  21113395.540    21113402.105
       237.000         200.000
  20852167.294    -2888134.35649  -2247608.01147  20852166.645    20852172.962
       242.000         209.000
 99  4 26  0 46  0.0000000  0  6G26G23G22G21G 6G17
  21802612.324     -442552.58849   -342487.68346  21802612.585    21802619.133
       232.000         185.000
  20813719.375    -3947817.43449  -3069160.95148  20813719.102    20813725.300
       244.000         213.000
  23672637.972     -114337.58049    -88694.36145  23672637.594    23672647.075
       218.000         161.000
  23225244.091    -8037379.38649  -6250641.69746  23225242.679    23225252.350
       222.000         169.000
  21126353.873     3286440.76949   2556185.32047  21126353.920    21126360.769
       237.000         200.000
  20849365.684    -2902856.91749  -2259080.12047  20849365.235    20849371.701
       242.000         209.000
 99  4 26  0 46 30.0000000  0  6G26G23G22G21G 6G17
  21808913.921     -409437.63949   -316683.81446  21808914.343    21808921.065
       231.000         185.000
  20810776.244    -3963283.73149  -3081212.58048  20810775.800    20810782.383
       244.000         213.000
  23678333.699      -84406.91549    -65371.84545  23678333.051    23678342.792
       216.000         161.000
  23211927.352    -8107357.44349  -6305169.90346  23211926.258    23211936.245
       223.000         168.000
  21139401.773     3355007.67949   2609614.03847  21139401.847    21139408.862
       237.000         200.000
  20846607.336    -2917352.32549  -2270375.23547  20846606.934    20846613.404
       242.000         209.000
 99  4 26  0 47  0.0000000  0  6G26G23G22G21G 6G17
  21815330.783     -375716.63449   -290407.70546  21815330.501    21815337.591
       230.000         185.000
  20807907.818    -3978357.10749  -3092958.03948  20807907.445    20807913.877
       244.000         213.000
  23684112.398      -54039.99549    -41709.35245  23684111.611    23684120.808
       216.000         160.000
  23198659.942    -8177077.46049  -6359497.02546  23198660.262    23198669.709
       225.000         170.000
  21152534.400     3424019.86949   2663389.72847  21152534.585    21152541.620
       237.000         200.000
  20843886.367    -2931651.06949  -2281517.10147  20843885.598    20843892.218
       241.000         209.000
 99  4 26  0 47 30.0000000  0  6G26G23G22G21G 6G17
  21821856.988     -341421.24149   -263684.01546  21821857.133    21821863.135
       230.000         185.000
  20805108.773    -3993065.92849  -3104419.42848  20805108.403    20805114.707
       243.000         213.000
  23689966.724      -23275.38749    -17736.96045  23689966.108    23689975.069
       214.000         158.000
  23185438.496    -8246557.40549  -6413637.12746  23185436.626    23185446.134
       223.000         170.000
  21165745.871     3493446.21849   2717488.13647  21165745.959    21165753.057
       237.000         200.000
  20841194.640    -2945796.10549  -2292539.19347  20841193.942    20841200.585
       242.000         209.000
 99  4 26  0 48  0.0000000  0  6G26G23G22G21G 6G17
  21828496.728     -306528.79049   -236495.08546  21828496.576    21828504.022
       229.000         184.000
  20802385.836    -4007375.07949  -3115569.38148  20802385.118    20802391.601
       244.000         213.000
  23695898.245        7895.05549      6551.61945  23695897.142    23695907.431
       215.000         160.000
  23172263.452    -8315792.28449  -6467586.25946  23172261.377    23172270.489
       223.000         169.000
  21179040.037     3563307.35149   2771925.33647  21179040.076    21179047.060
       237.000         199.000
  20838530.269    -2959797.45149  -2303449.32047  20838529.716    20838536.000
       242.000         209.000
 99  4 26  0 48 30.0000000  0  6G26G23G22G21G 6G17
  21835253.599     -271021.16849   -208826.80046  21835253.658    21835260.655
       231.000         184.000
  20799742.623    -4021264.95149  -3126392.63048  20799742.148    20799748.771
       245.000         213.000
  23701910.887       39491.28549     31172.01645  23701910.499    23701919.052
       218.000         161.000
  23159134.797    -8384782.44749  -6521344.67846  23159132.596    23159144.856
       223.000         170.000
  21192418.636     3633612.25849   2826708.33647  21192418.674    21192425.610
       237.000         199.000
  20835893.361    -2973654.53249  -2314247.03547  20835892.622    20835899.112
       243.000         209.000
 99  4 26  0 49  0.0000000  0  6G26G23G22G21G 6G17
  21842126.418     -234903.93249   -180683.49846  21842126.580    21842133.414
       230.000         184.000
  20797181.593    -4034722.92649  -3136879.33648  20797181.051    20797187.628
       243.000         213.000
  23708005.214       71517.10449     56127.12745  23708004.440    23708013.280
       216.000         159.000
  23146054.832    -8453518.28449  -6574904.96246  23146054.180    23146062.393
       224.000         170.000
  21205888.322     3704395.74549   2881864.24847  21205888.769    21205895.663
       236.000         199.000
  20833291.116    -2987329.31149  -2324902.69947  20833290.723    20833297.036
       242.000         209.000
 99  4 26  0 49 30.0000000  0  6G26G23G22G21G 6G17
  21849116.045     -198173.32649   -152062.23346  21849116.242    21849122.858
       230.000         184.000
  20794699.854    -4047764.17449  -3147041.31548  20794699.609    20794705.893
       243.000         213.000
  23714180.081      103966.11949     81411.99145  23714178.846    23714189.250
       217.000         159.000
  23133023.285    -8521999.36149  -6628266.73046  23133022.082    23133030.584
       224.000         169.000
  21219451.290     3775669.77649   2937402.41247  21219451.290    21219458.919
       236.000         198.000
  20830727.157    -3000803.16049  -2335401.78947  20830726.598    20830732.916
       242.000         209.000
 99  4 26  0 50  0.0000000  0  7G26G23G22G21G 6G17G 3
  21856234.633     -160765.25949   -122913.08646  21856234.634    21856241.334
       230.000         184.000
  20792306.499    -4060341.31149  -3156841.65148  20792306.216    20792312.646
       243.000         213.000
  23720445.676      136891.64649    107068.19045  23720445.527    23720454.843
       217.000         161.000
  23120050.778    -8590168.73749  -6681385.58546  23120049.793    23120059.140
       224.000         169.000
  21233120.926     3847503.80349   2993376.93147  21233121.046    21233128.346
       236.000         198.000
  20828215.059    -3014004.42249  -2345688.47547  20828214.427    20828220.884
       242.000         209.000
  24625373.131    -1638185.97549  -1260557.57045  24625373.589    24625382.015
       200.000         138.000
 99  4 26  0 50 30.0000000  0  7G26G23G22G21G 6G17G 3
  21863454.454     -122824.91449    -93349.17846  21863454.595    21863460.790
       230.000         184.000
  20789971.642    -4072610.98949  -3166402.40848  20789971.252    20789977.585
       244.000         213.000
  23726778.199      170169.02549    132998.55245  23726777.084    23726786.998
       216.000         160.000
  23107115.007    -8658146.46249  -6734355.13246  23107114.557    23107123.465
       223.000         170.000
  21246871.609     3919763.47649   3049683.11447  21246871.477    21246878.802
       236.000         198.000
  20825734.081    -3027041.75349  -2355847.42547  20825733.675    20825739.898
       242.000         209.000
  24605778.361    -1741156.50749  -1340794.26545  24605778.314    24605787.342
       200.000         138.000
 99  4 26  0 51  0.0000000  0  7G26G23G22G21G 6G17G 3
  21870774.915      -84355.32949    -63372.87746  21870774.838    21870781.028
       229.000         183.000
  20787690.935    -4084596.37849  -3175741.64648  20787690.641    20787697.020
       244.000         213.000
  23733176.892      203794.25549    159199.96145  23733176.304    23733185.087
       217.000         161.000
  23094219.248    -8725913.91549  -6787160.82546  23094218.625    23094227.919
       221.000         170.000
  21260700.543     3992434.80749   3106310.07747  21260700.393    21260707.637
       235.000         198.000
  20823283.884    -3039917.64649  -2365880.58047  20823283.261    20823289.937
       242.000         209.000
  24586198.736    -1844047.59949  -1420969.10845  24586197.939    24586206.537
       206.000         140.000
 99  4 26  0 51 30.0000000  0  7G26G23G22G21G 6G17G 3
  21878195.354      -45361.02749    -32987.69646  21878195.510    21878202.141
       229.000         183.000
  20785463.105    -4096303.67349  -3184864.19148  20785462.883    20785469.241
       244.000         213.000
  23739642.039      237768.53049    185673.36245  23739641.658    23739650.888
       218.000         162.000
  23081364.409    -8793464.97949  -6839797.91246  23081362.595    23081373.026
       223.000         170.000
  21274602.408     4065489.83549   3163236.01347  21274602.579    21274609.712
       235.000         197.000
  20820859.547    -3052657.64549  -2375807.84547  20820859.109    20820865.452
       242.000         209.000
  24566633.681    -1946862.41549  -1501084.53945  24566632.764    24566641.082
       205.000         138.000
 99  4 26  0 52  0.0000000  0  7G26G23G22G21G 6G17G 3
  21885716.222       -5838.69349     -2191.06246  21885716.674    21885723.237
       229.000         183.000
  20783293.622    -4107704.76149  -3193748.12348  20783292.866    20783299.491
       243.000         213.000
  23746175.716      272102.62849    212427.11945  23746175.185    23746184.633
       216.000         162.000
  23068551.368    -8860797.05749  -6892264.36246  23068551.264    23068559.027
       224.000         170.000
  21288579.466     4138939.74349   3220469.65847  21288579.293    21288586.403
       235.000         197.000
  20818463.050    -3065251.23349  -2385621.01147  20818462.298    20818468.958
       242.000         209.000
  24547087.366    -2049579.54849  -1581123.77845  24547086.656    24547097.053
       205.000         141.000
 99  4 26  0 52 30.0000000  0  7G26G23G22G21G 6G17G 3
  21893339.271       34220.42249     29023.83246  21893338.927    21893346.122
       229.000         183.000
  20781183.456    -4118793.49049  -3202388.66848  20781183.046    20781189.473
       243.000         213.000
  23752780.211      306809.34149    239471.22045  23752778.923    23752789.144
       216.000         160.000
  23055781.091    -8927905.30749  -6944556.37746  23055781.035    23055788.741
       224.000         171.000
  21302628.392     4212766.89249   3277997.25247  21302628.467    21302635.695
       235.000         197.000
  20816094.041    -3077700.28349  -2395321.56347  20816093.608    20816099.962
       242.000         209.000
  24527561.139    -2152190.21949  -1661080.08845  24527560.753    24527569.723
       208.000         143.000
 99  4 26  0 53  0.0000000  0  7G26G23G22G21G 6G17G 3
  21901070.357       74847.58049     60681.36146  21901070.994    21901077.188
       230.000         183.000
  20779139.068    -4129536.63749  -3210759.93548  20779138.522    20779145.041
       243.000         213.000
  23759456.168      341891.48849    266807.90045  23759455.901    23759464.659
       218.000         161.000
  23043055.885    -8994776.18949  -6996663.45146  23043056.254    23043065.071
       228.000         172.000
  21316748.957     4286970.63249   3335818.28847  21316748.902    21316756.354
       235.000         197.000
  20813755.431    -3089989.94949  -2404897.91647  20813754.987    20813761.364
       242.000         209.000
  24508057.712    -2254682.17949  -1740943.89945  24508057.215    24508065.390
       209.000         144.000
 99  4 26  0 53 30.0000000  0  7G26G23G22G21G 6G17G 3
  21908912.147      116056.32249     92792.08246  21908912.515    21908918.134
       229.000         183.000
  20777164.687    -4139912.00349  -3218844.61248  20777164.239    20777170.557
       244.000         213.000
  23766200.747      377334.13349    294425.49145  23766200.572    23766209.020
       217.000         161.000
  23030374.003    -9061419.64949  -7048593.32346  23030373.684    23030382.262
       225.000         171.000
  21330943.647     4361564.31249   3393943.18047  21330943.775    21330950.993
       235.000         196.000
  20811447.565    -3102117.90849  -2414348.26447  20811447.005    20811453.402
       242.000         209.000
  24488577.306    -2357052.23849  -1820712.72245  24488577.391    24488584.944
       206.000         143.000
 99  4 26  0 54  0.0000000  0  7G26G23G22G21G 6G17G 3
  21916870.524      157878.19149    125380.55646  21916870.566    21916876.993
       230.000         183.000
  20775261.945    -4149910.94149  -3226635.96948  20775261.666    20775267.703
       245.000         213.000
  23773017.021      413153.40849    322336.52545  23773015.874    23773025.769
       216.000         160.000
  23017738.315    -9127820.12849  -7100333.86346  23017738.481    23017744.535
       228.000         171.000
  21345217.588     4436574.09849   3452392.31147  21345217.763    21345224.864
       236.000         196.000
  20809175.765    -3114056.42949  -2423650.99347  20809175.118    20809181.603
       243.000         209.000
  24469123.204    -2459284.10049  -1900373.81045  24469122.749    24469130.732
       212.000         145.000
 99  4 26  0 54 30.0000000  0  7G26G23G22G21G 6G17G 3
  21924943.736      200303.12649    158438.94546  21924943.917    21924950.689
       229.000         183.000
  20773426.964    -4159553.74649  -3234149.82648  20773426.456    20773432.645
       243.000         213.000
  23779902.895      449338.98249    350533.00245  23779902.496    23779911.534
       217.000         161.000
  23005149.219    -9193975.39949  -7151883.30846  23005148.337    23005156.629
       224.000         170.000
  21359566.869     4511979.86349   3511149.98847  21359567.119    21359573.788
       235.000         196.000
  20806937.288    -3125819.47649  -2432816.99647  20806936.867    20806943.156
       241.000         209.000
  24449692.183    -2561394.62849  -1979940.39345  24449691.341    24449700.183
       211.000         145.000
 99  4 26  0 55  0.0000000  0  7G26G23G22G21G 6G17G 3
  21933129.368      243318.61749    191957.52046  21933129.750    21933135.709
       229.000         182.000
  20771660.396    -4168837.11449  -3241383.59648  20771659.959    20771666.412
       244.000         213.000
  23786855.503      485874.86649    379002.44945  23786854.623    23786865.113
       218.000         162.000
  22992604.545    -9259898.06849  -7203251.52746  22992605.141    22992613.142
       227.000         172.000
  21373994.148     4587795.38449   3570226.96447  21373993.882    21374001.529
       235.000         195.000
  20804731.362    -3137411.59649  -2441849.80147  20804730.904    20804737.297
       242.000         209.000
  24430279.514    -2663409.35549  -2059432.28745  24430278.640    24430287.739
       208.000         142.000
 99  4 26  0 55 30.0000000  0  7G26G23G22G21G 6G17G 3
  21941426.448      286920.27349    225932.83746  21941426.626    21941433.133
       229.000         182.000
  20769963.645    -4177753.59849  -3248331.48448  20769963.134    20769969.519
       243.000         213.000
  23793878.595      522780.90749    407760.32045  23793878.221    23793887.334
       217.000         161.000
  22980106.368    -9325576.91349  -7254429.74046  22980107.273    22980114.051
       227.000         171.000
  21388503.930     4664044.54349   3629641.82847  21388503.867    21388511.176
       234.000         195.000
  20802560.487    -3148819.51849  -2450739.07947  20802559.867    20802566.354
       241.000         209.000
  24410887.650    -2765314.06649  -2138838.44645  24410886.895    24410895.329
       212.000         143.000
 99  4 26  0 56  0.0000000  0  7G26G23G22G21G 6G17G 3
  21949833.374      331098.92449    260357.75246  21949833.107    21949839.772
       227.000         182.000
  20768339.275    -4186289.33749  -3254982.69048  20768338.858    20768345.313
       244.000         213.000
  23800978.536      560091.09249    436833.11145  23800977.966    23800987.623
       216.000         161.000
  22967656.429    -9391001.97449  -7305410.21846  22967655.393    22967664.504
       223.000         171.000
  21403097.924     4740736.29349   3689401.57647  21403098.273    21403105.258
       234.000         195.000
  20800429.459    -3160018.20949  -2459465.31547  20800428.973    20800435.284
       242.000         209.000
  24391518.934    -2867097.75049  -2218150.34045  24391518.863    24391525.288
       210.000         142.000
 99  4 26  0 56 30.0000000  0  7G26G23G22G21G 6G17G 3
  21958349.302      375851.02749    295229.51746  21958349.791    21958355.504
       229.000         182.000
  20766792.140    -4194419.52949  -3261317.89048  20766791.989    20766798.277
       243.000         213.000
  23808155.129      597803.72149    466219.48245  23808154.997    23808164.025
       219.000         162.000
  22955255.239    -9456168.51749  -7356189.23046  22955254.388    22955262.499
       225.000         171.000
  21417778.048     4817880.64249   3749513.98947  21417778.720    21417785.225
       235.000         195.000
  20798338.407    -3171006.78449  -2468027.82747  20798337.650    20798344.192
       242.000         210.000
  24372174.907    -2968750.27249  -2297359.95945  24372174.155    24372182.558
       207.000         140.000
 99  4 26  0 57  0.0000000  0  7G26G23G22G21G 6G17G 3
  21966974.158      421174.67049    330546.64146  21966974.340    21966981.050
       228.000         182.000
  20765322.029    -4202144.66949  -3267337.45948  20765321.807    20765327.983
       243.000         213.000
  23815407.922      635916.83549    495917.93646  23815407.756    23815416.531
       218.000         163.000
  22942900.927    -9521091.04749  -7406778.13046  22942900.061    22942908.844
       225.000         173.000
  21432545.633     4895484.44649   3809984.42947  21432545.747    21432553.213
       234.000         194.000
  20796287.373    -3181784.93749  -2476426.37147  20796286.680    20796293.683
       242.000         210.000
  24352858.259    -3070259.63349  -2376458.10145  24352856.788    24352864.354
       210.000         137.000
 99  4 26  0 57 30.0000000  0  7G26G23G22G21G 6G17G 3
  21975708.259      467072.76349    366311.39046  21975708.494    21975714.984
       228.000         181.000
  20763926.816    -4209476.73149  -3273050.73448  20763926.543    20763932.879
       243.000         213.000
  23822738.406      674438.08449    525934.41246  23822737.832    23822747.334
       218.000         163.000
  22930594.426    -9585761.84449  -7457170.85546  22930594.540    22930602.407
       226.000         173.000
  21447400.284     4973545.77849   3870811.38847  21447400.434    21447407.584
       234.000         194.000
  20794277.351    -3192347.68249  -2484657.05747  20794276.812    20794283.341
       242.000         210.000
  24333576.498    -3171585.84349  -2455413.47945  24333575.846    24333584.402
       209.000         141.000
 99  4 26  0 58  0.0000000  0  7G26G23G22G21G 6G17G 3
  21984551.141      513542.43349    402521.51946  21984551.562    21984557.194
       228.000         181.000
  20762600.926    -4216444.21349  -3278479.91948  20762600.321    20762606.725
       244.000         213.000
  23830140.653      713337.06549    556245.21845  23830139.588    23830150.068
       217.000         160.000
  22918333.035    -9650195.46749  -7507378.79546  22918333.028    22918340.423
       227.000         173.000
  21462338.227     5052045.03049   3931979.57547  21462338.642    21462345.168
       234.000         194.000
  20792303.546    -3202720.04749  -2492739.40247  20792302.858    20792309.286
       242.000         210.000
  24314327.765    -3272737.93949  -2534233.20945  24314327.162    24314334.865
       210.000         140.000
 99  4 26  0 58 30.0000000  0  7G26G23G22G21G 6G17G 3
  21993500.769      560572.56449    439168.37346  21993500.846    21993506.867
       229.000         181.000
  20761337.168    -4223085.46349  -3283654.90048  20761336.846    20761342.937
       244.000         213.000
  23837607.787      752576.77449    586821.50945  23837607.118    23837616.525
       216.000         159.000
  22906112.708    -9714412.58949  -7557418.01046  22906112.558    22906121.152
       224.000         173.000
  21477354.247     5130954.58149   3993467.48147  21477354.527    21477361.496
       234.000         194.000
  20790362.992    -3212917.87249  -2500685.74447  20790362.422    20790368.786
       242.000         210.000
  24295110.694    -3373723.28349  -2612922.94945  24295109.236    24295118.216
       212.000         140.000
 99  4 26  0 59  0.0000000  0  7G26G23G22G21G 6G17G 3
  22002550.519      608128.91349    476225.26446  22002550.171    22002556.601
       228.000         181.000
  20760126.640    -4229446.71649  -3288611.70448  20760126.104    20760132.702
       243.000         213.000
  23845134.031      792126.89849    617639.70545  23845133.108    23845142.951
       217.000         159.000
  22893929.484    -9778435.03649  -7607305.54246  22893928.543    22893938.138
       223.000         174.000
  21492441.536     5210238.45749   4055247.06647  21492441.552    21492449.091
       234.000         193.000
  20788453.054    -3222954.58749  -2508506.55247  20788452.474    20788458.976
       242.000         210.000
  24275922.249    -3474559.28649  -2691496.38745  24275920.810    24275927.153
       211.000         140.000
 99  4 26  0 59 30.0000000  0  7G26G23G22G21G 6G17G 3
  22011703.248      656227.58849    513704.75946  22011703.375    22011709.444
       228.000         180.000
  20758973.522    -4235506.14849  -3293333.31548  20758973.162    20758979.317
       244.000         213.000
  23852721.219      831998.23849    648708.19645  23852721.515    23852730.264
       217.000         159.000
  22881790.045    -9842228.10149  -7657014.32846  22881790.126    22881797.969
       224.000         174.000
  21507602.223     5289908.28449   4117327.39847  21507601.877    21507609.707
       234.000         193.000
  20786577.428    -3232811.06449  -2516186.91347  20786576.942    20786583.249
       242.000         210.000
  24256764.526    -3575233.51549  -2769943.72445  24256764.192    24256772.320
       214.000         143.000
 99  4 26  1  0  0.0000000  0  7G26G23G22G21G 6G17G 3
  22020955.587      704849.37949    551591.85546  22020955.570    22020962.272
       229.000         180.000
  20757878.191    -4241262.35349  -3297818.64548  20757877.870    20757884.083
       244.000         213.000
  23860366.858      872175.99949    680015.44945  23860366.222    23860376.092
       216.000         159.000
  22869692.010    -9905802.74649  -7706552.92946  22869690.413    22869699.553
       223.000         173.000
  21522833.042     5369946.62849   4179694.88547  21522833.073    21522840.021
       235.000         193.000
  20784734.797    -3242494.14349  -2523732.16247  20784734.388    20784740.611
       242.000         210.000
  24237632.038    -3675775.00949  -2848287.64845  24237631.977    24237640.229
       215.000         146.000
 99  4 26  1  0 30.0000000  0  7G26G23G22G21G 6G17G 3
  22030309.755      754005.90449    589895.63746  22030309.874    22030316.177
       230.000         180.000
  20756846.210    -4246685.58849  -3302044.52248  20756845.655    20756851.979
       245.000         213.000
  23868076.929      912692.48949    711586.63445  23868076.494    23868086.098
       216.000         159.000
  22857641.170    -9969129.23149  -7755898.13446  22857640.315    22857649.867
       225.000         174.000
  21538137.088     5450369.94249   4242362.34947  21538137.058    21538144.695
       234.000         192.000
  20782929.457    -3251981.28149  -2531124.73447  20782928.678    20782935.258
       243.000         210.000
  24218528.919    -3776162.43949  -2926511.55245  24218527.942    24218536.251
       214.000         145.000
 99  4 26  1  1  0.0000000  0  7G26G23G22G21G 6G17G 3
  22039767.785      803707.81849    628624.40046  22039768.086    22039774.309
       230.000         180.000
  20755882.219    -4251751.39049  -3305991.88148  20755881.822    20755888.235
       245.000         213.000
  23875854.902      953565.69449    743435.79145  23875854.760    23875864.747
       216.000         159.000
  22845642.508   -10032182.85249  -7805030.74846  22845642.621    22845650.991
       226.000         175.000
  21553516.248     5531187.14549   4305336.73247  21553516.351    21553524.214
       235.000         192.000
  20781159.610    -3261281.75649  -2538371.85547  20781158.973    20781165.517
       244.000         210.000
  24199455.821    -3876392.08549  -3004612.45145  24199455.536    24199462.917
       212.000         147.000
 99  4 26  1  1 30.0000000  0  7G26G23G22G21G 6G17G 3
  22049330.973      853962.59349    667783.95646  22049331.555    22049337.340
       228.000         180.000
  20754987.801    -4256451.62749  -3309654.38048  20754987.391    20754993.488
       244.000         213.000
  23883702.888      994807.16949    775571.89745  23883702.996    23883712.751
       216.000         159.000
  22833695.015   -10094966.92349  -7853953.29346  22833695.262    22833703.340
       226.000         176.000
  21568969.620     5612395.19749   4368615.67847  21568969.963    21568977.102
       234.000         192.000
  20779425.305    -3270395.63749  -2545473.57847  20779424.734    20779431.068
       242.000         210.000
  24180412.993    -3976461.89749  -3082588.84945  24180413.078    24180420.658
       215.000         149.000
 99  4 26  1  2  0.0000000  0  7G26G23G22G21G 6G17G 3
  22059000.923      904778.72649    707380.94946  22059001.271    22059007.207
       229.000         180.000
  20754163.740    -4260782.10149  -3313028.75248  20754163.142    20754169.467
       243.000         213.000
  23891619.351     1036407.75949    807987.85245  23891618.477    23891628.165
       216.000         158.000
  22821796.162   -10157496.48849  -7902677.53446  22821795.690    22821805.273
       227.000         176.000
  21584495.188     5693982.17249   4432189.89447  21584495.345    21584502.355
       234.000         191.000
  20777727.429    -3279317.82649  -2552425.93347  20777726.799    20777733.046
       242.000         210.000
  24161402.033    -4076364.61949  -3160435.03145  24161402.189    24161409.657
       214.000         149.000
 99  4 26  1  2 30.0000000  0  7G26G23G22G21G 6G17G 3
  22068779.501      956165.68049    747422.72546  22068779.842    22068786.298
       228.000         180.000
  20753409.417    -4264746.15649  -3316117.61048  20753408.864    20753415.167
       244.000         213.000
  23899603.687     1078364.86749    840681.61945  23899603.209    23899613.168
       217.000         158.000
  22809946.649   -10219766.00249  -7951199.13946  22809945.373    22809954.670
       227.000         177.000
  21600095.158     5775960.09749   4496068.73747  21600095.255    21600102.444
       233.000         191.000
  20776066.198    -3288047.89349  -2559228.58547  20776065.649    20776072.041
       243.000         210.000
  24142425.120    -4176089.24949  -3238142.46545  24142424.697    24142432.616
       212.000         149.000
 99  4 26  1  3  0.0000000  0  7G26G23G22G21G 6G17G 3
  22078666.181     1008120.22649    787906.77746  22078666.427    22078672.614
       227.000         180.000
  20752724.701    -4268344.26749  -3318921.31348  20752724.108    20752730.384
       243.000         213.000
  23907653.369     1120665.66349    873643.18045  23907651.947    23907662.134
       216.000         158.000
  22798141.594   -10281801.39049  -7999538.30546  22798140.476    22798150.206
       224.000         177.000
  21615770.326     5858333.24249   4560255.55047  21615770.593    21615778.046
       233.000         191.000
  20774444.292    -3296570.86649  -2565869.86347  20774443.712    20774450.208
       242.000         210.000
  24123482.173    -4275634.81849  -3315710.38445  24123481.831    24123489.439
       208.000         148.000
 99  4 26  1  3 30.0000000  0  7G26G23G22G21G 6G17G 3
  22088661.762     1060647.73849    828837.30346  22088662.347    22088668.158
       227.000         179.000
  20752111.360    -4271567.04449  -3321432.54748  20752110.793    20752117.107
       243.000         213.000
  23915769.032     1163313.57249    906875.23545  23915768.678    23915778.173
       215.000         157.000
  22786379.319   -10343612.33649  -8047702.58846  22786379.378    22786386.545
       228.000         178.000
  21631523.115     5941114.35949   4624760.25247  21631523.218    21631530.326
       233.000         190.000
  20772868.311    -3304852.57149  -2572323.14147  20772867.943    20772874.101
       242.000         210.000
  24104578.120    -4374976.58049  -3393119.45045  24104575.929    24104584.767
       205.000         147.000
 99  4 26  1  4  0.0000000  0  7G26G23G22G21G 6G17G 3
  22098766.920     1113750.26649    870215.88946  22098767.212    22098773.769
       227.000         179.000
  20751570.160    -4274410.98949  -3323648.58948  20751569.817    20751576.075
       244.000         213.000
  23923950.760     1206309.04249    940378.09345  23923950.494    23923960.333
       215.000         157.000
  22774662.128   -10405187.10649  -8095682.80946  22774660.730    22774670.375
       226.000         179.000
  21647356.911     6024321.48249   4689596.91647  21647356.817    21647364.787
       232.000         190.000
  20771338.518    -3312891.77549  -2578587.46647  20771338.102    20771344.448
       242.000         210.000
  24085712.891    -4474113.11249  -3470368.61345  24085712.718    24085719.526
       211.000         146.000
 99  4 26  1  4 30.0000000  0  7G26G23G22G21G 6G17G 3
  22108975.999     1167399.08349    912020.15646  22108975.805    22108982.818
       230.000         179.000
  20751096.426    -4276900.67349  -3325588.58248  20751096.025    20751102.171
       245.000         213.000
  23932201.200     1249664.62449    974161.56445  23932201.112    23932210.747
       216.000         157.000
  22762989.555   -10466526.34349  -8143479.51846  22762988.161    22762996.960
       227.000         179.000
  21663271.353     6107952.30949   4754763.73447  21663271.299    21663278.722
       233.000         190.000
  20769853.806    -3320694.03449  -2584667.14547  20769853.020    20769859.638
       243.000         210.000
  24066884.120    -4573058.05449  -3547468.46745  24066884.283    24066891.538
       207.000         146.000
 99  4 26  1  5  0.0000000  0  7G26G23G22G21G 6G17G 3
  22119286.939     1221583.35649    954241.65346  22119286.896    22119293.795
       227.000         179.000
  20750687.795    -4279048.17049  -3327261.94348  20750687.348    20750693.424
       244.000         213.000
  23940517.715     1293367.53249   1008215.68245  23940517.085    23940527.060
       214.000         157.000
  22751360.259   -10527637.37749  -8191098.39546  22751361.190    22751368.399
       231.000         180.000
  21679259.931     6191972.63549   4820234.05647  21679259.681    21679267.350
       232.000         190.000
  20768411.826    -3328271.72449  -2590571.84647  20768411.468    20768417.555
       243.000         210.000
  24048091.106    -4671815.80249  -3624422.46945  24048089.604    24048099.458
       207.000         146.000
 99  4 26  1  5 30.0000000  0  7G26G23G22G21G 6G17G 3
  22129698.831     1276298.13549    996876.53746  22129698.149    22129705.152
       227.000         179.000
  20750342.008    -4280865.13149  -3328677.73348  20750341.478    20750347.499
       244.000         213.000
  23948898.955     1337410.64949   1042534.89845  23948898.982    23948908.826
       215.000         157.000
  22739779.580   -10588495.36549  -8238520.11546  22739778.439    22739786.743
       228.000         180.000
  21695319.026     6276363.67549   4885993.24247  21695318.993    21695326.479
       232.000         189.000
  20767007.475    -3335651.69449  -2596322.47047  20767007.120    20767013.323
       242.000         210.000
  24029333.917    -4770386.07449  -3701230.39245  24029333.149    24029340.764
       207.000         147.000
 99  4 26  1  6  0.0000000  0  7G26G23G22G21G 6G17G 3
  22140209.097     1331529.99849   1039914.35046  22140209.442    22140215.360
       227.000         179.000
  20750054.663    -4282375.05949  -3329854.28348  20750054.096    20750060.294
       244.000         213.000
  23957343.450     1381786.63549   1077113.48145  23957343.176    23957352.859
       215.000         156.000
  22728247.680   -10649096.00549  -8285741.28846  22728247.222    22728255.586
       229.000         181.000
  21711446.918     6361116.06849   4952033.99447  21711446.808    21711454.228
       232.000         189.000
  20765634.708    -3342865.88749  -2601943.91747  20765634.251    20765640.430
       242.000         210.000
  24010607.645    -4868792.94649  -3777910.99845  24010607.362    24010613.744
       209.000         146.000
 99  4 26  1  6 30.0000000  0  7G26G23G22G21G 6G17G 3
  22150818.201     1387281.06449   1083356.74646  22150818.378    22150824.881
       227.000         179.000
  20749825.456    -4283579.59149  -3330792.86148  20749824.935    20749830.928
       244.000         213.000
  23965850.810     1426492.64349   1111949.24245  23965850.387    23965860.363
       214.000         156.000
  22716764.565   -10709440.47749  -8332762.83246  22716763.552    22716771.855
       229.000         180.000
  21727640.780     6446215.02549   5018344.81047  21727640.697    21727647.951
       232.000         189.000
  20764293.779    -3349912.60049  -2607434.86447  20764293.249    20764299.335
       242.000         210.000
  23991915.338    -4967020.64149  -3854451.95745  23991915.872    23991922.981
       212.000         147.000
 99  4 26  1  7  0.0000000  0  7G26G23G22G21G 6G17G 3
  22161524.800     1443544.70849   1127198.53246  22161524.986    22161531.178
       227.000         178.000
  20749652.378    -4284488.93149  -3331501.41947  20749651.655    20749657.867
       244.000         212.000
  23974413.177     1471487.60749   1147010.16945  23974412.220    23974421.607
       215.000         156.000
  22705326.902   -10769546.22649  -8379598.39646  22705327.279    22705333.156
       230.000         180.000
  21743898.132     6531647.85449   5084915.77847  21743898.322    21743905.814
       232.000         188.000
  20762980.676    -3356812.95549  -2612811.75947  20762980.098    20762986.378
       243.000         210.000
  23973256.290    -5065073.88849  -3930857.02445  23973256.820    23973264.340
       216.000         153.000
 99  4 26  1  7 30.0000000  0  7G26G23G22G21G 6G17G 3
  22172331.288     1500332.65949   1171448.87246  22172331.574    22172337.251
       227.000         178.000
  20749538.674    -4285086.52149  -3331967.05848  20749538.124    20749544.058
       244.000         213.000
  23983035.062     1516795.87049   1182315.21245  23983034.611    23983044.338
       216.000         155.000
  22693936.989   -10829399.92049  -8426237.52446  22693935.765    22693944.042
       229.000         180.000
  21760226.318     6617452.41049   5151776.40547  21760225.919    21760234.188
       231.000         188.000
  20761700.956    -3363537.86749  -2618051.95147  20761700.284    20761706.693
       242.000         210.000
  23954632.211    -5162943.52749  -4007118.98845  23954632.243    23954639.982
       210.000         153.000
 99  4 26  1  8  0.0000000  0  7G26G23G22G21G 6G17G 3
  22183234.935     1557631.82549   1216097.55546  22183234.606    22183241.060
       228.000         178.000
  20749481.276    -4285388.13449  -3332202.06148  20749480.923    20749486.929
       244.000         213.000
  23991712.954     1562397.59649   1217848.94445  23991711.504    23991721.869
       215.000         155.000
  22682589.350   -10889031.39049  -8472703.51146  22682588.621    22682597.012
       229.000         180.000
  21776622.710     6703615.83949   5218916.67447  21776622.558    21776630.213
       231.000         188.000
  20760456.236    -3370078.89249  -2623148.85547  20760455.636    20760462.189
       242.000         210.000
  23936040.404    -5260643.14149  -4083248.49345  23936041.303    23936048.490
       215.000         153.000
 99  4 26  1  8 30.0000000  0  7G26G23G22G21G 6G17G 3
  22194236.939     1615447.96149   1261149.08546  22194236.600    22194243.176
       226.000         177.000
  20749483.081    -4285378.65749  -3332194.65948  20749482.662    20749488.877
       243.000         213.000
  24000443.858     1608278.27049   1253600.02745  24000443.709    24000452.061
       215.000         154.000
  22671284.267   -10948439.19149  -8518995.20946  22671282.308    22671290.908
       228.000         180.000
  21793086.349     6790132.58249   5286332.24946  21793085.931    21793094.061
       230.000         187.000
  20759250.465    -3376415.34049  -2628086.34547  20759249.900    20759256.351
       242.000         210.000
  23917485.600    -5358149.11049  -4159227.14845  23917485.349    23917492.041
       213.000         154.000
 99  4 26  1  9  0.0000000  0  7G26G23G22G21G 6G17G 3
  22205339.596     1673793.49849   1306613.12546  22205340.313    22205347.037
       227.000         178.000
  20749549.139    -4285031.44849  -3331924.09048  20749548.586    20749554.634
       244.000         213.000
  24009230.258     1654451.11349   1289578.77245  24009229.127    24009238.693
       214.000         153.000
  22660027.448   -11007593.45049  -8565089.32046  22660026.960    22660034.242
       230.000         180.000
  21809621.904     6877027.34349   5354042.37546  21809621.943    21809629.542
       231.000         187.000
  20758088.944    -3382519.03449  -2632842.46847  20758088.444    20758094.641
       242.000         210.000
  23898970.449    -5455447.00449  -4235043.60545  23898970.857    23898978.522
       216.000         157.000
 99  4 26  1  9 30.0000000  0  7G26G23G22G21G 6G17G 3
  22216542.162     1732663.27849   1352485.66646  22216541.908    22216548.883
       227.000         178.000
  20749677.350    -4284357.78849  -3331399.14548  20749676.778    20749682.873
       244.000         213.000
  24018071.403     1700911.13549   1325781.29945  24018070.786    24018080.234
       214.000         152.000
  22648817.794   -11066500.49749  -8610990.82146  22648817.120    22648823.772
       230.000         180.000
  21826226.439     6964284.52249   5422034.91246  21826226.818    21826234.389
       231.000         187.000
  20756970.871    -3388394.76149  -2637420.95547  20756970.308    20756976.580
       242.000         210.000
  23880493.988    -5552540.88149  -4310701.11045  23880492.999    23880501.919
       214.000         157.000
 99  4 26  1 10  0.0000000  0  7G26G23G22G21G 6G17G 3
  22227844.655     1792057.71849   1398767.03246  22227845.013    22227850.418
       226.000         177.000
  20749867.834    -4283356.48049  -3330618.88848  20749867.206    20749873.457
       243.000         213.000
  24026966.146     1747652.99249   1362203.43945  24026965.628    24026975.737
       214.000         152.000
  22637657.551   -11125147.79949  -8656689.91946  22637656.297    22637663.825
       228.000         180.000
  21842898.863     7051898.38349   5490305.37946  21842898.546    21842906.647
       230.000         187.000
  20755896.486    -3394040.52749  -2641820.25147  20755895.882    20755902.326
       242.000         210.000
  23862059.740    -5649413.03649  -4386185.85445  23862061.009    23862067.910
       219.000         157.000
 99  4 26  1 10 30.0000000  0  7G26G23G22G21G 6G17G 3
  22239246.003     1851972.37049   1445453.75246  22239246.300    22239252.803
       227.000         177.000
  20750122.172    -4282019.62549  -3329577.16848  20750121.790    20750127.929
       244.000         213.000
  24035916.382     1794686.57149   1398852.90445  24035915.122    24035925.474
       215.000         152.000
  22626547.741   -11183529.28749  -8702181.90146  22626546.798    22626554.518
       230.000         180.000
  21859642.049     7139884.13749   5558865.63846  21859642.225    21859650.332
       230.000         186.000
  20754863.208    -3399470.33749  -2646051.27147  20754862.528    20754868.983
       242.000         210.000
  23843669.161    -5746056.86049  -4461492.71645  23843669.551    23843676.184
       215.000         157.000
 99  4 26  1 11  0.0000000  0  7G26G23G22G21G 6G17G 3
  22250745.441     1912402.28249   1492541.98946  22250745.469    22250751.168
       226.000         176.000
  20750437.749    -4280361.33049  -3328284.97848  20750437.081    20750443.356
       244.000         213.000
  24044923.371     1842018.16349   1435734.55845  24044922.956    24044931.973
       216.000         151.000
  22615486.351   -11241657.33849  -8747476.39646  22615486.704    22615493.621
       231.000         181.000
  21876456.476     7228244.21049   5627717.55546  21876456.744    21876464.095
       230.000         186.000
  20753868.508    -3404697.60549  -2650124.46847  20753868.056    20753874.272
       242.000         210.000
  23825317.894    -5842493.47249  -4536638.12145  23825318.295    23825326.012
       211.000         155.000
 99  4 26  1 11 30.0000000  0  7G26G23G22G21G 6G17G 3
  22262341.843     1973341.79249   1540027.31146  22262341.712    22262348.707
       225.000         176.000
  20750812.662    -4278391.06249  -3326749.69448  20750812.272    20750818.310
       244.000         213.000
  24053986.334     1889643.81049   1472845.37545  24053985.083    24053995.842
       214.000         152.000
  22604469.314   -11299552.65349  -8792589.52146  22604468.252    22604476.926
       228.000         181.000
  21893340.446     7316969.73649   5696854.25146  21893340.546    21893348.577
       230.000         185.000
  20752909.520    -3409737.34549  -2654051.54047  20752908.900    20752915.413
       242.000         210.000
  23807005.816    -5938723.92249  -4611622.75245  23807004.484    23807013.049
       213.000         157.000
 99  4 26  1 12  0.0000000  0  7G26G23G22G21G 6G17G 3
  22274033.787     2034783.72149   1587904.12146  22274033.677    22274040.718
       226.000         176.000
  20751247.718    -4276105.11149  -3324968.41848  20751247.151    20751253.305
       245.000         213.000
  24063105.809     1937566.74149   1510187.81945  24063105.279    24063115.854
       216.000         151.000
  22593496.065   -11357216.91649  -8837522.63546  22593494.349    22593502.489
       230.000         180.000
  21910295.279     7406067.46249   5766280.98246  21910295.578    21910302.843
       231.000         185.000
  20751986.060    -3414590.13349  -2657832.93347  20751985.629    20751991.726
       243.000         210.000
  23788731.536    -6034756.36349  -4686453.16145  23788730.065    23788738.330
       213.000         157.000
 99  4 26  1 12 30.0000000  0  7G26G23G22G21G 6G17G 3
  22285823.932     2096741.18549   1636182.64546  22285823.855    22285829.883
       227.000         176.000
  20751745.109    -4273491.44749  -3322931.78348  20751744.686    20751750.588
       244.000         213.000
  24072283.663     1985796.13949   1547769.07345  24072283.035    24072292.932
       215.000         152.000
  22582567.165   -11414647.61349  -8882273.73546  22582566.045    22582574.061
       229.000         181.000
  21927321.050     7495538.54149   5835998.62846  21927321.121    21927328.912
       229.000         185.000
  20751100.431    -3419244.11549  -2661459.41347  20751099.892    20751106.123
       242.000         210.000
  23770495.616    -6130585.22749  -4761124.96645  23770496.088    23770501.622
       213.000         153.000
 99  4 26  1 13  0.0000000  0  7G26G23G22G21G 6G17G 3
  22297713.329     2159220.09149   1684867.49146  22297713.144    22297720.171
       226.000         176.000
  20752306.241    -4270542.36349  -3320633.78148  20752305.808    20752311.613
       244.000         213.000
  24081518.486     2034325.18149   1585583.81545  24081517.992    24081527.067
       215.000         152.000
  22571684.599   -11471835.02749  -8926835.27846  22571683.339    22571691.869
       228.000         181.000
  21944416.134     7585373.18449   5905999.57446  21944416.067    21944423.810
       229.000         184.000
  20750257.867    -3423671.71749  -2664909.49447  20750257.266    20750263.500
       242.000         210.000
  23752300.518    -6226200.55749  -4835630.35345  23752300.005    23752307.819
       214.000         154.000
 99  4 26  1 13 30.0000000  0  7G26G23G22G21G 6G17G 3
  22309698.236     2222201.11249   1733943.59746  22309698.607    22309704.790
       226.000         176.000
  20752929.067    -4267269.51649  -3318083.49448  20752928.417    20752934.635
       245.000         213.000
  24090807.547     2083139.20349   1623620.62245  24090806.582    24090815.999
       217.000         152.000
  22560847.891   -11528781.14749  -8971208.79046  22560846.231    22560854.862
       230.000         180.000
  21961576.296     7675550.50949   5976267.53846  21961576.247    21961584.303
       229.000         184.000
  20749459.353    -3427868.17149  -2668179.45647  20749458.619    20749464.989
       244.000         210.000
  23734147.246    -6321596.70449  -4909964.98445  23734147.332    23734155.057
       216.000         154.000
 99  4 26  1 14  0.0000000  0  7G26G23G22G21G 6G17G 3
  22321780.099     2285691.47649   1783416.58046  22321780.933    22321787.452
       226.000         175.000
  20753614.641    -4263666.71849  -3315276.10948  20753613.952    20753620.062
       244.000         213.000
  24100153.601     2132252.58649   1661890.67945  24100153.091    24100162.528
       216.000         153.000
  22550060.646   -11585468.37049  -9015380.57446  22550059.309    22550066.946
       229.000         181.000
  21978802.559     7766075.06449   6046806.07446  21978802.801    21978810.500
       229.000         184.000
  20748709.976    -3431806.21449  -2671248.06547  20748709.317    20748715.710
       242.000         210.000
  23716039.668    -6416752.09949  -4984111.98845  23716039.537    23716047.848
       214.000         155.000
 99  4 26  1 14 30.0000000  0  7G26G23G22G21G 6G17G 3
  22333958.738     2349690.05049   1833285.59646  22333959.312    22333964.966
       227.000         175.000
  20754362.761    -4259735.14549  -3312212.52748  20754361.964    20754368.105
       244.000         213.000
  24109555.794     2181661.17749   1700390.77845  24109555.812    24109564.778
       218.000         154.000
  22539323.063   -11641894.80849  -9059349.16646  22539322.722    22539329.707
       230.000         181.000
  21996091.576     7856928.89649   6117601.20246  21996091.653    21996099.348
       229.000         183.000
  20748010.709    -3435480.72749  -2674111.31847  20748009.902    20748016.250
       243.000         210.000
  23697982.327    -6511642.73549  -5058052.72445  23697982.678    23697989.334
       213.000         153.000
 99  4 26  1 15  0.0000000  0  7G26G23G22G21G 6G17G 3
  22346234.890     2414201.53849   1883554.26846  22346235.363    22346242.056
       225.000         175.000
  20755173.883    -4255472.49449  -3308890.96948  20755173.412    20755179.242
       244.000         213.000
  24119014.360     2231366.11249   1739121.79645  24119014.084    24119023.861
       216.000         154.000
  22528635.781   -11698056.34149  -9103111.32246  22528635.240    22528642.848
       230.000         181.000
  22013445.419     7948124.09249   6188662.30346  22013445.409    22013453.376
       229.000         183.000
  20747361.758    -3438890.88249  -2676768.58147  20747361.121    20747367.407
       242.000         210.000
  23679979.895    -6606246.05749  -5131769.57045  23679979.601    23679986.735
       214.000         153.000
 99  4 26  1 15 30.0000000  0  7G26G23G22G21G 6G17G 3
  22358601.266     2479187.69649   1934192.82046  22358601.892    22358607.702
       226.000         174.000
  20756036.501    -4250939.44049  -3305358.70248  20756035.825    20756042.218
       245.000         213.000
  24128523.364     2281335.63149   1778058.97145  24128522.661    24128532.840
       218.000         155.000
  22517989.708   -11754000.96149  -9146704.45646  22517988.921    22517997.306
       230.000         181.000
  22030856.939     8039621.89049   6259959.21746  22030857.205    22030865.364
       229.000         183.000
  20746752.559    -3442092.23149  -2679263.13147  20746752.032    20746758.339
       243.000         210.000
  23662024.526    -6700603.23749  -5205294.59445  23662023.232    23662030.097
       213.000         153.000
 99  4 26  1 16  0.0000000  0  7G26G23G22G21G 6G17G 3
  22371062.691     2544672.35149   1985219.81746  22371063.485    22371069.537
       225.000         174.000
  20756953.626    -4246119.94949  -3301603.24148  20756953.100    20756959.147
       244.000         213.000
  24138085.275     2331582.84049   1817212.54145  24138085.621    24138094.825
       218.000         155.000
  22507388.164   -11809712.87949  -9190116.28846  22507387.630    22507395.438
       230.000         181.000
  22048329.070     8131438.11849   6331504.25546  22048329.469    22048337.408
       228.000         183.000
  20746182.687    -3445087.12149  -2681596.80847  20746182.247    20746188.523
       243.000         210.000
  23644119.957    -6794691.73449  -5278610.26245  23644120.376    23644127.093
       219.000         153.000
 99  4 26  1 16 30.0000000  0  7G26G23G22G21G 6G17G 3
  22383611.013     2610613.80349   2036602.74046  22383611.478    22383616.879
       224.000         174.000
  20757918.676    -4241048.49349  -3297651.43948  20757918.162    20757924.250
       244.000         213.000
  24147691.117     2382061.22749   1856546.22445  24147690.612    24147701.110
       217.000         155.000
  22496822.039   -11865237.70749  -9233382.30646  22496821.565    22496828.320
       229.000         181.000
  22065856.308     8223543.69649   6403274.76346  22065856.625    22065864.779
       228.000         182.000
  20745642.225    -3447927.13749  -2683809.80147  20745641.751    20745648.080
       242.000         210.000
  23626257.395    -6888561.15549  -5351755.28345  23626257.332    23626263.658
       217.000         154.000
 99  4 26  1 17  0.0000000  0  7G26G23G22G21G 6G17G 3
  22396249.400     2677029.21949   2088355.00146  22396249.679    22396256.451
       225.000         174.000
  20758936.055    -4235702.05549  -3293485.36848  20758935.538    20758941.721
       244.000         213.000
  24157346.000     2432797.14749   1896080.60745  24157346.807    24157355.387
       217.000         155.000
  22486296.084   -11920551.50849  -9276483.91246  22486295.432    22486303.076
       229.000         181.000
  22083444.866     8315971.43849   6475296.30746  22083444.999    22083452.708
       228.000         182.000
  20745135.125    -3450591.94249  -2685886.26647  20745134.652    20745140.831
       243.000         210.000
  23608435.327    -6982217.17949  -5424734.00145  23608434.251    23608441.669
       214.000         154.000
 99  4 26  1 17 30.0000000  0  7G26G23G22G21G 6G17G 3
  22408978.334     2743920.53249   2140478.07446  22408978.897    22408985.282
       224.000         174.000
  20760008.462    -4230066.57449  -3289094.06948  20760008.105    20760013.834
       245.000         213.000
  24167050.426     2483793.74049   1935818.09145  24167049.860    24167059.697
       216.000         155.000
  22475813.744   -11975635.27449  -9319406.25146  22475813.068    22475820.465
       229.000         181.000
  22101094.088     8408718.41849   6547566.60746  22101094.381    22101102.132
       227.000         182.000
  20744663.630    -3453069.96549  -2687817.18747  20744663.019    20744669.288
       243.000         210.000
  23590653.521    -7075661.26949  -5497547.52445  23590650.323    23590659.942
       211.000         155.000
 99  4 26  1 18  0.0000000  0  7G26G23G22G21G 6G17G 3
  22421799.006     2811293.40949   2192976.42046  22421798.832    22421805.322
       225.000         173.000
  20761144.588    -4224096.12849  -3284441.75548  20761144.109    20761150.037
       244.000         213.000
  24176806.064     2535059.75949   1975765.53145  24176805.706    24176815.724
       214.000         155.000
  22465380.661   -12030460.96549  -9362127.50746  22465381.130    22465387.565
       230.000         181.000
  22118806.648     8501798.46749   6620096.42846  22118806.719    22118814.253
       228.000         181.000
  20744234.283    -3455326.44949  -2689575.47947  20744233.506    20744239.937
       243.000         210.000
  23572916.853    -7168867.35449  -5570175.59445  23572917.599    23572923.359
       218.000         155.000
 99  4 26  1 18 30.0000000  0  7G26G23G22G21G 6G17G 3
  22434714.792     2879166.16349   2245864.27546  22434714.760    22434721.491
       226.000         174.000
  20762349.543    -4217763.86849  -3279507.50348  20762348.765    20762355.001
       245.000         213.000
  24186617.394     2586618.31049   2015940.92145  24186616.684    24186627.508
       215.000         155.000
  22455001.590   -12085003.69449  -9404628.27546  22455001.206    22455008.430
       231.000         182.000
  22136586.265     8595230.69849   6692900.70046  22136585.910    22136594.120
       228.000         181.000
  20743855.126    -3457318.73249  -2691127.89247  20743854.298    20743860.751
       243.000         210.000
  23555229.556    -7261815.27349  -5642602.55045  23555229.034    23555233.873
       215.000         156.000
 99  4 26  1 19  0.0000000  0  7G26G23G22G21G 6G17G 3
  22447727.749     2947549.26249   2299149.79746  22447727.342    22447735.057
       224.000         174.000
  20763624.349    -4211064.83949  -3274287.46548  20763623.782    20763629.660
       243.000         213.000
  24196484.920     2638472.45949   2056346.62945  24196484.622    24196494.836
       211.000         154.000
  22444681.730   -12139235.18149  -9446886.50346  22444681.151    22444688.947
       230.000         182.000
  22154431.769     8689009.52849   6765975.04746  22154431.716    22154440.062
       226.000         180.000
  20743528.212    -3459036.65449  -2692466.53347  20743527.705    20743533.740
       242.000         210.000
  23537596.378    -7354478.15849  -5714807.38345  23537594.462    23537603.079
       210.000         156.000
 99  4 26  1 19 30.0000000  0  7G26G23G22G21G 6G17G 3
  22460834.029     3016423.88749   2352818.31346  22460834.208    22460840.428
       225.000         173.000
  20764963.021    -4204029.88149  -3268805.66048  20764962.566    20764968.510
       244.000         213.000
  24206404.607     2690600.55549   2096965.82245  24206404.905    24206414.803
       213.000         154.000
  22434416.788   -12193177.27549  -9488919.24946  22434415.327    22434424.566
       228.000         182.000
  22172340.904     8783122.41749   6839309.67546  22172340.688    22172348.984
       227.000         180.000
  20743253.460    -3460480.73649  -2693591.78547  20743252.945    20743259.037
       243.000         210.000
  23520018.675    -7446848.77049  -5786784.40945  23520017.691    23520025.513
       213.000         156.000
 99  4 26  1 20  0.0000000  0  8G29G26G23G22G21G 6G17G 3
  24510116.185    -1813537.20049  -1402768.49745  24510116.519    24510129.952
       205.000         133.000
  22474026.009     3085747.23049   2406836.49446  22474026.036    22474031.996
       225.000         173.000
  20766356.718    -4196706.25849  -3263098.92547  20766356.121    20766362.067
       244.000         212.000
  24216370.280     2742969.94049   2137773.00745  24216370.036    24216379.607
       211.000         153.000
  22424196.967   -12246881.36549  -9530766.53546  22424196.032    22424203.572
       228.000         182.000
  22190308.026     8877539.95949   6912881.70846  22190307.909    22190315.577
       226.000         180.000
  20743022.675    -3461693.32949  -2694536.65647  20743021.925    20743028.287
       242.000         210.000
  23502491.206    -7538957.07249  -5858557.05245  23502490.594    23502498.055
       219.000         159.000
 99  4 26  1 20 30.0000000  0  8G29G26G23G22G21G 6G17G 3
  24489412.995    -1922332.37149  -1487543.31545  24489411.833    24489426.592
       208.000         140.000
  22487302.370     3155514.63649   2461200.70046  22487301.805    22487308.518
       224.000         173.000
  20767797.311    -4189135.74249  -3257199.80548  20767796.684    20767802.535
       244.000         213.000
  24226377.620     2795558.62349   2178751.10345  24226377.048    24226387.985
       212.000         152.000
  22414017.771   -12300372.57849  -9572447.94546  22414017.329    22414024.619
       230.000         182.000
  22208330.101     8972246.18049   6986678.69346  22208330.083    22208338.063
       227.000         179.000
  20742829.477    -3462708.69749  -2695327.84747  20742828.649    20742834.869
       243.000         210.000
  23485010.002    -7630821.00049  -5930139.30745  23485009.396    23485015.976
       216.000         159.000
 99  4 26  1 21  0.0000000  0  8G29G26G23G22G21G 6G17G 3
  24468716.673    -2031091.32949  -1572289.96145  24468714.342    24468730.081
       200.000         135.000
  22500672.620     3225776.20549   2515949.94446  22500672.818    22500679.438
       225.000         173.000
  20769293.455    -4181273.68749  -3251073.51548  20769292.858    20769298.875
       245.000         213.000
  24236434.433     2848407.17349   2219931.68445  24236434.096    24236444.582
       210.000         152.000
  22403885.265   -12353620.32449  -9613939.64246  22403884.913    22403892.730
       232.000         182.000
  22226418.946     9067302.92949   7060748.81446  22226418.960    22226426.910
       226.000         179.000
  20742682.985    -3463478.76149  -2695927.90247  20742682.290    20742688.621
       243.000         210.000
  23467584.036    -7722394.73549  -6001495.40345  23467582.880    23467589.638
       218.000         160.000
 99  4 26  1 21 30.0000000  0  8G29G26G23G22G21G 6G17G 3
  24448018.674    -2139856.88249  -1657041.77745  24448018.139    24448032.936
       211.000         135.000
  22514130.617     3296497.61549   2571057.52146  22514130.832    22514137.072
       226.000         173.000
  20770837.749    -4173158.46849  -3244749.95748  20770837.059    20770842.896
       244.000         213.000
  24246535.689     2901489.62349   2261294.51345  24246535.573    24246545.810
       214.000         153.000
  22393789.556   -12406674.29249  -9655280.36046  22393788.743    22393796.118
       230.000         183.000
  22244568.671     9162680.08949   7135068.59346  22244568.666    22244576.235
       226.000         178.000
  20742577.386    -3464033.77349  -2696360.37247  20742576.433    20742582.798
       243.000         210.000
  23450205.591    -7813719.30549  -6072657.33845  23450205.261    23450213.977
       221.000         162.000
 99  4 26  1 22  0.0000000  0  8G29G26G23G22G21G 6G17G 3
  24427318.460    -2248636.36049  -1741804.47145  24427316.361    24427331.283
       201.000         139.000
  22527675.708     3367677.50449   2626522.35346  22527675.695    22527681.932
       223.000         172.000
  20772430.812    -4164786.79549  -3238226.56648  20772430.336    20772436.263
       244.000         213.000
  24256678.302     2954788.76249   2302826.21245  24256678.151    24256688.152
       211.000         151.000
  22383728.177   -12459546.58049  -9696479.48246  22383727.498    22383735.652
       229.000         183.000
  22262774.153     9258350.22349   7209616.66946  22262774.102    22262781.834
       226.000         178.000
  20742505.809    -3464409.78949  -2696653.37547  20742505.142    20742511.438
       242.000         210.000
  23432873.157    -7904801.73949  -6143630.61546  23432871.710    23432880.977
       216.000         163.000
 99  4 26  1 22 30.0000000  0  8G29G26G23G22G21G 6G17G 3
  24406617.209    -2357417.02949  -1826567.95445  24406617.161    24406630.023
       204.000         134.000
  22541312.768     3439341.09249   2682364.08946  22541312.864    22541318.518
       224.000         171.000
  20774076.651    -4156137.81549  -3231487.09148  20774075.986    20774081.766
       244.000         213.000
  24266863.026     3008308.95849   2344530.14245  24266862.191    24266872.781
       212.000         152.000
  22373706.028   -12512212.34149  -9737517.68346  22373705.646    22373712.836
       231.000         183.000
  22281037.626     9354325.26449   7284402.34346  22281037.818    22281045.842
       226.000         178.000
  20742473.754    -3464578.18349  -2696784.59347  20742473.095    20742479.344
       242.000         210.000
  23415588.868    -7995630.89349  -6214406.48746  23415587.566    23415596.119
       219.000         164.000
 99  4 26  1 23  0.0000000  0  8G29G26G23G22G21G 6G17G 3
  24385914.985    -2466207.53549  -1911339.39245  24385914.723    24385928.667
       208.000         136.000
  22555037.911     3511467.02049   2738566.08646  22555037.992    22555043.473
       224.000         171.000
  20775776.575    -4147204.59749  -3224526.14047  20775776.020    20775781.922
       245.000         212.000
  24277090.157     3062052.35249   2386407.98445  24277090.270    24277099.927
       213.000         152.000
  22363724.909   -12564663.37949  -9778388.58146  22363724.476    22363731.677
       231.000         183.000
  22299359.531     9450606.96749   7359426.95546  22299359.365    22299367.810
       227.000         177.000
  20742482.644    -3464531.57949  -2696748.28247  20742481.939    20742488.106
       243.000         210.000
  23398352.590    -8086208.43049  -6284986.36846  23398351.988    23398357.892
       220.000         164.000
 99  4 26  1 23 30.0000000  0  8G29G26G23G22G21G 6G17G 3
  24365213.385    -2574991.53749  -1996105.51945  24365210.756    24365225.370
       201.000         135.000
  22568852.130     3584061.18049   2795132.94446  22568852.489    22568858.431
       224.000         171.000
  20777532.421    -4137977.44549  -3217336.14247  20777531.904    20777537.860
       244.000         212.000
  24287362.105     3116031.16349   2428469.28545  24287361.849    24287372.690
       211.000         150.000
  22353791.386   -12616864.76449  -9819064.92646  22353791.272    22353798.022
       231.000         183.000
  22317739.945     9547196.30549   7434691.29946  22317740.090    22317748.140
       226.000         177.000
  20742533.523    -3464264.17049  -2696539.91147  20742532.873    20742538.935
       242.000         210.000
  23381169.221    -8176507.70649  -6355349.36146  23381168.454    23381175.738
       221.000         166.000
 99  4 26  1 24  0.0000000  0  8G29G26G23G22G21G 6G17G 3
  24344517.516    -2683747.52449  -2080849.85645  24344518.211    24344531.233
       207.000         138.000
  22582756.535     3657129.18149   2852069.03546  22582756.803    22582763.084
       223.000         171.000
  20779348.764    -4128432.37149  -3209898.41647  20779348.077    20779354.006
       244.000         212.000
  24297676.503     3170233.61349   2470704.82945  24297675.909    24297686.305
       211.000         150.000
  22343909.814   -12668792.90949  -9859528.35346  22343909.214    22343917.159
       230.000         184.000
  22336179.890     9644098.42749   7510199.36546  22336178.915    22336187.866
       225.000         177.000
  20742629.209    -3463761.36249  -2696148.11147  20742628.537    20742634.789
       242.000         210.000
  23364042.427    -8266509.41449  -6425480.51046  23364041.910    23364049.243
       220.000         166.000
 99  4 26  1 24 30.0000000  0  8G29G26G23G22G21G 6G17G 3
  24323824.237    -2792490.84649  -2165584.47945  24323822.518    24323834.962
       203.000         133.000
  22596745.112     3730639.78649   2909349.99646  22596745.748    22596751.978
       223.000         171.000
  20781220.481    -4118596.37949  -3202234.00247  20781219.891    20781225.695
       244.000         212.000
  24308030.640     3224644.17649   2513102.54245  24308029.931    24308040.419
       209.000         149.000
  22334078.593   -12720456.28349  -9899785.47346  22334077.910    22334085.816
       231.000         184.000
  22354678.101     9741307.00149   7585946.22546  22354678.178    22354686.055
       225.000         177.000
  20742770.433    -3463019.31049  -2695569.88947  20742769.709    20742776.037
       242.000         210.000
  23346968.401    -8356233.08049  -6495394.99446  23346969.629    23346975.208
       222.000         167.000
 99  4 26  1 25  0.0000000  0  8G29G26G23G22G21G 6G17G 3
  24303139.341    -2901188.29749  -2250283.19545  24303138.697    24303153.520
       203.000         142.000
  22610818.446     3804595.68149   2966977.95446  22610818.456    22610825.297
       223.000         171.000
  20783148.561    -4108464.38249  -3194338.93647  20783148.006    20783153.673
       243.000         212.000
  24318427.770     3279280.93049   2555676.51645  24318427.243    24318437.513
       210.000         149.000
  22324298.636   -12771849.79249  -9939832.31346  22324298.320    22324305.597
       231.000         185.000
  22373234.169     9838819.59149   7661929.97346  22373234.582    22373241.721
       225.000         176.000
  20742956.504    -3462041.49849  -2694807.95747  20742955.910    20742961.969
       242.000         210.000
  23329952.102    -8445654.60549  -6565074.04646  23329950.681    23329956.380
       217.000         167.000
 99  4 26  1 25 30.0000000  0  8G29G26G23G22G21G 6G17G 3
  24282467.146    -3009818.46649  -2334929.39045  24282465.729    24282480.647
       202.000         141.000
  22624980.162     3879015.72049   3024967.56746  22624980.562    22624986.337
       222.000         170.000
  20785133.467    -4098033.39649  -3186210.88947  20785132.962    20785138.963
       244.000         212.000
  24328867.950     3334144.25149   2598427.01145  24328866.376    24328878.340
       206.000         150.000
  22314569.417   -12822976.95149  -9979671.59546  22314569.065    22314575.350
       232.000         185.000
  22391845.286     9936621.66349   7738139.28946  22391845.938    22391853.203
       225.000         176.000
  20743187.997    -3460825.19649  -2693860.18047  20743187.080    20743193.365
       243.000         210.000
  23312995.990    -8534758.93149  -6634505.90946  23312995.709    23313001.605
       222.000         166.000
 99  4 26  1 26  0.0000000  0  8G29G26G23G22G21G 6G17G 3
  24261807.080    -3118385.70749  -2419526.76845  24261806.641    24261818.230
       207.000         137.000
  22639227.988     3953888.89449   3083310.28046  22639227.989    22639234.318
       223.000         170.000
  20787174.030    -4087310.13349  -3177855.09147  20787173.379    20787179.558
       244.000         212.000
  24339350.825     3389231.40449   2641351.89945  24339351.198    24339360.502
       209.000         150.000
  22304887.278   -12873856.73949 -10019318.12246  22304886.039    22304893.738
       230.000         185.000
  22410507.582    10034692.30849   7814557.89446  22410507.479    22410516.062
       224.000         176.000
  20743464.155    -3459373.97049  -2692729.35447  20743463.519    20743469.888
       242.000         210.000
  23296098.154    -8623558.24149  -6703700.15246  23296098.776    23296104.242
       221.000         167.000
 99  4 26  1 26 30.0000000  0  8G29G26G23G22G21G 6G17G 3
  24241157.980    -3226895.15249  -2504079.01845  24241155.797    24241169.403
       205.000         139.000
  22653559.512     4029201.53249   3141995.43646  22653559.897    22653565.944
       223.000         170.000
  20789262.949    -4076332.82249  -3169301.33647  20789262.363    20789268.277
       244.000         212.000
  24349877.488     3444548.81349   2684456.27345  24349876.162    24349887.081
       212.000         150.000
  22295248.029   -12924510.56949 -10058788.56346  22295247.831    22295255.304
       233.000         186.000
  22429218.920    10133020.78049   7891177.39646  22429218.305    22429227.013
       224.000         175.000
  20743783.444    -3457696.14449  -2691421.95047  20743782.708    20743788.941
       243.000         210.000
  23279254.427    -8712072.17349  -6772671.96746  23279252.569    23279260.908
       218.000         165.000
 99  4 26  1 27  0.0000000  0  8G29G26G23G22G21G 6G17G 3
  24220521.033    -3335340.97849  -2588581.66745  24220519.193    24220533.876
       203.000         140.000
  22667972.524     4104942.64949   3201014.47246  22667972.749    22667979.222
       223.000         170.000
  20791398.597    -4065109.82749  -3160556.13647  20791398.235    20791404.059
       243.000         212.000
  24360447.628     3500094.75749   2727738.74445  24360446.364    24360458.136
       208.000         148.000
  22285650.893   -12974944.88349 -10098087.96346  22285650.335    22285656.888
       232.000         186.000
  22447975.514    10231586.69649   7967981.92346  22447975.450    22447984.466
       224.000         175.000
  20744143.885    -3455801.87549  -2689945.89247  20744143.119    20744149.227
       242.000         210.000
  23262464.017    -8800305.04549  -6841424.77346  23262464.371    23262471.275
       220.000         165.000
 99  4 26  1 27 30.0000000  0  8G29G26G23G22G21G 6G17G 3
  24199889.664    -3443756.24449  -2673060.46545  24199889.905    24199900.907
       214.000         139.000
  22682462.318     4181086.29649   3260347.17246  22682462.018    22682469.153
       223.000         169.000
  20793578.940    -4053651.86649  -3151627.84747  20793578.535    20793584.223
       243.000         212.000
  24371058.289     3555854.11949   2771187.43145  24371057.908    24371069.121
       207.000         146.000
  22276093.633   -13025168.96849 -10137223.54646  22276092.892    22276100.979
       232.000         187.000
  22466777.705    10330392.68749   8044973.50646  22466777.923    22466785.613
       224.000         174.000
  20744545.958    -3453688.88549  -2688299.40147  20744545.050    20744551.359
       242.000         210.000
  23245723.246    -8888278.52749  -6909975.46346  23245721.922    23245730.383
       217.000         165.000
 99  4 26  1 28  0.0000000  0  8G29G26G23G22G21G 6G17G 3
  24179267.546    -3552125.83049  -2757503.85045  24179263.224    24179277.873
       195.000         138.000
  22697031.122     4257646.00949   3320004.06446  22697031.062    22697037.947
       221.000         169.000
  20795810.527    -4041925.05649  -3142490.06747  20795809.860    20795815.872
       244.000         212.000
  24381713.379     3611846.34849   2814817.59345  24381713.011    24381723.869
       211.000         148.000
  22266583.190   -13075145.72549 -10176166.39746  22266582.186    22266589.800
       232.000         187.000
  22485634.628    10429486.12249   8122189.08146  22485635.259    22485643.107
       224.000         174.000
  20744996.517    -3451321.06749  -2686454.34747  20744995.728    20745002.042
       242.000         210.000
  23229036.152    -8975970.11649  -6978306.54746  23229035.623    23229042.461
       217.000         164.000
 99  4 26  1 28 30.0000000  0  8G29G26G23G22G21G 6G17G 3
  24158651.931    -3660456.65549  -2841916.80845  24158651.444    24158664.593
       211.000         140.000
  22711679.228     4334622.26949   3379985.55146  22711679.791    22711685.932
       224.000         169.000
  20798093.023    -4029930.65749  -3133143.77547  20798092.450    20798098.307
       243.000         212.000
  24392409.298     3668052.97149   2858614.85045  24392408.737    24392419.763
       209.000         148.000
  22257119.400   -13124878.14949 -10214918.86246  22257118.817    22257125.867
       233.000         187.000
  22504547.355    10528872.65149   8199633.03546  22504547.606    22504555.109
       221.000         174.000
  20745494.627    -3448703.26149  -2684414.49547  20745493.893    20745500.139
       242.000         210.000
  23212402.690    -9063379.01049  -7046417.26646  23212401.998    23212408.713
       219.000         164.000
 99  4 26  1 29  0.0000000  0  8G29G26G23G22G21G 6G17G 3
  24138047.020    -3768737.08449  -2926290.68145  24138045.809    24138059.036
       206.000         141.000
  22726410.605     4412035.33449   3440307.40746  22726411.053    22726417.253
       222.000         169.000
  20800434.831    -4017624.30449  -3123554.39747  20800434.339    20800440.169
       244.000         212.000
  24403146.220     3724475.73349   2902580.51645  24403145.924    24403156.614
       210.000         146.000
  22247704.622   -13174353.34349 -10253470.88447  22247703.655    22247711.642
       234.000         188.000
  22523518.718    10628568.24249   8277317.82246  22523519.162    22523527.451
       223.000         173.000
  20746043.115    -3445821.13049  -2682168.67247  20746042.424    20746048.637
       243.000         210.000
  23195827.731    -9150479.75549  -7114287.90546  23195827.853    23195834.113
       221.000         165.000
 99  4 26  1 29 30.0000000  0  8G29G26G23G22G21G 6G17G 3
  24117452.186    -3876960.53449  -3010620.06845  24117449.647    24117463.533
       204.000         141.000
  22741228.260     4489902.67149   3500983.22546  22741228.085    22741234.241
       222.000         168.000
  20802839.726    -4004986.26549  -3113706.56847  20802839.124    20802844.970
       244.000         212.000
  24413924.566     3781115.58349   2946715.31845  24413924.931    24413935.800
       211.000         147.000
  22238340.307   -13223562.77249 -10291815.81647  22238339.998    22238346.482
       234.000         188.000
  22542552.137    10728589.20149   8355256.13346  22542552.056    22542560.762
       224.000         173.000
  20746645.108    -3442657.55449  -2679703.54247  20746644.377    20746650.668
       243.000         210.000
  23179314.317    -9237258.54849  -7181907.67546  23179314.145    23179319.976
       219.000         165.000
 99  4 26  1 30  0.0000000  0  8G29G26G23G22G21G 6G17G 3
  24096871.624    -3985109.47049  -3094891.36245  24096870.094    24096883.573
       208.000         141.000
  22756134.025     4568232.98449   3562019.81046  22756133.736    22756140.780
       221.000         168.000
  20805305.194    -3992030.12349  -3103610.87147  20805304.557    20805310.556
       243.000         212.000
  24424742.084     3837961.20249   2991010.49145  24424740.844    24424751.765
       210.000         149.000
  22229024.899   -13272515.51749 -10329960.73747  22229024.007    22229031.361
       234.000         188.000
  22561643.086    10828912.50049   8433430.03646  22561643.709    22561651.269
       223.000         172.000
  20747299.706    -3439217.60249  -2677023.06247  20747298.944    20747305.175
       242.000         210.000
  23162865.119    -9323698.73849  -7249263.61146  23162864.263    23162871.850
       219.000         163.000
 99  4 26  1 30 30.0000000  0  8G29G26G23G22G21G 6G17G 3
  24076305.388    -4093184.60949  -3179105.36945  24076304.092    24076316.484
       208.000         139.000
  22771124.090     4647005.84849   3623401.24446  22771124.708    22771129.632
       222.000         168.000
  20807825.738    -3978784.65149  -3093289.71447  20807825.212    20807831.039
       245.000         212.000
  24435598.588     3895012.40349   3035465.83445  24435598.247    24435608.967
       210.000         148.000
  22219751.809   -13321245.31249 -10367931.91947  22219750.887    22219757.323
       235.000         188.000
  22580785.857    10929508.28149   8511816.27146  22580786.057    22580794.161
       225.000         172.000
  20748004.186    -3435515.43549  -2674138.25347  20748003.696    20748009.820
       244.000         210.000
  23146480.259    -9409801.18249  -7316356.34146  23146480.125    23146487.813
       220.000         163.000
 99  4 26  1 31  0.0000000  0  8G29G26G23G22G21G 6G17G 3
  24055750.848    -4201196.09949  -3263269.53745  24055748.252    24055762.276
       204.000         143.000
  22786193.311     4726195.16549   3685107.18946  22786192.277    22786199.767
       219.000         167.000
  20810396.393    -3965275.76349  -3082763.30147  20810395.663    20810401.655
       243.000         212.000
  24446491.784     3952256.28549   3080071.32145  24446491.656    24446502.336
       209.000         144.000
  22210519.213   -13369762.70649 -10405737.60847  22210518.358    22210525.332
       234.000         189.000
  22599978.056    11030363.42449   8590404.59246  22599978.860    22599987.053
       222.000         171.000
  20748757.066    -3431558.94649  -2671055.27947  20748756.325    20748762.731
       242.000         210.000
  23130159.669    -9495566.90149  -7383186.68646  23130159.844    23130166.756
       223.000         168.000
 99  4 26  1 31 30.0000000  0  8G29G26G23G22G21G 6G17G 3
  24035208.170    -4309145.85349  -3347385.69045  24035207.822    24035220.785
       207.000         144.000
  22801337.508     4805778.93349   3747120.48946  22801337.762    22801343.713
       222.000         167.000
  20813011.009    -3951536.03749  -3072057.01647  20813010.303    20813016.254
       243.000         212.000
  24457417.072     4009668.15149   3124807.72845  24457417.292    24457427.007
       208.000         143.000
  22201327.678   -13418064.38249 -10443375.20347  22201326.901    22201334.037
       234.000         189.000
  22619217.106    11131464.77149   8669184.77646  22619217.322    22619225.858
       222.000         172.000
  20749555.783    -3427361.73249  -2667784.73047  20749555.092    20749561.494
       242.000         210.000
  23113903.892    -9580991.15849  -7449750.94346  23113903.777    23113909.609
       223.000         167.000
 99  4 26  1 32  0.0000000  0  8G29G26G23G22G21G 6G17G 3
  24014676.427    -4417038.81349  -3431457.61945  24014674.797    24014684.699
       209.000         141.000
  22816555.680     4885750.60949   3809436.07246  22816556.427    22816562.555
       220.000         167.000
  20815667.290    -3937576.81449  -3061179.68847  20815666.794    20815672.507
       243.000         212.000
  24468371.995     4067236.46249   3169666.03245  24468370.030    24468382.758
       209.000         144.000
  22192176.396   -13466153.63649 -10480847.26147  22192176.186    22192182.466
       234.000         189.000
  22638500.773    11232800.81649   8748147.81346  22638501.681    22638509.829
       222.000         171.000
  20750398.177    -3422935.42949  -2664335.66447  20750397.659    20750403.833
       243.000         210.000
  23097713.791    -9666070.90949  -7516046.80746  23097710.698    23097718.984
       217.000         165.000
 99  4 26  1 32 30.0000000  0  8G29G26G23G22G21G 6G17G 3
  23994152.829    -4524889.43249  -3515496.64045  23994150.555    23994163.399
       206.000         143.000
  22831844.681     4966095.15049   3872042.17346  22831845.182    22831851.185
       221.000         166.000
  20818364.506    -3923402.69349  -3050134.91647  20818364.056    20818369.835
       244.000         212.000
  24479353.422     4124943.88549   3214632.72245  24479353.106    24479363.851
       208.000         145.000
  22183066.112   -13514028.91849 -10518152.60247  22183065.733    22183072.549
       234.000         189.000
  22657829.370    11334372.30049   8827294.33846  22657828.851    22657837.481
       220.000         170.000
  20751282.282    -3418289.76549  -2660715.67447  20751281.687    20751287.722
       242.000         210.000
  23081583.608    -9750834.74849  -7582096.49646  23081585.761    23081590.965
       225.000         166.000
 99  4 26  1 33  0.0000000  0  8G29G26G23G22G21G 6G17G 3
  23973639.828    -4632683.73649  -3599491.61945  23973638.665    23973651.685
       209.000         147.000
  22847210.330     5046842.15049   3934961.90446  22847209.996    22847216.038
       223.000         166.000
  20821106.232    -3908994.99449  -3038908.12147  20821105.718    20821111.748
       244.000         212.000
  24490360.264     4182784.66749   3259703.31745  24490360.916    24490371.695
       206.000         144.000
  22174002.019   -13561660.85149 -10555268.30447  22174000.489    22174007.778
       234.000         189.000
  22677206.286    11436198.36449   8906639.21646  22677206.417    22677215.153
       223.000         170.000
  20752209.895    -3413415.12449  -2656917.25447  20752209.065    20752215.034
       242.000         210.000
  23065516.142    -9835271.04749  -7647890.91846  23065514.397    23065523.793
       223.000         169.000
 99  4 26  1 33 30.0000000  0  8G29G26G23G22G21G 6G17G 3
  23953142.855    -4740395.00549  -3683422.03045  23953141.885    23953152.899
       208.000         144.000
  22862656.272     5128010.73049   3998210.11546  22862656.472    22862663.398
       222.000         166.000
  20823896.654    -3894331.24349  -3027481.82047  20823896.187    20823902.014
       243.000         211.000
  24501398.118     4240788.39949   3304900.85945  24501397.266    24501408.138
       207.000         143.000
  22164986.682   -13609036.31249 -10592184.18147  22164985.550    22164992.672
       233.000         189.000
  22696633.125    11538286.01449   8986187.94246  22696633.627    22696641.176
       222.000         169.000
  20753184.390    -3408293.88949  -2652926.68647  20753183.630    20753190.013
       242.000         209.000
  23049510.477    -9919380.47049  -7713430.65046  23049509.497    23049516.553
       221.000         168.000
 99  4 26  1 34  0.0000000  0  8G29G26G23G22G21G 6G17G 3
  23932658.467    -4848039.40649  -3767300.39545  23932655.987    23932667.571
       203.000         143.000
  22878178.628     5209581.11449   4061771.43146  22878178.407    22878185.465
       221.000         166.000
  20826734.329    -3879419.12349  -3015861.97447  20826733.782    20826739.399
       243.000         211.000
  24512467.952     4298959.74849   3350229.03645  24512467.432    24512479.563
       208.000         143.000
  22156013.451   -13656189.97449 -10628927.22047  22156012.612    22156019.727
       234.000         189.000
  22716106.187    11640617.53249   9065926.67846  22716106.437    22716114.640
       222.000         170.000
  20754205.577    -3402927.51249  -2648745.09747  20754204.693    20754211.059
       242.000         209.000
  23033561.918   -10003189.65349  -7778736.46346  23033560.778    23033566.796
       223.000         168.000
 99  4 26  1 34 30.0000000  0  8G29G26G23G22G21G 6G17G 3
  23912188.539    -4955606.89449  -3851118.69745  23912188.436    23912200.199
       211.000         146.000
  22893777.764     5291554.56349   4125646.84146  22893777.747    22893784.177
       222.000         165.000
  20829619.859    -3864255.26349  -3004045.96747  20829619.195    20829625.288
       243.000         211.000
  24523569.842     4357300.16649   3395688.96145  24523568.867    24523580.502
       211.000         143.000
  22147082.487   -13703122.53749 -10665497.97447  22147081.884    22147088.677
       235.000         189.000
  22735627.491    11743202.46949   9145862.88146  22735628.292    22735635.233
       224.000         169.000
  20755276.146    -3397301.30049  -2644361.03647  20755275.402    20755281.675
       243.000         209.000
  23017671.594   -10086694.42049  -7843805.07746  23017671.088    23017678.176
       222.000         169.000
 99  4 26  1 35  0.0000000  0  8G29G26G23G22G21G 6G17G 3
  23891735.847    -5063085.34449  -3934867.78245  23891733.177    23891746.455
       205.000         145.000
  22909454.237     5373935.19849   4189839.50546  22909454.585    22909461.398
       221.000         165.000
  20832556.291    -3848824.08649  -2992021.66547  20832555.722    20832561.678
       243.000         211.000
  24534708.160     4415831.15949   3441297.38845  24534707.026    24534718.797
       212.000         144.000
  22138192.383   -13749839.50549 -10701900.73347  22138191.689    22138198.595
       234.000         189.000
  22755195.896    11846034.07449   9225991.30246  22755196.106    22755204.230
       222.000         169.000
  20756398.170    -3391405.14149  -2639766.63247  20756397.405    20756403.447
       242.000         209.000
  23001843.788   -10169869.44149  -7908616.72546  23001842.706    23001849.734
       222.000         167.000
 99  4 26  1 35 30.0000000  0  8G29G26G23G22G21G 6G17G 3
  23871297.743    -5170486.44849  -4018556.50645  23871297.645    23871308.319
       210.000         148.000
  22925204.157     5456701.39949   4254332.62146  22925204.571    22925210.881
       220.000         166.000
  20835544.130    -3833122.98249  -2979787.03047  20835543.843    20835549.423
       243.000         211.000
  24545881.285     4474545.54549   3487048.72345  24545881.040    24545891.933
       210.000         144.000
  22129341.274   -13796352.49049 -10738144.56047  22129340.946    22129347.469
       236.000         189.000
  22774806.586    11949088.94149   9306293.68846  22774806.909    22774814.887
       222.000         169.000
  20757571.477    -3385239.26249  -2634962.05347  20757570.613    20757576.725
       242.000         209.000
  22986076.069   -10252728.80949  -7973182.41746  22986076.051    22986083.118
       224.000         169.000
 99  4 26  1 36  0.0000000  0  8G29G26G23G22G21G 6G17G 3
  23850879.505    -5277782.28049  -4102163.27145  23850876.682    23850888.082
       204.000         144.000
  22941036.281     5539899.76849   4319162.49946  22941035.801    22941042.009
       222.000         165.000
  20838591.507    -3817109.21749  -2967308.76147  20838590.664    20838596.628
       243.000         211.000
  24557092.992     4533463.31449   3532958.51845  24557092.019    24557103.824
       209.000         144.000
  22120536.761   -13842620.53949 -10774197.51347  22120535.412    22120543.261
       233.000         190.000
  22794467.027    12052404.75549   9386799.42446  22794466.969    22794475.516
       221.000         168.000
  20758802.739    -3378768.77349  -2629920.11347  20758801.950    20758808.306
       242.000         209.000
  22970379.861   -10335213.47949  -8037456.15546  22970379.457    22970385.877
       224.000         171.000
 99  4 26  1 36 30.0000000  0  8G29G26G23G22G21G 6G17G 3
  23830478.498    -5384988.53649  -4185700.27045  23830478.743    23830488.843
       212.000         148.000
  22956949.414     5623523.47249   4384323.80846  22956948.275    22956955.498
       221.000         163.000
  20841694.781    -3800801.19149  -2954601.19647  20841693.966    20841700.065
       245.000         211.000
  24568339.815     4592565.41949   3579011.94045  24568339.423    24568350.691
       210.000         143.000
  22111777.688   -13888649.04549 -10810063.82447  22111777.395    22111783.481
       236.000         190.000
  22814171.683    12155952.94649   9467486.21146  22814171.458    22814180.820
       223.000         168.000
  20760087.212    -3372018.90249  -2624660.47447  20760086.591    20760092.649
       243.000         209.000
  22954752.914   -10417332.67249  -8101445.08346  22954753.465    22954759.187
       226.000         171.000
 99  4 26  1 37  0.0000000  0  8G29G26G23G22G21G 6G17G 3
  23810091.389    -5492122.59049  -4269180.95345  23810089.738    23810101.053
       207.000         148.000
  22972940.923     5707559.10949   4449806.10346  22972941.993    22972948.167
       222.000         165.000
  20844851.251    -3784213.54549  -2941675.74947  20844850.900    20844856.498
       243.000         211.000
  24579621.349     4651849.61449   3625207.24545  24579621.182    24579633.633
       208.000         144.000
  22103063.876   -13934440.73349 -10845745.60347  22103062.518    22103069.893
       232.000         190.000
  22833915.977    12259709.83449   9548335.62546  22833915.879    22833923.977
       222.000         168.000
  20761421.732    -3365005.93249  -2619195.81447  20761421.057    20761427.335
       242.000         209.000
  22939193.575   -10499097.15149  -8165157.62246  22939193.187    22939199.216
       224.000         171.000
 99  4 26  1 37 30.0000000  0  8G29G26G23G22G21G 6G17G 3
  23789719.085    -5599177.09249  -4352599.69445  23789718.511    23789728.555
       210.000         146.000
  22989009.960     5792001.77649   4515605.54946  22989010.089    22989016.562
       220.000         165.000
  20848057.299    -3767365.72049  -2928547.56247  20848056.521    20848062.565
       243.000         211.000
  24590935.660     4711305.84849   3671536.62045  24590934.690    24590946.094
       208.000         144.000
  22094397.078   -13979984.16249 -10881233.92947  22094396.388    22094402.962
       234.000         190.000
  22853702.584    12363688.28649   9629357.70946  22853702.751    22853711.394
       220.000         167.000
  20762806.730    -3357727.82449  -2613524.55747  20762806.038    20762812.083
       242.000         209.000
  22923703.026   -10580500.15349  -8228588.51446  22923703.270    22923708.591
       226.000         172.000
 99  4 26  1 38  0.0000000  0  8G29G26G23G22G21G 6G17G 3
  23769364.764    -5706139.21149  -4435946.49045  23769363.442    23769375.052
       210.000         149.000
  23005152.723     5876833.11749   4581707.84946  23005152.534    23005158.432
       220.000         163.000
  20851305.918    -3750294.01149  -2915244.92447  20851305.372    20851311.229
       243.000         211.000
  24602281.044     4770926.09449   3717993.77845  24602280.516    24602292.022
       205.000         143.000
  22085775.163   -14025292.48649 -10916539.06247  22085774.117    22085780.951
       233.000         190.000
  22873531.201    12467888.09349   9710552.24546  22873532.013    22873540.056
       222.000         167.000
  20764238.949    -3350201.74249  -2607660.07447  20764238.087    20764244.170
       242.000         209.000
  22908283.101   -10661531.91449  -8291730.11046  22908281.797    22908290.250
       223.000         172.000
 99  4 26  1 38 30.0000000  0  8G29G26G23G22G21G 6G17G 3
  23749028.019    -5813008.45349  -4519220.84745  23749027.440    23749038.078
       210.000         150.000
  23021361.856     5962012.22149   4648081.18546  23021361.833    23021367.917
       220.000         163.000
  20854590.047    -3733035.91849  -2901797.05047  20854589.328    20854595.365
       243.000         211.000
  24613653.786     4830689.92249   3764562.84345  24613652.543    24613664.583
       207.000         143.000
  22077193.235   -14070390.44349 -10951680.28247  22077192.767    22077199.507
       235.000         190.000
  22893400.313    12572300.53249   9791912.48846  22893400.159    22893408.656
       222.000         166.000
  20765715.641    -3342441.35249  -2601613.01047  20765714.895    20765721.221
       242.000         209.000
  22892929.516   -10742215.18649  -8354600.16646  22892928.915    22892936.268
       223.000         173.000
 99  4 26  1 39  0.0000000  0  8G29G26G23G22G21G 6G17G 3
  23728707.328    -5919792.35749  -4602428.77445  23728705.649    23728716.940
       211.000         149.000
  23037630.281     6047503.62049   4714697.80146  23037630.101    23037637.866
       220.000         164.000
  20857904.776    -3715616.95949  -2888223.82347  20857904.253    20857909.955
       243.000         211.000
  24625046.767     4890559.95149   3811214.65945  24625046.755    24625057.353
       208.000         143.000
  22068648.759   -14115291.30649 -10986667.91147  22068647.783    22068654.861
       234.000         190.000
  22913309.043    12676921.16749   9873434.95746  22913310.125    22913317.849
       224.000         167.000
  20767233.234    -3334466.29949  -2595398.67547  20767232.474    20767238.555
       242.000         209.000
  22877638.531   -10822570.32749  -8417214.52846  22877638.600    22877644.201
       226.000         174.000
 99  4 26  1 39 30.0000000  0  8G29G26G23G22G21G 6G17G 3
  23708410.320    -6026452.37649  -4685540.11445  23708410.329    23708420.474
       212.000         151.000
  23053959.321     6133313.84749   4781562.89546  23053959.226    23053965.602
       219.000         163.000
  20861255.672    -3698007.99149  -2874502.54547  20861254.944    20861260.845
       243.000         211.000
  24636461.244     4950542.77549   3857954.36245  24636459.734    24636472.475
       208.000         143.000
  22060145.332   -14159976.93149 -11021487.84747  22060144.889    22060151.629
       235.000         190.000
  22933262.871    12781778.49749   9955141.85146  22933262.273    22933271.448
       221.000         165.000
  20768795.808    -3326254.93649  -2589000.21247  20768795.172    20768801.296
       242.000         209.000
  22862414.843   -10902571.90549  -8479553.40046  22862414.840    22862420.212
       224.000         175.000
 99  4 26  1 40  0.0000000  0  8G29G26G23G22G21G 6G17G 3
  23688136.044    -6132994.80749  -4768559.88745  23688134.286    23688145.008
       203.000         150.000
  23070351.677     6219456.25049   4848686.83545  23070352.717    23070358.854
       220.000         162.000
  20864646.661    -3680187.92049  -2860616.76947  20864646.076    20864651.905
       243.000         211.000
  24647898.492     5010645.36749   3904787.41245  24647897.685    24647908.565
       207.000         143.000
  22051683.623   -14204443.36549 -11056136.96247  22051682.738    22051689.966
       233.000         190.000
  22953260.594    12886867.25549  10037029.09546  22953260.768    22953269.794
       221.000         165.000
  20770404.739    -3317799.89149  -2582411.85047  20770403.889    20770410.058
       242.000         209.000
  22847256.377   -10982228.99649  -8541623.83246  22847257.003    22847263.537
       226.000         172.000
 99  4 26  1 40 30.0000000  0  8G29G26G23G22G21G 6G17G 3
  23667886.241    -6239405.37649  -4851476.87345  23667885.164    23667895.650
       211.000         150.000
  23086814.466     6305968.90749   4916099.27745  23086814.951    23086822.122
       220.000         162.000
  20868088.790    -3662099.39549  -2846521.80647  20868088.203    20868094.134
       244.000         211.000
  24659364.066     5070896.45749   3951736.16445  24659363.158    24659375.448
       208.000         142.000
  22043272.040   -14248646.15649 -11090580.65747  22043271.431    22043278.082
       236.000         191.000
  22973306.553    12992209.30049  10119113.69846  22973306.601    22973314.570
       221.000         165.000
  20772068.906    -3309054.37849  -2575597.15747  20772068.366    20772074.448
       243.000         209.000
  22832166.499   -11061527.36249  -8603414.74646  22832166.020    22832172.980
       224.000         173.000
 99  4 26  1 41  0.0000000  0  8G29G26G23G22G21G 6G17G 3
  23647659.970    -6345695.56949  -4934300.06845  23647659.036    23647669.151
       210.000         153.000
  23103348.045     6392853.83349   4983801.77545  23103348.595    23103354.709
       219.000         162.000
  20871583.663    -3643733.42149  -2832210.64847  20871583.124    20871589.009
       243.000         211.000
  24670856.196     5131287.24249   3998793.77145  24670856.362    24670867.756
       206.000         139.000
  22034910.658   -14292585.75249 -11124819.25947  22034910.159    22034917.047
       236.000         192.000
  22993394.124    13097770.16849  10201368.81946  22993395.004    22993402.753
       223.000         164.000
  20773788.385    -3300018.59549  -2568556.27947  20773787.586    20773793.878
       242.000         209.000
  22817143.118   -11140475.31249  -8664932.57746  22817142.041    22817150.158
       224.000         175.000
 99  4 26  1 41 30.0000000  0  8G29G26G23G22G21G 6G17G 3
  23627459.080    -6451849.43949  -5017017.03945  23627458.061    23627466.701
       210.000         149.000
  23119957.193     6480135.22449   5051813.21745  23119957.756    23119963.701
       219.000         161.000
  20875135.497    -3625068.48249  -2817666.53247  20875135.005    20875140.803
       243.000         211.000
  24682378.586     5191837.24949   4045975.42145  24682378.015    24682389.818
       205.000         139.000
  22026600.964   -14336253.72749 -11158846.22247  22026600.422    22026606.747
       236.000         192.000
  23013524.351    13203554.58149  10283798.12046  23013524.209    23013533.546
       219.000         164.000
  20775568.694    -3290662.85849  -2561266.08647  20775567.934    20775574.092
       242.000         209.000
  22802192.358   -11219042.74149  -8726153.92146  22802191.092    22802199.992
       226.000         175.000
 99  4 26  1 42  0.0000000  0  8G29G26G23G22G21G 6G17G 3
  23607284.653    -6557865.56049  -5099626.70245  23607282.748    23607293.278
       212.000         149.000
  23136644.385     6567826.01749   5120143.69245  23136645.014    23136650.578
       220.000         162.000
  20878742.189    -3606115.12749  -2802897.66947  20878741.598    20878747.368
       243.000         211.000
  24693931.186     5252546.17549   4093280.91445  24693930.518    24693942.883
       204.000         139.000
  22018341.971   -14379655.03649 -11192665.38347  22018341.230    22018347.934
       237.000         192.000
  23033697.091    13309563.10449  10366402.07146  23033696.913    23033705.642
       221.000         163.000
  20777412.790    -3280971.66949  -2553714.49247  20777412.227    20777418.361
       242.000         208.000
  22787315.790   -11297219.87949  -8787071.17746  22787314.820    22787321.521
       225.000         174.000
 99  4 26  1 42 30.0000000  0  8G29G26G23G22G21G 6G17G 3
  23587138.581    -6663732.81649  -5182120.30845  23587137.684    23587148.867
       210.000         153.000
  23153405.310     6655905.86449   5188777.31545  23153404.642    23153411.240
       216.000         161.000
  20882400.398    -3586891.05449  -2787917.85947  20882399.875    20882405.545
       244.000         211.000
  24705511.585     5313400.69749   4140699.85445  24705510.871    24705524.039
       205.000         140.000
  22010132.990   -14422793.71249 -11226279.89347  22010132.312    22010138.774
       236.000         193.000
  23053911.663    13415790.97649  10449176.91846  23053911.229    23053921.902
       217.000         163.000
  20779319.419    -3270952.50349  -2545907.34347  20779318.757    20779324.591
       242.000         208.000
  22772515.179   -11374997.41649  -8847677.02446  22772515.206    22772520.949
       226.000         173.000
 99  4 26  1 43  0.0000000  0  8G29G26G23G22G21G 6G17G 3
  23567018.262    -6769464.25049  -5264508.13045  23567016.064    23567026.085
       209.000         149.000
  23170237.736     6744361.40349   5257703.68045  23170237.898    23170245.135
       219.000         162.000
  20886104.477    -3567426.04849  -2772750.31747  20886103.721    20886109.645
       243.000         211.000
  24717115.454     5374378.81149   4188215.09245  24717115.837    24717127.303
       206.000         142.000
  22001969.688   -14465692.17749 -11259707.22447  22001968.874    22001975.553
       237.000         193.000
  23074166.036    13522227.63849  10532114.47145  23074165.927    23074174.910
       217.000         162.000
  20781282.251    -3260637.71449  -2537869.84147  20781281.588    20781287.914
       242.000         208.000
  22757791.723   -11452369.55549  -8907966.97146  22757792.068    22757798.485
       224.000         174.000
 99  4 26  1 43 30.0000000  0  8G29G26G23G22G21G 6G17G 3
  23546917.860    -6875091.69249  -5346814.94245  23546918.577    23546926.339
       215.000         152.000
  23187136.374     6833163.12549   5326899.79945  23187136.060    23187142.107
       218.000         161.000
  20889848.015    -3547753.47149  -2757421.01847  20889847.320    20889853.106
       243.000         211.000
  24728739.522     5435462.76149   4235812.80045  24728738.670    24728750.705
       206.000         144.000
  21993845.126   -14508387.02849 -11292975.89247  21993844.348    21993851.298
       238.000         193.000
  23094457.620    13628861.27949  10615205.48445  23094458.669    23094466.123
       218.000         162.000
  20783294.161    -3250064.90449  -2529631.28147  20783293.435    20783299.686
       242.000         208.000
  22743140.492   -11529362.09249  -8967961.11646  22743140.372    22743145.756
       224.000         174.000
 99  4 26  1 44  0.0000000  0  8G29G26G23G22G21G 6G17G 3
  23526838.802    -6980606.68249  -5429034.08045  23526837.429    23526847.734
       211.000         152.000
  23204101.875     6922318.21249   5396371.27145  23204102.034    23204107.896
       217.000         159.000
  20893633.399    -3527861.05349  -2741920.42547  20893632.949    20893638.620
       243.000         211.000
  24740386.664     5496668.60649   4283505.51845  24740386.237    24740398.283
       208.000         145.000
  21985762.003   -14550863.96049 -11326074.76047  21985761.404    21985768.096
       236.000         193.000
  23114787.814    13735695.62049  10698452.91545  23114787.266    23114796.934
       217.000         162.000
  20785353.929    -3239240.78849  -2521196.90147  20785353.339    20785359.508
       241.000         208.000
  22728564.191   -11605960.30049  -9027648.00746  22728563.683    22728570.127
       225.000         174.000
 99  4 26  1 44 30.0000000  0  8G29G26G23G22G21G 6G17G 3
  23506777.237    -7086029.02949  -5511181.05045  23506777.117    23506785.408
       212.000         153.000
  23221132.236     7011812.78049   5466107.26845  23221133.214    23221140.141
       219.000         161.000
  20897459.828    -3507753.00449  -2726251.79847  20897459.350    20897465.235
       243.000         211.000
  24752056.843     5557995.38849   4331292.45045  24752057.008    24752068.912
       208.000         146.000
  21977719.632   -14593126.43849 -11359006.50747  21977719.052    21977725.884
       236.000         194.000
  23135153.963    13842720.73149  10781848.97345  23135154.236    23135162.394
       218.000         162.000
  20787456.059    -3228194.14049  -2512589.11847  20787455.454    20787461.550
       241.000         208.000
  22714063.344   -11682162.10349  -9087025.97846  22714064.340    22714068.785
       226.000         172.000
 99  4 26  1 45  0.0000000  0  9G29G26G23G22G21G 6G17G 3G 9
  23486733.266    -7191359.51249  -5593256.44645  23486731.494    23486741.733
       212.000         152.000
  23238227.888     7101649.92649   5536110.19445  23238227.350    23238235.470
       215.000         161.000
  20901328.245    -3487424.42849  -2710411.33447  20901327.662    20901333.342
       243.000         211.000
  24763751.409     5619450.01049   4379179.01945  24763750.952    24763762.709
       209.000         147.000
  21969715.646   -14635187.81549 -11391781.55647  21969714.623    21969721.381
       237.000         194.000
  23155554.949    13949926.91149  10865386.12445  23155555.113    23155563.425
       217.000         162.000
  20789602.053    -3216916.69349  -2503801.48947  20789601.219    20789607.264
       242.000         208.000
  22699640.503   -11757954.49849  -9146084.94746  22699640.666    22699647.826
       227.000         173.000
  24483897.176    -4997248.74549  -3375221.48245  24483895.382    24483904.060
       207.000         136.000
 99  4 26  1 45 30.0000000  0  9G29G26G23G22G21G 6G17G 3G 9
  23466707.063    -7296597.47549  -5675259.77645  23466706.257    23466714.973
       214.000         154.000
  23255383.708     7191804.71749   5606360.65045  23255384.382    23255389.320
       218.000         159.000
  20905233.683    -3466901.36749  -2694419.32447  20905232.968    20905238.935
       243.000         211.000
  24775467.805     5681019.81249   4427155.32645  24775467.261    24775478.983
       210.000         147.000
  21961745.788   -14677069.23949 -11424416.39447  21961745.420    21961752.212
       238.000         194.000
  23175984.242    14057283.44249  10949040.43845  23175984.860    23175993.828
       219.000         162.000
  20791791.189    -3205412.76349  -2494837.38747  20791790.393    20791796.630
       241.000         208.000
  22685292.898   -11833351.85649  -9204836.08046  22685293.228    22685297.711
       226.000         173.000
  24473207.213    -5053424.25649  -3418994.50145  24473205.982    24473214.755
       206.000         136.000
 99  4 26  1 46  0.0000000  0  9G29G26G23G22G21G 6G17G 3G 9
  23446698.340    -7401742.46149  -5757190.60845  23446697.329    23446706.568
       216.000         153.000
  23272596.328     7282256.80749   5676842.78545  23272596.667    23272602.850
       218.000         159.000
  20909172.916    -3446200.55549  -2678288.80747  20909172.271    20909178.151
       243.000         211.000
  24787199.963     5742672.07449   4475195.88645  24787199.789    24787212.088
       209.000         148.000
  21953808.056   -14718782.52649 -11456920.20347  21953807.126    21953814.011
       237.000         195.000
  23196438.614    14164770.74649  11032796.66045  23196438.680    23196447.810
       215.000         161.000
  20794022.851    -3193685.29449  -2485699.09247  20794022.138    20794028.247
       241.000         208.000
  22671017.557   -11908369.22049  -9263291.09346  22671016.302    22671023.157
       225.000         174.000
  24462559.094    -5109379.73049  -3462596.03045  24462559.482    24462568.375
       211.000         142.000
 99  4 26  1 46 30.0000000  0  9G29G26G23G22G21G 6G17G 3G 9
  23426713.301    -7506764.13549  -5839025.45945  23426712.954    23426721.053
       213.000         154.000
  23289867.723     7373019.03749   5747566.55145  23289867.200    23289874.991
       216.000         160.000
  20913147.328    -3425314.68349  -2662014.08547  20913146.470    20913152.439
       243.000         211.000
  24798947.948     5804407.10949   4523300.94545  24798947.546    24798959.754
       209.000         149.000
  21945905.508   -14760309.95849 -11489279.18747  21945905.286    21945911.585
       237.000         195.000
  23216920.792    14272405.33849  11116667.62645  23216921.340    23216929.470
       218.000         161.000
  20796304.740    -3181693.63149  -2476354.93547  20796304.068    20796310.146
       241.000         208.000
  22656813.585   -11983011.91849  -9321454.18346  22656813.364    22656821.198
       224.000         175.000
  24451953.191    -5165114.38849  -3506025.50745  24451952.286    24451962.251
       210.000         145.000
 99  4 26  1 47  0.0000000  0  9G29G26G23G22G21G 6G17G 3G 9
  23406758.306    -7611625.92949  -5920735.60045  23406757.479    23406766.275
       213.000         155.000
  23307200.890     7464106.14749   5818543.45145  23307201.170    23307206.787
       218.000         158.000
  20917160.501    -3404225.30449  -2645580.78647  20917159.822    20917165.695
       243.000         211.000
  24810711.705     5866225.57649   4571471.01045  24810711.462    24810722.954
       210.000         148.000
  21938041.435   -14801636.10949 -11521481.32847  21938040.621    21938047.493
       237.000         195.000
  23237430.579    14380183.78249  11200650.67945  23237430.861    23237439.926
       217.000         160.000
  20798641.996    -3169411.40749  -2466784.37147  20798641.430    20798647.514
       242.000         208.000
  22642678.307   -12057293.08349  -9379335.54946  22642678.090    22642683.720
       225.000         176.000
  24441389.530    -5220625.46449  -3549280.76345  24441388.559    24441397.542
       206.000         143.000
 99  4 26  1 47 30.0000000  0  9G29G26G23G22G21G 6G17G 3G 9
  23386840.689    -7716293.29249  -6002294.36545  23386839.358    23386848.747
       215.000         155.000
  23324602.327     7555550.37949   5889798.71745  23324604.213    23324607.622
       217.000         156.000
  20921221.438    -3382884.78049  -2628951.79147  20921220.960    20921226.424
       243.000         211.000
  24822493.767     5928140.05949   4619715.89145  24822493.186    24822504.809
       209.000         148.000
  21930223.504   -14842719.23749 -11553494.10747  21930222.873    21930229.291
       237.000         195.000
  23257976.678    14488154.08949  11284783.25645  23257976.718    23257985.683
       218.000         159.000
  20801040.725    -3156805.94749  -2456961.93147  20801039.860    20801046.250
       241.000         208.000
  22628615.432   -12131193.48549  -9436920.21346  22628614.226    22628621.007
       226.000         176.000
  24430871.454    -5275897.18249  -3592349.49445  24430870.640    24430879.700
       207.000         138.000
 99  4 26  1 48  0.0000000  0  9G29G26G23G22G21G 6G17G 3G 9
  23366958.018    -7820775.95049  -6083709.13445  23366958.231    23366966.321
       215.000         157.000
  23342069.002     7647337.78649   5961321.33345  23342067.903    23342076.696
       214.000         157.000
  20925332.644    -3361280.26149  -2612117.08947  20925332.014    20925337.682
       242.000         211.000
  24834293.518     5990147.13549   4668032.92145  24834293.257    24834305.329
       209.000         147.000
  21922453.801   -14883549.08449 -11585309.51847  21922452.822    21922459.860
       236.000         195.000
  23278562.559    14596333.04249  11369078.39645  23278562.836    23278571.381
       217.000         159.000
  20803500.588    -3143879.08149  -2446889.04647  20803499.927    20803505.811
       241.000         208.000
  22614624.299   -12204717.16949  -9494211.32546  22614624.951    22614630.231
       229.000         177.000
  24420396.966    -5330940.11849  -3635240.04045  24420397.271    24420403.792
       207.000         136.000
 99  4 26  1 48 30.0000000  0  9G29G26G23G22G21G 6G17G 3G 9
  23347112.619    -7925063.57649  -6164971.97645  23347112.241    23347119.873
       216.000         157.000
  23359604.716     7739489.31149   6033127.62845  23359604.772    23359612.177
       216.000         160.000
  20929497.798    -3339391.87849  -2595061.18947  20929497.241    20929503.084
       243.000         211.000
  24846116.359     6052275.81949   4716444.70745  24846116.412    24846127.955
       209.000         146.000
  21914737.264   -14924099.67649 -11616907.33647  21914736.494    21914743.351
       238.000         196.000
  23299192.126    14704740.67049  11453551.75445  23299191.945    23299201.111
       217.000         159.000
  20806023.778    -3130619.71949  -2436557.07347  20806023.190    20806029.069
       242.000         208.000
  22600712.401   -12277824.72449  -9551178.17146  22600711.943    22600718.073
       228.000         178.000
  24409972.833    -5385718.57549  -3677924.42345  24409971.328    24409981.152
       202.000         137.000
 99  4 26  1 49  0.0000000  0  9G29G26G23G22G21G 6G17G 3G 9
  23327300.691    -8029175.19049  -6246097.69845  23327299.017    23327309.211
       211.000         157.000
  23377206.590     7831987.30249   6105203.98245  23377206.427    23377211.962
       216.000         157.000
  20933715.750    -3317226.30849  -2577789.29747  20933715.171    20933720.928
       243.000         211.000
  24857961.960     6114524.26549   4764949.80245  24857961.032    24857972.993
       208.000         145.000
  21907069.804   -14964392.01849 -11648303.91847  21907069.331    21907076.272
       237.000         196.000
  23319863.635    14813369.76949  11538197.68345  23319863.834    23319872.977
       219.000         157.000
  20808604.912    -3117055.91649  -2425987.86447  20808604.013    20808610.532
       241.000         208.000
  22586883.377   -12350496.57049  -9607805.52646  22586882.187    22586889.550
       228.000         179.000
  24399599.880    -5440227.44049  -3720398.70045  24399598.779    24399608.544
       207.000         138.000
 99  4 26  1 49 30.0000000  0  9G29G26G23G22G21G 6G17G 3G 9
  23307514.916    -8133148.07749  -6327115.24845  23307514.723    23307523.358
       216.000         158.000
  23394866.509     7924790.45149   6177518.11145  23394866.061    23394873.478
       216.000         154.000
  20937977.420    -3294830.94449  -2560338.34147  20937976.810    20937982.666
       244.000         211.000
  24869824.924     6176864.21249   4813526.21045  24869823.729    24869836.647
       209.000         142.000
  21899444.891   -15004460.70749 -11679526.21647  21899443.900    21899450.968
       237.000         196.000
  23340572.964    14922197.17749  11622998.10345  23340572.448    23340583.037
       216.000         159.000
  20811236.256    -3103228.02349  -2415212.87847  20811235.501    20811241.836
       243.000         208.000
  22573135.656   -12422741.03649  -9664099.85346  22573133.855    22573141.641
       226.000         177.000
  24389272.457    -5494498.89749  -3762688.05645  24389271.888    24389281.127
       211.000         143.000
 99  4 26  1 50  0.0000000  0  9G29G26G23G22G21G 6G17G 3G 9
  23287759.923    -8236960.78049  -6408008.10945  23287760.289    23287767.658
       216.000         156.000
  23412588.845     8017922.07549   6250088.14545  23412588.292    23412595.867
       215.000         157.000
  20942280.561    -3272217.89949  -2542717.76447  20942280.001    20942285.634
       243.000         211.000
  24881709.873     6239319.29449   4862192.31745  24881708.791    24881722.442
       204.000         139.000
  21891866.293   -15044286.27149 -11710559.08047  21891865.627    21891872.503
       237.000         196.000
  23361321.029    15031229.46149  11707958.17745  23361321.024    23361327.650
       215.000         155.000
  20813921.958    -3089114.60849  -2404215.40747  20813921.132    20813927.374
       242.000         208.000
  22559473.964   -12494532.79349  -9720041.41146  22559473.062    22559478.914
       226.000         177.000
  24378997.896    -5548491.93849  -3804760.44845  24378998.151    24379006.050
       210.000         143.000
 99  4 26  1 50 30.0000000  0  9G29G26G23G22G21G 6G17G 3G 9
  23268029.923    -8340641.22449  -6488797.81345  23268030.228    23268038.120
       216.000         158.000
  23430370.502     8111364.45349   6322900.32245  23430371.052    23430377.508
       217.000         160.000
  20946616.835    -3249430.68049  -2524961.47047  20946616.079    20946621.755
       243.000         210.000
  24893608.686     6301847.49849   4910915.39845  24893608.513    24893621.355
       205.000         137.000
  21884324.397   -15083919.18649 -11741441.82847  21884323.328    21884330.223
       236.000         196.000
  23382097.937    15140412.07849  11793035.41945  23382097.840    23382107.213
       216.000         156.000
  20816656.181    -3074746.13649  -2393019.19547  20816655.569    20816661.615
       241.000         208.000
  22545892.985   -12565901.18449  -9775653.10946  22545892.373    22545899.442
       227.000         178.000
  24368771.377    -5602232.20549  -3846635.86245  24368770.551    24368779.446
       202.000         141.000
 99  4 26  1 51  0.0000000  0  8G29G26G23G21G 6G17G 3G 9
  23248328.681    -8444170.83549  -6569470.04145  23248327.957    23248336.997
       216.000         158.000
  23448210.388     8205113.74849   6395951.73645  23448208.913    23448214.954
       212.000         154.000
  20950985.156    -3226475.05949  -2507073.95947  20950984.505    20950990.235
       242.000         210.000
  21876819.006   -15123359.60849 -11772174.58647  21876818.294    21876824.977
       237.000         195.000
  23402903.097    15249743.60649  11878228.67545  23402904.127    23402912.395
       215.000         156.000
  20819440.187    -3060116.23049  -2381619.26747  20819439.562    20819445.777
       241.000         208.000
  22532390.660   -12636856.53449  -9830942.94546  22532389.661    22532396.365
       225.000         178.000
  24358589.261    -5655737.24749  -3888327.92945  24358589.030    24358597.151
       207.000         140.000
 99  4 26  1 51 30.0000000  0  8G29G26G23G21G 6G17G 3G 9
  23228648.596    -8547589.67049  -6650055.95545  23228648.801    23228656.594
       216.000         158.000
  23466099.486     8299123.28949   6469205.86445  23466100.257    23466106.293
       214.000         153.000
  20955375.759    -3203402.19749  -2489095.08347  20955374.996    20955380.670
       243.000         210.000
  21869343.663   -15162642.52349 -11802784.61347  21869343.209    21869349.350
       236.000         195.000
  23423727.612    15359176.41749  11963500.90745  23423728.041    23423735.898
       214.000         154.000
  20822267.000    -3045261.14049  -2370043.86647  20822266.035    20822272.349
       241.000         208.000
  22518955.715   -12707456.03249  -9885955.49046  22518955.571    22518961.754
       225.000         177.000
  24348443.233    -5709055.40149  -3929874.45745  24348442.704    24348451.263
       211.000         140.000
 99  4 26  1 52  0.0000000  0  8G29G26G23G21G 6G17G 3G 9
  23208994.580    -8650872.13149  -6730535.60145  23208993.748    23209003.127
       211.000         158.000
  23484042.734     8393414.60649   6542679.58745  23484043.705    23484049.991
       218.000         158.000
  20959794.548    -3180181.26749  -2471000.83247  20959793.817    20959799.498
       243.000         210.000
  21861904.089   -15201737.38949 -11833248.09747  21861903.439    21861909.652
       236.000         195.000
  23444575.137    15468730.58349  12048867.61245  23444574.799    23444584.408
       214.000         156.000
  20825145.340    -3030135.28149  -2358257.47547  20825144.433    20825150.546
       242.000         208.000
  22505594.728   -12777668.49749  -9940666.44746  22505595.321    22505600.142
       229.000         178.000
  24338337.341    -5762161.65349  -3971255.86945  24338337.420    24338343.782
       207.000         138.000
 99  4 26  1 52 30.0000000  0  8G29G26G23G21G 6G17G 3G 9
  23189373.115    -8753981.90149  -6810880.68245  23189373.111    23189380.482
       218.000         159.000
  23502043.950     8488010.42049   6616390.55745  23502043.304    23502051.197
       213.000         157.000
  20964251.587    -3156759.39449  -2452749.99847  20964250.861    20964256.306
       242.000         210.000
  21854507.535   -15240606.14449 -11863535.39547  21854506.690    21854513.131
       237.000         195.000
  23465450.733    15578432.43649  12134349.43845  23465451.026    23465459.459
       214.000         154.000
  20828079.454    -3014716.42549  -2346242.77647  20828078.681    20828084.557
       242.000         208.000
  22492315.316   -12847452.97549  -9995043.94346  22492315.984    22492321.015
       228.000         179.000
  24328274.956    -5815038.97249  -4012458.85445  24328273.387    24328284.081
       206.000         139.000
 99  4 26  1 53  0.0000000  0  8G29G26G23G21G 6G17G 3G 9
  23169786.227    -8856910.97349  -6891084.98145  23169787.160    23169794.411
       218.000         158.000
  23520101.645     8582906.14149   6690335.24045  23520101.842    23520106.573
       214.000         153.000
  20968751.055    -3133114.17649  -2434325.14147  20968750.326    20968756.214
       243.000         210.000
  21847158.359   -15279226.14749 -11893628.87147  21847157.847    21847164.904
       238.000         195.000
  23486356.883    15688293.78449  12219955.56745  23486357.353    23486367.586
       216.000         155.000
  20831070.988    -2998995.74849  -2333992.89647  20831070.160    20831076.670
       242.000         207.000
  22479119.372   -12916797.54349 -10049078.62446  22479118.400    22479126.056
       226.000         179.000
  24318259.060    -5867671.24049  -4053470.85245  24318258.310    24318267.969
       208.000         141.000
 99  4 26  1 53 30.0000000  0  8G29G26G23G21G 6G17G 3G 9
  23150231.854    -8959669.90649  -6971156.69145  23150230.409    23150240.564
       214.000         161.000
  23538216.954     8678102.00849   6764513.83445  23538218.241    23538224.308
       217.000         155.000
  20973294.748    -3109236.60549  -2415719.22047  20973294.131    20973299.742
       242.000         210.000
  21839855.824   -15317601.21549 -11923531.48047  21839855.053    21839861.349
       236.000         195.000
  23507292.200    15798308.59149  12305681.23145  23507290.961    23507300.792
       212.000         154.000
  20834123.696    -2982953.68849  -2321492.58947  20834122.977    20834129.166
       241.000         207.000
  22466009.404   -12985690.55549 -10102761.45446  22466008.896    22466016.384
       228.000         181.000
  24308295.168    -5920032.04249  -4094271.30845  24308294.948    24308304.075
       209.000         144.000
 99  4 26  1 54  0.0000000  0  8G29G26G23G21G 6G17G 3G 9
  23130709.361    -9062259.67449  -7051096.58145  23130708.044    23130717.765
       218.000         160.000
  23556389.832     8773600.26749   6838928.02645  23556389.501    23556396.516
       212.000         154.000
  20977881.832    -3085131.17549  -2396935.74547  20977881.195    20977886.929
       242.000         210.000
  21832596.686   -15355748.06749 -11953256.26247  21832596.268    21832602.767
       237.000         195.000
  23528253.903    15908463.50049  12391516.07745  23528255.118    23528263.331
       214.000         155.000
  20837238.639    -2966584.41949  -2308737.30847  20837237.910    20837244.254
       242.000         207.000
  22452984.295   -13054138.72049 -10156097.66746  22452984.113    22452990.060
       229.000         182.000
  24298386.506    -5972102.59549  -4134845.63145  24298386.477    24298395.620
       212.000         143.000
 99  4 26  1 54 30.0000000  0  8G29G26G23G21G 6G17G 3G 9
  23111220.835    -9164671.86149  -7130898.11445  23111220.005    23111228.994
       215.000         161.000
  23574621.542     8869409.08949   6913584.21345  23574621.199    23574629.640
       214.000         154.000
  20982513.678    -3060790.41749  -2377968.90847  20982513.138    20982518.948
       242.000         209.000
  21825379.509   -15393674.93949 -11982809.62847  21825378.675    21825385.516
       237.000         195.000
  23549244.610    16018769.72649  12477468.81645  23549243.948    23549255.118
       212.000         155.000
  20840414.844    -2949893.23449  -2295731.18147  20840414.391    20840420.389
       241.000         207.000
  22440041.032   -13122155.78549 -10209097.96846  22440040.483    22440047.104
       226.000         181.000
  24288536.892    -6023863.77749  -4175178.92545  24288537.635    24288543.197
       216.000         144.000
 99  4 26  1 55  0.0000000  0  8G29G26G23G21G 6G17G 3G 9
  23091771.940    -9266875.95849  -7210537.52245  23091771.929    23091778.609
       217.000         161.000
  23592914.890     8965541.09849   6988492.19045  23592914.685    23592921.725
       213.000         152.000
  20987191.382    -3036209.23149  -2358814.72847  20987190.680    20987196.333
       242.000         210.000
  21818206.392   -15431370.11049 -12012182.44247  21818205.750    21818211.784
       238.000         195.000
  23570269.435    16129255.19049  12563561.24445  23570269.262    23570278.660
       214.000         154.000
  20843660.717    -2932835.98049  -2282439.80547  20843660.064    20843666.030
       241.000         207.000
  22427182.713   -13189726.35249 -10261750.32446  22427181.965    22427189.090
       226.000         181.000
  24278752.685    -6075281.52349  -4215244.68745  24278752.469    24278759.541
       205.000         141.000
 99  4 26  1 55 30.0000000  0  8G29G26G23G21G 6G17G 3G 9
  23072362.821    -9368870.53349  -7290013.61345  23072362.376    23072370.206
       218.000         162.000
  23611266.697     9061980.28749   7063639.60645  23611266.061    23611272.983
       214.000         152.000
  20991907.052    -3011428.09249  -2339504.73947  20991906.536    20991912.124
       243.000         210.000
  21811071.527   -15468864.06549 -12041398.47147  21811071.230    21811077.019
       239.000         196.000
  23591324.150    16239897.75149  12649776.05945  23591323.117    23591333.036
       209.000         154.000
  20846972.859    -2915430.64449  -2268877.19547  20846972.201    20846978.162
       241.000         207.000
  22414405.777   -13256869.75149 -10314069.82546  22414404.571    22414413.397
       227.000         182.000
  24269029.535    -6126373.35449  -4255056.26545  24269025.583    24269037.952
       202.000         136.000
 99  4 26  1 56  0.0000000  0  8G29G26G23G21G 6G17G 3G 9
  23052994.894    -9470649.37649  -7369321.64445  23052993.445    23053001.696
       216.000         161.000
  23629672.141     9158701.69949   7139006.90345  23629671.759    23629678.007
       210.000         152.000
  20996657.641    -2986463.74649  -2320051.98847  20996656.957    20996662.790
       243.000         210.000
  21803973.427   -15506164.80449 -12070463.94147  21803972.984    21803978.906
       238.000         196.000
  23612406.132    16350685.58449  12736104.05545  23612406.561    23612414.985
       214.000         153.000
  20850342.794    -2897721.44149  -2255077.80547  20850341.989    20850348.222
       242.000         207.000
  22401707.606   -13323599.71849 -10366067.18846  22401706.441    22401713.171
       225.000         181.000
  24259364.251    -6177162.63549  -4294632.18545  24259365.101    24259371.559
       210.000         138.000
 99  4 26  1 56 30.0000000  0  8G29G26G23G21G 6G17G 3G 9
  23033669.764    -9572202.38849  -7448453.70045  23033669.632    23033676.567
       217.000         162.000
  23648127.368     9255684.59749   7214577.94945  23648128.092    23648135.339
       213.000         152.000
  21001444.379    -2961309.31249  -2300451.11847  21001443.653    21001449.245
       242.000         209.000
  21796915.315   -15543255.54649 -12099365.76747  21796914.610    21796920.766
       238.000         196.000
  23633516.344    16461619.59749  12822545.97745  23633516.087    23633526.196
       211.000         151.000
  20853767.942    -2879722.08849  -2241052.32247  20853767.297    20853773.353
       242.000         207.000
  22389093.000   -13389888.75449 -10417720.94446  22389091.954    22389098.521
       226.000         179.000
  24249757.403    -6227648.35949  -4333971.66145  24249757.262    24249765.481
       213.000         144.000
 99  4 26  1 57  0.0000000  0  8G29G26G23G21G 6G17G 3G 9
  23014387.519    -9673531.09649  -7527410.96946  23014386.592    23014395.137
       222.000         163.000
  23666629.412     9352913.03649   7290340.31945  23666630.023    23666636.810
       215.000         153.000
  21006266.303    -2935969.71149  -2280705.96447  21006265.515    21006271.354
       244.000         209.000
  21789899.434   -15580123.80849 -12128094.23347  21789898.897    21789904.944
       240.000         197.000
  23654649.145    16572672.23149  12909080.28745  23654650.166    23654658.357
       215.000         153.000
  20857245.469    -2861447.89249  -2226812.67047  20857244.770    20857250.815
       243.000         207.000
  22376566.454   -13455716.21949 -10469015.04946  22376566.086    22376573.172
       229.000         180.000
  24240208.821    -6277827.51549  -4373072.19945  24240207.643    24240216.433
       210.000         146.000
 99  4 26  1 57 30.0000000  0  8G29G26G23G21G 6G17G 3G 9
  22995143.309    -9774659.57549  -7606212.21146  22995142.464    22995150.903
       218.000         163.000
  23685175.534     9450373.09449   7366283.19845  23685174.225    23685182.999
       209.000         151.000
  21011122.211    -2910451.69049  -2260821.79347  21011121.463    21011127.301
       242.000         209.000
  21782923.424   -15616782.95349 -12156659.76247  21782922.517    21782928.889
       237.000         197.000
  23675800.320    16683821.99049  12995690.31945  23675799.445    23675810.953
       209.000         151.000
  20860767.624    -2842938.89249  -2212390.06947  20860766.792    20860772.861
       241.000         206.000
  22364125.531   -13521093.56149 -10519958.40346  22364125.808    22364132.183
       229.000         181.000
  24230715.605    -6327712.64649  -4411943.58345  24230715.165    24230724.066
       206.000         143.000
 99  4 26  1 58  0.0000000  0  8G29G26G23G21G 6G17G 3G 9
  22975931.497    -9875618.33149  -7684881.22146  22975930.654    22975937.632
       221.000         164.000
  23703764.314     9548059.02549   7442402.04245  23703764.805    23703771.869
       214.000         150.000
  21016012.448    -2884753.22049  -2240797.00547  21016011.768    21016017.516
       243.000         209.000
  21775986.576   -15653235.71849 -12185064.46547  21775985.679    21775992.436
       238.000         198.000
  23696970.724    16795073.35049  13082379.51545  23696970.908    23696982.074
       214.000         151.000
  20864333.050    -2824202.56349  -2197790.31747  20864331.894    20864337.862
       242.000         206.000
  22351770.237   -13586020.23849 -10570550.56646  22351769.922    22351775.885
       231.000         182.000
  24221278.523    -6377304.80349  -4450586.72445  24221279.377    24221286.128
       212.000         143.000
 99  4 26  1 58 30.0000000  0  8G29G26G23G21G 6G17G 3G 9
  22956746.928    -9976433.02049  -7763437.94646  22956745.556    22956754.268
       219.000         164.000
  23722397.709     9645976.27549   7518701.18245  23722397.356    23722404.143
       214.000         153.000
  21020934.666    -2858886.78349  -2220641.33547  21020934.090    21020939.921
       242.000         209.000
  21769087.323   -15689491.05449 -12213315.33347  21769086.585    21769093.164
       239.000         197.000
  23718157.981    16906411.67049  13169136.45445  23718157.541    23718168.290
       209.000         151.000
  20867943.141    -2805231.13349  -2183007.37447  20867942.234    20867948.299
       241.000         206.000
  22339498.512   -13650509.15349 -10620801.66346  22339498.937    22339504.437
       230.000         182.000
  24211893.899    -6426621.09549  -4489014.94345  24211893.265    24211901.073
       209.000         141.000
 99  4 26  1 59  0.0000000  0  8G29G26G23G21G 6G17G 3G 9
  22937592.457   -10077089.74849  -7841871.58546  22937591.546    22937599.699
       221.000         165.000
  23741081.971     9744163.49749   7595210.63645  23741080.332    23741088.439
       208.000         148.000
  21025890.784    -2832842.35249  -2200346.97147  21025890.079    21025895.659
       242.000         209.000
  21762228.668   -15725533.13849 -12241400.02247  21762227.573    21762234.409
       236.000         197.000
  23739366.072    17017860.45649  13255979.49345  23739365.699    23739375.449
       210.000         150.000
  20871606.048    -2785982.33249  -2168008.29747  20871605.248    20871611.292
       241.000         206.000
  22327310.814   -13714556.08049 -10670708.33546  22327310.035    22327317.463
       229.000         183.000
  24202561.848    -6475660.11649  -4527227.06945  24202561.056    24202569.704
       204.000         142.000
 99  4 26  1 59 30.0000000  0  8G29G26G23G21G 6G17G 3G 9
  22918469.150   -10177582.69049  -7920177.59746  22918467.605    22918476.769
       216.000         165.000
  23759818.569     9842624.84149   7671933.74745  23759819.519    23759825.285
       214.000         150.000
  21030880.980    -2806618.44449  -2179912.75447  21030880.424    21030885.987
       242.000         209.000
  21755408.479   -15761373.18649 -12269327.27947  21755407.924    21755414.404
       238.000         197.000
  23760599.414    17129441.66549  13342925.72045  23760599.669    23760610.411
       210.000         151.000
  20875327.308    -2766426.83749  -2152770.23447  20875326.362    20875332.525
       240.000         206.000
  22315206.924   -13778162.18049 -10720271.51046  22315207.293    22315212.865
       231.000         184.000
  24193280.924    -6524430.38749  -4565229.68945  24193280.231    24193290.065
       205.000         143.000
 99  4 26  2  0  0.0000000  0  8G29G26G23G21G 6G17G 3G 9
  22899383.838   -10277875.32549  -7998327.52846  22899383.956    22899391.639
       221.000         165.000
  23778612.914     9941388.10549   7748892.12045  23778612.069    23778619.892
       211.000         151.000
  21035909.843    -2780191.59749  -2159320.40347  21035909.233    21035914.664
       242.000         209.000
  21748631.841   -15796984.62549 -12297076.40447  21748631.326    21748637.623
       237.000         197.000
  23781858.776    17241159.73849  13429978.54545  23781858.672    23781868.923
       213.000         150.000
  20879116.292    -2746515.17849  -2137254.64447  20879115.649    20879121.788
       241.000         206.000
  22303193.911   -13841291.07249 -10769462.81246  22303193.291    22303199.862
       231.000         184.000
  24184055.156    -6572913.33749  -4603008.49445  24184055.467    24184063.178
       213.000         145.000
 99  4 26  2  0 30.0000000  0  8G29G26G23G21G 6G17G 3G 9
  22880340.753   -10377946.78249  -8076305.11546  22880340.300    22880347.296
       221.000         166.000
  23797460.661    10040435.48449   7826071.82445  23797460.801    23797467.616
       212.000         149.000
  21040976.155    -2753568.02949  -2138574.76647  21040975.396    21040981.273
       242.000         209.000
  21741896.899   -15832376.68649 -12324654.58347  21741895.799    21741902.871
       237.000         197.000
  23803137.735    17352979.96749  13517111.06445  23803138.450    23803148.415
       210.000         149.000
  20882975.298    -2726236.13349  -2121452.78347  20882974.757    20882980.499
       241.000         206.000
  22291270.839   -13903946.88849 -10818285.50046  22291270.515    22291277.373
       232.000         183.000
  24174882.208    -6621118.52849  -4640570.94745  24174881.878    24174887.689
       213.000         142.000
 99  4 26  2  1  0.0000000  0  8G29G26G23G21G 6G17G 3G 9
  22861342.128   -10477784.48549  -8154100.55046  22861341.942    22861349.304
       220.000         166.000
  23816358.035    10139741.07349   7903452.76645  23816358.428    23816365.262
       214.000         151.000
  21046077.707    -2726759.07949  -2117684.66547  21046077.114    21046082.699
       242.000         209.000
  21735197.807   -15867580.05649 -12352085.71947  21735197.596    21735203.835
       238.000         197.000
  23824435.377    17464899.14449  13604320.59045  23824434.357    23824445.380
       212.000         148.000
  20886903.856    -2705591.81049  -2105366.28547  20886902.788    20886908.971
       240.000         206.000
  22279439.012   -13966123.81649 -10866735.03146  22279438.905    22279444.032
       230.000         183.000
  24165765.757    -6669026.36049  -4677901.66245  24165765.009    24165772.087
       206.000         141.000
 99  4 26  2  1 30.0000000  0  8G29G26G23G21G 6G17G 3G 9
  22842395.577   -10577348.16749  -8231682.46146  22842396.468    22842402.699
       223.000         166.000
  23835309.292    10239330.40149   7981054.81345  23835308.819    23835314.460
       212.000         148.000
  21051220.824    -2699731.72149  -2096624.37947  21051220.204    21051225.835
       241.000         209.000
  21728538.293   -15902576.13749 -12379355.34647  21728537.736    21728544.149
       239.000         198.000
  23845755.439    17576935.83649  13691621.77745  23845756.646    23845765.538
       210.000         150.000
  20890901.752    -2684582.26949  -2088995.20447  20890900.820    20890907.081
       241.000         206.000
  22267705.608   -14027782.85949 -10914781.01146  22267705.059    22267711.469
       229.000         183.000
  24156714.418    -6716589.45249  -4714963.64245  24156711.307    24156720.974
       202.000         141.000
 99  4 26  2  2  0.0000000  0  8G29G26G23G21G 6G17G 3G 9
  22823496.777   -10676661.86249  -8309069.57746  22823495.543    22823504.287
       220.000         166.000
  23854309.825    10339178.10249   8058858.18745  23854310.924    23854316.534
       212.000         149.000
  21056399.014    -2672519.83749  -2075420.30647  21056398.639    21056404.201
       242.000         209.000
  21721913.394   -15937390.27549 -12406483.19247  21721912.713    21721918.845
       238.000         198.000
  23867089.925    17689049.55549  13778982.87445  23867089.788    23867099.680
       210.000         146.000
  20894961.687    -2663247.20049  -2072370.46647  20894960.820    20894966.839
       240.000         206.000
  22256064.278   -14088959.30949 -10962450.93346  22256063.608    22256070.309
       229.000         182.000
  24147724.346    -6763830.63749  -4751774.80145  24147723.019    24147732.014
       206.000         142.000
 99  4 26  2  2 30.0000000  0  8G29G26G23G21G 6G17G 3G 9
  22804642.592   -10775739.70049  -8386272.89246  22804642.165    22804649.987
       222.000         167.000
  23873355.555    10439264.98149   8136847.90345  23873356.319    23873363.701
       212.000         149.000
  21061610.000    -2645136.30349  -2054082.48047  21061609.331    21061615.187
       243.000         209.000
  21715320.870   -15972034.21449 -12433478.42347  21715320.127    21715325.964
       238.000         198.000
  23888443.912    17801263.12949  13866421.92145  23888444.604    23888454.813
       213.000         150.000
  20899078.032    -2641615.56149  -2055514.63647  20899077.300    20899083.392
       242.000         206.000
  22244510.986   -14149671.67949 -11009759.25646  22244510.056    22244515.917
       230.000         182.000
  24138796.258    -6810747.61549  -4788333.37145  24138795.470    24138803.392
       210.000         145.000
 99  4 26  2  3  0.0000000  0  8G29G26G23G21G 6G17G 3G 9
  22785828.223   -10874609.86949  -8463314.40946  22785827.010    22785834.452
       222.000         167.000
  23892445.731    10539584.03049   8215018.56445  23892446.174    23892452.665
       212.000         149.000
  21066851.591    -2617591.55549  -2032619.02947  21066850.723    21066856.673
       243.000         209.000
  21708761.143   -16006505.45949 -12460339.07847  21708760.398    21708766.282
       240.000         198.000
  23909817.919    17913583.73449  13953944.23045  23909818.337    23909826.135
       211.000         146.000
  20903243.642    -2619725.28949  -2038457.27247  20903242.796    20903248.708
       241.000         206.000
  22233044.095   -14209930.36849 -11056714.04546  22233043.744    22233050.524
       231.000         183.000
  24129928.574    -6857348.31949  -4824645.52245  24129928.808    24129935.065
       213.000         144.000
 99  4 26  2  3 30.0000000  0  8G29G26G23G21G 6G17G 3G 9
  22767051.153   -10973283.86549  -8540203.04846  22767050.379    22767059.051
       222.000         168.000
  23911582.153    10640146.13849   8293378.62345  23911582.106    23911588.798
       211.000         146.000
  21072125.492    -2589877.02549  -2011023.28647  21072124.911    21072130.481
       242.000         209.000
  21702241.668   -16040765.15549 -12487034.90547  21702240.931    21702246.884
       237.000         198.000
  23931210.599    18026002.53149  14041543.16245  23931211.257    23931219.698
       214.000         146.000
  20907459.108    -2597572.91849  -2021195.68447  20907458.298    20907464.357
       241.000         206.000
  22221661.480   -14269745.90649 -11103323.53046  22221660.624    22221667.831
       229.000         182.000
  24121119.800    -6903639.13249  -4860716.19845  24121119.167    24121125.643
       204.000         142.000
 99  4 26  2  4  0.0000000  0  8G29G26G23G21G 6G17G 3G 9
  22748309.938   -11071768.92049  -8616944.47746  22748309.153    22748316.610
       221.000         169.000
  23930762.088    10740937.27149   8371917.15045  23930762.498    23930769.276
       211.000         146.000
  21077430.005    -2562001.51149  -1989302.09547  21077429.289    21077434.752
       242.000         208.000
  21695764.979   -16074800.39949 -12513555.81347  21695763.885    21695770.245
       237.000         198.000
  23952623.473    18138526.56549  14129224.00945  23952623.784    23952632.320
       209.000         147.000
  20911727.788    -2575140.74449  -2003716.05947  20911727.103    20911733.005
       241.000         206.000
  22210361.577   -14329126.34049 -11149593.97446  22210361.147    22210367.041
       230.000         183.000
  24112370.256    -6949616.13849  -4896542.28045  24112369.814    24112377.850
       210.000         141.000
 99  4 26  2  4 30.0000000  0  9G29G26G23G21G 6G17G 3G 9G 8
  22729602.968   -11170073.75649  -8693545.47746  22729601.894    22729609.700
       224.000         168.000
  23949983.166    10841944.55049   8450624.05345  23949983.242    23949990.763
       211.000         148.000
  21082763.214    -2533975.07749  -1967463.30347  21082762.537    21082768.052
       242.000         208.000
  21689331.071   -16108610.12449 -12539901.00647  21689330.639    21689336.579
       238.000         198.000
  23974054.850    18251149.12649  14216981.65045  23974055.856    23974065.713
       213.000         145.000
  20916047.837    -2552438.70749  -1986026.15647  20916047.232    20916053.188
       241.000         206.000
  22199145.465   -14388067.98949 -11195522.50846  22199145.012    22199151.184
       230.000         183.000
  24103682.603    -6995270.69049  -4932117.18245  24103682.488    24103690.046
       209.000         145.000
  24599702.095    -4045111.55849  -1932541.13745  24599699.602    24599711.221
       201.000         135.000
 99  4 26  2  5  0.0000000  0  9G29G26G23G21G 6G17G 3G 9G 8
  22710936.134   -11268167.70649  -8769982.12946  22710935.167    22710943.947
       220.000         170.000
  23969249.026    10943186.71149   8529513.96245  23969248.744    23969255.300
       212.000         147.000
  21088128.703    -2505779.07849  -1945492.38747  21088128.103    21088133.870
       242.000         208.000
  21682944.445   -16142171.78649 -12566052.88647  21682943.710    21682950.345
       238.000         198.000
  23995502.950    18363858.62449  14304807.08645  23995501.720    23995514.350
       207.000         145.000
  20920425.865    -2529432.07749  -1968098.91547  20920425.071    20920431.292
       241.000         206.000
  22188016.853   -14446548.60549 -11241091.80046  22188016.416    22188022.443
       229.000         183.000
  24095060.128    -7040581.88249  -4967424.49545  24095059.018    24095067.956
       208.000         146.000
  24584832.035    -4123252.13149  -1993429.62045  24584830.316    24584840.188
       207.000         135.000
 99  4 26  2  5 30.0000000  0  9G29G26G23G21G 6G17G 3G 9G 8
  22692312.735   -11366033.52849  -8846241.04146  22692311.490    22692319.480
       221.000         169.000
  23988558.350    11044657.73649   8608582.33245  23988559.096    23988565.485
       212.000         144.000
  21093524.901    -2477421.77949  -1923395.77047  21093524.037    21093529.900
       241.000         208.000
  21676602.218   -16175499.96649 -12592022.83547  21676601.601    21676607.883
       238.000         198.000
  24016966.714    18476651.43149  14392697.33745  24016966.200    24016976.896
       207.000         144.000
  20924865.141    -2506103.29949  -1949920.63947  20924864.458    20924870.683
       240.000         205.000
  22176976.709   -14504564.55349 -11286299.00046  22176976.828    22176982.493
       230.000         183.000
  24086503.625    -7085545.82949  -5002461.20945  24086502.671    24086510.816
       203.000         145.000
  24569954.086    -4201435.76549  -2054351.68345  24569953.265    24569963.403
       202.000         140.000
 99  4 26  2  6  0.0000000  0  9G29G26G23G21G 6G17G 3G 9G 8
  22673737.021   -11463648.86849  -8922304.76046  22673735.599    22673743.996
       221.000         169.000
  24007912.163    11146361.88449   8687832.26645  24007910.609    24007917.577
       208.000         147.000
  21098954.813    -2448887.31149  -1901161.10547  21098954.178    21098959.984
       241.000         208.000
  21670302.025   -16208607.67749 -12617821.00847  21670301.343    21670307.686
       238.000         198.000
  24038450.571    18589548.81449  14480669.12545  24038449.807    24038461.711
       209.000         145.000
  20929368.675    -2482436.83949  -1931479.23847  20929367.880    20929373.965
       240.000         205.000
  22166031.658   -14562081.11549 -11331117.05946  22166031.736    22166038.441
       230.000         184.000
  24078016.006    -7130146.19549  -5037214.64045  24078014.947    24078021.529
       207.000         141.000
  24555071.640    -4279642.24749  -2115291.57045  24555070.398    24555081.539
       202.000         139.000
 99  4 26  2  6 30.0000000  0  9G29G26G23G21G 6G17G 3G 9G 8
  22655205.255   -11561033.50349  -8998188.72646  22655204.888    22655212.771
       220.000         169.000
  24027306.414    11248280.15649   8767249.02345  24027305.562    24027312.696
       208.000         145.000
  21104416.880    -2420184.04049  -1878794.89947  21104416.127    21104421.753
       241.000         208.000
  21664036.593   -16241532.92249 -12643476.99447  21664035.890    21664041.755
       239.000         199.000
  24059949.023    18702523.22249  14568700.99145  24059949.244    24059958.645
       207.000         141.000
  20933933.394    -2458448.95149  -1912787.36947  20933932.550    20933938.654
       240.000         205.000
  22155179.835   -14619107.48349 -11375553.15346  22155178.949    22155186.251
       231.000         184.000
  24069592.089    -7174414.38849  -5071709.28145  24069591.618    24069599.226
       211.000         143.000
  24540181.596    -4357888.83749  -2176262.66045  24540180.097    24540190.240
       205.000         138.000
 99  4 26  2  7  0.0000000  0  9G29G26G23G21G 6G17G 3G 9G 8
  22636720.774   -11658168.94949  -9073878.51746  22636720.135    22636727.325
       220.000         170.000
  24046743.688    11350423.59749   8846841.29345  24046743.776    24046750.022
       212.000         144.000
  21109913.209    -2391300.45549  -1856288.19347  21109912.372    21109918.366
       241.000         208.000
  21657806.468   -16274272.60549 -12668988.39747  21657805.843    21657812.119
       239.000         199.000
  24081463.057    18815580.09149  14656796.95045  24081462.021    24081474.810
       209.000         144.000
  20938563.264    -2434119.03449  -1893828.99647  20938562.365    20938568.479
       241.000         205.000
  22144424.924   -14675624.72049 -11419592.52146  22144424.584    22144430.685
       232.000         184.000
  24061233.339    -7218341.35849  -5105937.99745  24061234.094    24061241.608
       216.000         151.000
  24525285.245    -4436170.00149  -2237260.79045  24525285.148    24525293.892
       207.000         142.000
 99  4 26  2  7 30.0000000  0  9G29G26G23G21G 6G17G 3G 9G 8
  22618279.355   -11755078.65649  -9149392.41746  22618278.102    22618285.932
       221.000         170.000
  24066221.831    11452782.05549   8926601.11945  24066222.131    24066229.624
       211.000         145.000
  21115441.546    -2362248.55749  -1833650.33047  21115441.024    21115446.776
       243.000         208.000
  21651609.189   -16306839.13349 -12694364.86147  21651608.503    21651614.668
       240.000         199.000
  24102992.810    18928718.56349  14744956.64045  24102993.895    24103002.189
       208.000         144.000
  20943256.910    -2409453.84649  -1874609.35747  20943256.036    20943261.976
       241.000         205.000
  22133767.739   -14731628.67249 -11463231.92346  22133767.681    22133774.066
       232.000         185.000
  24052937.591    -7261936.28949  -5139908.00045  24052935.629    24052943.982
       208.000         149.000
  24510384.993    -4514469.21549  -2298272.94045  24510382.525    24510390.812
       203.000         133.000
 99  4 26  2  8  0.0000000  0  9G29G26G23G21G 6G17G 3G 9G 8
  22599881.319   -11851759.87449  -9224728.26646  22599880.199    22599888.366
       222.000         171.000
  24085741.483    11555358.41449   9006530.66945  24085741.468    24085748.073
       209.000         143.000
  21121004.554    -2333014.87749  -1810870.82747  21121003.553    21121009.383
       242.000         208.000
  21645447.562   -16339218.44149 -12719595.44547  21645446.809    21645453.041
       237.000         199.000
  24124538.475    19041941.82549  14833182.33745  24124538.659    24124548.478
       207.000         140.000
  20948015.113    -2384449.24449  -1855125.25147  20948014.072    20948020.191
       241.000         205.000
  22123209.108   -14787114.65849 -11506467.70146  22123208.302    22123215.032
       231.000         185.000
  24044707.456    -7305183.99149  -5173607.40545  24044705.277    24044713.255
       208.000         143.000
  24495486.216    -4592762.51649  -2359280.52845  24495485.868    24495495.061
       210.000         138.000
 99  4 26  2  8 30.0000000  0  9G29G26G23G21G 6G17G 3G 9G 8
  22581529.298   -11948199.42649  -9299875.80246  22581528.943    22581536.075
       224.000         171.000
  24105302.832    11658152.81449   9086630.20645  24105302.147    24105310.532
       209.000         144.000
  21126600.085    -2303610.33449  -1787958.18547  21126599.360    21126605.185
       242.000         208.000
  21639324.488   -16371395.06749 -12744668.10047  21639324.208    21639330.030
       240.000         199.000
  24146098.210    19155237.02949  14921464.06045  24146098.114    24146110.481
       209.000         147.000
  20952836.947    -2359110.15749  -1835380.50647  20952836.083    20952842.429
       240.000         205.000
  22112747.834   -14842088.98649 -11549304.80846  22112747.643    22112753.586
       231.000         185.000
  24036545.031    -7348076.55349  -5207030.11645  24036544.656    24036551.825
       211.000         142.000
  24480587.925    -4671054.16649  -2420286.76145  24480586.513    24480597.293
       206.000         146.000
 99  4 26  2  9  0.0000000  0  9G29G26G23G21G 6G17G 3G 9G 8
  22563221.726   -12044406.13949  -9374841.93246  22563220.947    22563227.737
       222.000         171.000
  24124901.675    11761146.47649   9166884.92245  24124902.607    24124907.413
       208.000         143.000
  21132223.766    -2274057.35749  -1764929.87447  21132223.316    21132228.737
       241.000         208.000
  21633239.554   -16403371.50849 -12769584.76547  21633238.840    21633244.948
       238.000         199.000
  24167669.024    19268591.80749  15009792.20845  24167668.241    24167678.956
       209.000         140.000
  20957718.204    -2333459.06649  -1815392.64247  20957717.364    20957723.486
       240.000         205.000
  22102379.752   -14896573.98149 -11591760.60646  22102378.842    22102385.221
       230.000         186.000
  24028451.115    -7390611.46849  -5240174.14345  24028451.489    24028458.265
       212.000         146.000
  24465688.919    -4749348.41549  -2481295.02645  24465688.266    24465696.993
       207.000         145.000
 99  4 26  2  9 30.0000000  0  9G29G26G23G21G 6G17G 3G 9G 8
  22544957.110   -12140386.10049  -9449631.34746  22544956.931    22544964.060
       223.000         172.000
  24144536.251    11864326.09849   9247284.63145  24144536.075    24144543.885
       207.000         142.000
  21137877.403    -2244347.26349  -1741779.14147  21137876.922    21137882.705
       242.000         208.000
  21627191.383   -16435154.75249 -12794350.89547  21627190.707    21627196.935
       239.000         199.000
  24189252.107    19382009.93749  15098169.80645  24189252.549    24189263.291
       208.000         142.000
  20962656.066    -2307510.53949  -1795173.01347  20962655.426    20962661.413
       240.000         205.000
  22092102.489   -14950580.41249 -11633843.49546  22092102.016    22092108.857
       230.000         187.000
  24020424.486    -7432791.44049  -5273041.56845  24020424.606    24020431.376
       210.000         148.000
  24450790.407    -4827638.97849  -2542300.48945  24450787.412    24450797.472
       199.000         136.000
 99  4 26  2 10  0.0000000  0  9G29G26G23G21G 6G17G 3G 9G 8
  22526743.003   -12236101.45549  -9524214.59446  22526742.231    22526749.713
       222.000         172.000
  24164206.267    11967692.58749   9327829.91145  24164206.448    24164214.538
       210.000         143.000
  21143564.185    -2214463.31849  -1718492.93447  21143563.416    21143569.186
       242.000         208.000
  21621182.156   -16466733.31749 -12818957.51947  21621181.338    21621187.554
       240.000         199.000
  24210848.759    19495499.39749  15186602.88745  24210848.159    24210860.803
       206.000         146.000
  20967651.445    -2281259.67749  -1774717.78747  20967650.598    20967656.624
       240.000         205.000
  22081917.697   -15004101.53649 -11675548.22246  22081916.957    22081924.199
       232.000         187.000
  24012470.809    -7474587.84949  -5305610.10945  24012469.403    24012477.175
       208.000         146.000
  24435891.766    -4905929.19449  -2603305.65745  24435890.815    24435898.672
       210.000         136.000
 99  4 26  2 10 30.0000000  0  9G29G26G23G21G 6G17G 3G 9G 8
  22508580.600   -12331544.93549  -9598585.99546  22508580.054    22508586.590
       224.000         173.000
  24183912.943    12071251.07349   9408524.76145  24183913.395    24183917.932
       209.000         145.000
  21149282.287    -2184414.33649  -1695078.12947  21149281.477    21149286.949
       242.000         207.000
  21615209.890   -16498117.81549 -12843412.94547  21615209.262    21615215.500
       239.000         200.000
  24232457.018    19609050.90649  15275084.31845  24232457.918    24232466.239
       213.000         141.000
  20972705.511    -2254700.24749  -1754022.12347  20972704.619    20972710.599
       240.000         204.000
  22071825.212   -15057138.05249 -11716875.33147  22071825.283    22071830.254
       234.000         188.000
  24004589.000    -7516005.20549  -5337883.26845  24004588.969    24004595.577
       211.000         145.000
  24420993.152    -4984221.99449  -2664312.87245  24420992.269    24421002.248
       210.000         143.000
 99  4 26  2 11  0.0000000  0  9G29G26G23G21G 6G17G 3G 9G 8
  22490470.967   -12426711.65049  -9672741.72346  22490470.641    22490477.352
       223.000         174.000
  24203657.407    12175009.07549   9489375.14145  24203657.337    24203662.016
       209.000         140.000
  21155034.125    -2154187.96449  -1671525.10747  21155033.775    21155039.286
       241.000         207.000
  21609275.019   -16529306.10849 -12867715.48847  21609274.241    21609280.281
       239.000         200.000
  24254078.758    19722672.42949  15363620.41345  24254079.100    24254090.298
       208.000         139.000
  20977820.641    -2227820.10149  -1733076.55747  20977819.678    20977826.061
       240.000         204.000
  22061826.497   -15109682.24749 -11757818.83347  22061826.335    22061832.072
       232.000         189.000
  23996780.510    -7557038.83049  -5369857.48245  23996780.574    23996787.760
       208.000         144.000
  24406096.216    -5062505.01949  -2725312.45445  24406095.821    24406105.496
       207.000         144.000
 99  4 26  2 11 30.0000000  0  9G29G26G23G21G 6G17G 3G 9G 8
  22472414.513   -12521598.53249  -9746679.39446  22472413.452    22472421.191
       224.000         174.000
  24223437.234    12278953.36049   9570370.67745  24223438.812    24223445.666
       216.000         142.000
  21160815.357    -2123807.30549  -1647851.85047  21160814.733    21160820.237
       242.000         207.000
  21603375.100   -16560309.79849 -12891874.15947  21603374.295    21603380.545
       240.000         200.000
  24275709.142    19836339.74449  15452192.09745  24275708.407    24275721.449
       206.000         143.000
  20982995.554    -2200625.52649  -1711885.97547  20982994.785    20983000.723
       241.000         204.000
  22051919.315   -15161745.02549 -11798387.17947  22051919.004    22051925.855
       233.000         190.000
  23989042.895    -7597700.15349  -5401541.54445  23989042.122    23989049.649
       211.000         148.000
  24391198.024    -5140794.69249  -2786317.13745  24391197.036    24391204.852
       206.000         141.000
 99  4 26  2 12  0.0000000  0  9G29G26G23G21G 6G17G 3G 9G 8
  22454418.059   -12616169.86149  -9820371.19646  22454416.791    22454424.654
       224.000         175.000
  24243260.082    12383121.01449   9651540.22645  24243258.391    24243268.201
       206.000         146.000
  21166627.714    -2093263.07049  -1624051.13947  21166627.289    21166632.949
       242.000         207.000
  21597515.729   -16591101.05749 -12915867.32847  21597515.001    21597520.966
       239.000         199.000
  24297350.026    19950063.22849  15540807.52845  24297350.244    24297359.226
       207.000         138.000
  20988239.084    -2173070.59449  -1690414.59747  20988238.305    20988244.274
       240.000         204.000
  22042110.153   -15213292.06749 -11838553.66647  22042109.735    22042116.250
       234.000         190.000
  23981380.426    -7637965.93749  -5432917.38545  23981379.247    23981388.742
       208.000         149.000
  24376303.581    -5219065.41649  -2847307.17445  24376302.837    24376311.361
       208.000         139.000
 99  4 26  2 12 30.0000000  0  9G29G26G23G21G 6G17G 3G 9G 8
  22436475.641   -12710457.52449  -9893841.94846  22436474.962    22436482.017
       224.000         175.000
  24263123.311    12487503.41549   9732877.04645  24263123.779    24263127.212
       209.000         140.000
  21172466.592    -2062579.66549  -1600141.97847  21172465.987    21172471.642
       243.000         207.000
  21591694.249   -16621693.28349 -12939705.39647  21591693.212    21591699.269
       239.000         199.000
  24318996.636    20063817.29249  15629446.93345  24318996.879    24319009.609
       208.000         138.000
  20993548.292    -2145170.45349  -1668674.22147  20993547.450    20993553.642
       239.000         204.000
  22032395.947   -15264340.62749 -11878331.71947  22032395.290    22032401.167
       233.000         189.000
  23973787.707    -7677866.10049  -5464008.31345  23973787.962    23973796.161
       212.000         152.000
  24361412.818    -5297316.66849  -2908282.05045  24361411.576    24361421.046
       208.000         141.000
 99  4 26  2 13  0.0000000  0  9G29G26G23G21G 6G17G 3G 9G 8
  22418587.015   -12804461.78249  -9967091.88346  22418586.915    22418594.011
       224.000         175.000
  24283026.165    12592092.73049   9814375.31145  24283026.521    24283033.900
       211.000         142.000
  21178333.773    -2031747.45649  -1576116.87647  21178333.015    21178338.636
       243.000         207.000
  21585912.728   -16652074.72949 -12963379.23147  21585911.744    21585917.728
       239.000         199.000
  24340650.207    20177606.27149  15718113.37445  24340651.008    24340660.541
       207.000         139.000
  20998921.397    -2116934.29349  -1646672.01947  20998920.540    20998926.447
       239.000         204.000
  22022779.869   -15314873.39749 -11917707.87047  22022779.807    22022785.282
       233.000         189.000
  23966267.066    -7717387.28049  -5494803.94545  23966266.799    23966274.277
       210.000         150.000
  24346527.739    -5375537.58749  -2969233.20945  24346526.281    24346535.781
       206.000         143.000
 99  4 26  2 13 30.0000000  0  9G29G26G23G21G 6G17G 3G 9G 8
  22400748.968   -12898200.62949 -10040134.99846  22400748.514    22400754.808
       225.000         175.000
  24302963.761    12696866.01549   9896016.76845  24302962.179    24302971.716
       200.000         140.000
  21184227.639    -2000775.15549  -1551982.61047  21184226.875    21184232.584
       243.000         207.000
  21580166.113   -16682273.37149 -12986910.61347  21580165.173    21580171.405
       239.000         199.000
  24362306.111    20291407.74149  15806789.61645  24362306.306    24362318.021
       203.000         138.000
  21004356.765    -2088370.89749  -1624414.82547  21004356.227    21004361.879
       240.000         203.000
  22013261.556   -15364892.59649 -11956683.82747  22013260.947    22013267.341
       234.000         189.000
  23958816.585    -7756538.59949  -5525311.39645  23958814.828    23958822.931
       208.000         145.000
  24331647.589    -5453732.63849  -3030164.23045  24331645.602    24331656.556
       207.000         143.000
 99  4 26  2 14  0.0000000  0  9G29G26G23G21G 6G17G 3G 9G 8
  22382957.739   -12991694.33549 -10112987.08546  22382956.432    22382964.851
       224.000         176.000
  24322933.524    12801808.46149   9977790.00745  24322934.833    24322941.304
       212.000         143.000
  21190148.167    -1969662.41649  -1527738.90347  21190147.566    21190153.238
       242.000         207.000
  21574450.354   -16712309.64749 -13010315.47147  21574449.569    21574455.709
       238.000         200.000
  24383963.030    20405216.12649  15895471.32545  24383964.603    24383973.736
       210.000         134.000
  21009854.836    -2059478.87449  -1601901.54847  21009854.271    21009860.266
       240.000         203.000
  22003842.811   -15414388.46049 -11995251.99147  22003842.247    22003848.120
       233.000         189.000
  23951435.978    -7795322.77949  -5555532.74745  23951434.357    23951442.471
       208.000         143.000
  24316771.828    -5531904.07049  -3091076.88545  24316771.579    24316779.777
       210.000         141.000
 99  4 26  2 14 30.0000000  0  9G29G26G23G21G 6G17G 3G 9G 8
  22365214.667   -13084934.16349 -10185641.37046  22365214.414    22365220.330
       224.000         176.000
  24342935.261    12906918.24049  10059693.77245  24342933.987    24342942.236
       205.000         140.000
  21196097.721    -1938397.05549  -1503376.27947  21196097.037    21196102.680
       243.000         207.000
  21568767.758   -16742171.70249 -13033584.57347  21568766.943    21568773.060
       239.000         200.000
  24405625.471    20519051.02449  15984173.58145  24405626.706    24405638.192
       206.000         137.000
  21015413.177    -2030269.76049  -1579141.19847  21015412.483    21015418.600
       240.000         203.000
  21994524.630   -15463355.21649 -12033407.87347  21994524.308    21994529.856
       233.000         188.000
  23944128.373    -7833725.95449  -5585457.23145  23944129.194    23944135.892
       212.000         147.000
  24301902.302    -5610044.25649  -3151965.20745  24301900.644    24301908.579
       202.000         139.000
 99  4 26  2 15  0.0000000  0  9G29G26G23G21G 6G17G 3G 9G 8
  22347520.961   -13177914.76249 -10258093.66646  22347520.633    22347527.143
       226.000         176.000
  24362964.893    13012175.36449  10141712.25345  24362965.520    24362971.815
       210.000         138.000
  21202075.533    -1906983.64849  -1478898.29447  21202075.049    21202080.507
       243.000         207.000
  21563116.493   -16771869.20649 -13056725.46647  21563115.915    21563121.888
       239.000         200.000
  24427293.819    20632916.63049  16072899.77945  24427294.506    24427303.691
       209.000         139.000
  21021032.583    -2000739.75049  -1556130.79847  21021031.583    21021037.702
       240.000         203.000
  21985307.758   -15511790.24949 -12071149.42747  21985307.099    21985313.246
       233.000         188.000
  23936892.106    -7871752.50349  -5615088.21345  23936891.665    23936899.254
       210.000         147.000
  24287036.059    -5688165.28049  -3212838.53045  24287035.255    24287044.246
       211.000         142.000
 99  4 26  2 15 30.0000000  0  9G29G26G23G21G 6G17G 3G 9G 8
  22329879.870   -13270618.56249 -10330330.24946  22329878.777    22329886.786
       223.000         177.000
  24383024.420    13117587.95149  10223851.95145  24383025.802    24383031.624
       208.000         141.000
  21208080.565    -1875427.14549  -1454308.80647  21208080.102    21208085.394
       242.000         207.000
  21557498.967   -16801389.04749 -13079727.91447  21557498.344    21557504.607
       239.000         200.000
  24448969.924    20746825.80849  16161660.00945  24448969.291    24448980.829
       204.000         136.000
  21026718.194    -1970861.35049  -1532848.92347  21026717.237    21026723.495
       239.000         203.000
  21976192.592   -15559689.97949 -12108473.86147  21976192.658    21976198.032
       233.000         188.000
  23929729.291    -7909393.89349  -5644419.09045  23929729.113    23929736.381
       213.000         151.000
  24272176.032    -5766255.82949  -3273688.15445  24272174.693    24272183.620
       205.000         145.000
 99  4 26  2 16  0.0000000  0  9G29G26G23G21G 6G17G 3G 9G 8
  22312291.307   -13363046.06249 -10402351.55646  22312290.553    22312297.158
       223.000         176.000
  24403112.789    13223153.42049  10306110.69445  24403112.677    24403119.157
       208.000         140.000
  21214109.504    -1843744.52749  -1429621.04347  21214108.748    21214114.439
       241.000         207.000
  21551918.564   -16830714.62649 -13102578.98447  21551918.068    21551923.854
       240.000         200.000
  24470655.918    20860786.39849  16250460.24045  24470655.768    24470668.123
       204.000         135.000
  21032466.243    -1940655.08849  -1509311.56947  21032465.397    21032471.523
       239.000         203.000
  21967177.871   -15607063.40449 -12145388.18847  21967177.839    21967183.180
       233.000         189.000
  23922638.806    -7946654.82749  -5673453.49245  23922639.172    23922645.773
       212.000         152.000
  24257320.176    -5844322.36449  -3334519.04045  24257318.028    24257326.958
       205.000         140.000
 99  4 26  2 16 30.0000000  0  9G29G26G23G21G 6G17G 3G 9G 8
  22294757.455   -13455186.69249 -10474149.31746  22294756.561    22294763.696
       224.000         177.000
  24423231.410    13328877.92049  10388493.43645  24423231.449    24423237.374
       208.000         137.000
  21220165.022    -1811922.44649  -1404824.60947  21220164.286    21220170.032
       242.000         207.000
  21546379.383   -16859822.90049 -13125260.71647  21546378.742    21546384.739
       238.000         200.000
  24492352.301    20974799.96149  16339301.75245  24492353.067    24492363.963
       207.000         138.000
  21038275.556    -1910126.92249  -1485523.38647  21038275.015    21038280.717
       239.000         202.000
  21958262.694   -15653913.43149 -12181894.67047  21958262.161    21958267.990
       233.000         189.000
  23915620.784    -7983535.64549  -5702191.73545  23915619.381    23915627.143
       211.000         151.000
  24242472.206    -5922347.20249  -3395317.46745  24242469.967    24242480.015
       204.000         137.000
 99  4 26  2 17  0.0000000  0  9G29G26G23G21G 6G17G 3G 9G 8
  22277275.469   -13547054.60349 -10545734.58946  22277274.404    22277281.942
       225.000         177.000
  24443379.087    13434754.39449  10470994.58545  24443379.271    24443386.369
       208.000         140.000
  21226246.531    -1779963.65449  -1379921.64647  21226245.846    21226251.504
       242.000         206.000
  21540880.196   -16888720.58649 -13147778.36547  21540879.769    21540885.378
       240.000         200.000
  24514056.059    21088852.22449  16428173.46345  24514056.512    24514068.368
       203.000         137.000
  21044146.736    -1879273.59849  -1461481.83047  21044145.851    21044152.053
       240.000         202.000
  21949446.581   -15700241.93849 -12217994.77547  21949445.805    21949451.552
       234.000         189.000
  23908675.447    -8020032.52249  -5730630.75645  23908673.999    23908681.836
       209.000         149.000
  24227633.077    -6000326.29849  -3456080.22045  24227633.269    24227641.270
       213.000         142.000
 99  4 26  2 17 30.0000000  0  8G29G26G23G21G17G 3G 9G 8
  22259842.118   -13638666.56349 -10617120.41546  22259842.282    22259847.882
       224.000         177.000
  24463555.905    13540784.70549  10553615.57645  24463555.873    24463564.471
       204.000         140.000
  21232352.623    -1747875.87149  -1354918.17347  21232352.198    21232357.833
       242.000         206.000
  21535418.557   -16917421.69949 -13170142.84347  21535418.030    21535424.022
       240.000         200.000
  21050076.397    -1848113.06749  -1437200.89747  21050075.776    21050081.808
       239.000         202.000
  21940725.991   -15746068.71949 -12253703.92347  21940725.232    21940731.219
       233.000         189.000
  23901802.609    -8056146.68349  -5758771.55945  23901802.786    23901809.932
       208.000         146.000
  24212799.896    -6078275.36849  -3516819.60645  24212796.989    24212807.943
       206.000         143.000
 99  4 26  2 18  0.0000000  0  8G29G26G23G21G17G 3G 9G 8
  22242459.081   -13730014.03249 -10688300.13246  22242458.726    22242466.181
       227.000         178.000
  24483766.233    13646990.08749  10636372.96945  24483768.060    24483773.404
       208.000         138.000
  21238488.755    -1715630.40149  -1329791.82147  21238488.320    21238493.922
       243.000         206.000
  21529994.790   -16945923.86549 -13192352.29347  21529994.125    21530000.262
       240.000         200.000
  21056065.239    -1816641.52349  -1412677.61347  21056064.640    21056070.438
       240.000         202.000
  21932102.099   -15791387.71049 -12289017.40047  21932101.102    21932107.387
       233.000         189.000
  23895005.109    -8091866.74149  -5786605.28945  23895005.472    23895012.058
       210.000         146.000
  24197974.174    -6156183.53649  -3577527.04845  24197973.092    24197982.262
       209.000         141.000
 99  4 26  2 18 30.0000000  0  8G29G26G23G21G17G 3G 9G 8
  22225131.297   -13821071.99249 -10759254.27246  22225131.052    22225136.758
       227.000         179.000
  24504014.070    13753391.60049  10719283.29145  24504014.094    24504019.207
       205.000         137.000
  21244659.146    -1683205.03149  -1304525.29047  21244658.499    21244664.213
       242.000         206.000
  21524610.721   -16974217.33049 -13214399.11347  21524610.063    21524616.357
       239.000         200.000
  21062120.632    -1784819.99049  -1387881.61447  21062119.968    21062125.908
       239.000         202.000
  21923575.118   -15836196.89249 -12323933.61747  21923574.135    21923580.634
       232.000         189.000
  23888287.629    -8127167.25249  -5814112.11545  23888288.532    23888293.644
       213.000         146.000
  24183160.006    -6234032.13849  -3638188.19345  24183158.788    24183166.929
       208.000         138.000
 99  4 26  2 19  0.0000000  0  9G29G26G23G21G17G 3G 9G 8G31
  22207861.162   -13911826.65249 -10829972.07446  22207860.668    22207866.983
       226.000         179.000
  24524300.295    13859996.80749  10802352.21745  24524299.641    24524308.796
       204.000         138.000
  21250860.476    -1650616.96649  -1279131.98347  21250859.796    21250865.315
       241.000         206.000
  21519264.352   -17002312.07849 -13236291.08847  21519263.624    21519269.444
       239.000         200.000
  21068245.790    -1752632.16649  -1362800.19247  21068245.117    21068251.011
       239.000         202.000
  21915145.712   -15880493.64049 -12358450.54847  21915145.111    21915151.361
       234.000         190.000
  23881652.126    -8162037.15049  -5841283.39645  23881651.037    23881658.870
       209.000         147.000
  24168358.514    -6311813.71249  -3698797.06645  24168357.194    24168366.915
       209.000         141.000
  24518588.168    -2638699.72649  -2041538.70345  24518587.005    24518593.531
       206.000         141.000
 99  4 26  2 19 30.0000000  0  9G29G26G23G21G17G 3G 9G 8G31
  22190655.658   -14002242.18349 -10900425.61946  22190655.309    22190662.062
       228.000         180.000
  24544626.625    13966811.92949  10885584.69045  24544627.308    24544633.832
       207.000         140.000
  21257094.414    -1617857.20749  -1253604.88347  21257093.680    21257099.183
       242.000         206.000
  21513957.460   -17030200.14849 -13258022.01547  21513956.908    21513962.746
       239.000         200.000
  21074444.853    -1720055.87549  -1337416.07447  21074444.346    21074450.364
       240.000         202.000
  21906817.944   -15924256.91549 -12392551.78447  21906816.966    21906822.985
       235.000         190.000
  23875100.696    -8196465.68949  -5868110.74645  23875101.261    23875107.138
       213.000         150.000
  24153572.868    -6389513.27349  -3759341.99845  24153571.760    24153580.289
       210.000         144.000
  24501640.925    -2727757.88149  -2110934.57245  24501640.547    24501647.620
       205.000         139.000
 99  4 26  2 20  0.0000000  0  9G29G26G23G21G17G 3G 9G 8G31
  22173508.367   -14092351.64649 -10970640.68446  22173507.480    22173514.364
       227.000         181.000
  24564982.735    14073783.54949  10968939.26445  24564982.317    24564986.332
       207.000         134.000
  21263352.264    -1584971.91649  -1227979.97247  21263351.608    21263357.243
       242.000         206.000
  21508682.838   -17057918.98049 -13279621.06747  21508682.209    21508688.120
       239.000         201.000
  21080710.859    -1687128.18249  -1311758.13147  21080709.738    21080715.990
       238.000         202.000
  21898586.082   -15967515.58049 -12426259.81447  21898585.205    21898591.398
       233.000         189.000
  23868627.007    -8230486.27349  -5894620.24545  23868627.213    23868633.673
       213.000         150.000
  24138798.226    -6467154.08749  -3819841.18845  24138795.949    24138804.115
       206.000         141.000
  24484753.982    -2816498.60449  -2180083.06345  24484752.968    24484760.243
       204.000         142.000
 99  4 26  2 20 30.0000000  0  9G29G26G23G21G17G 3G 9G 8G31
  22156421.278   -14182144.27549 -11040608.84646  22156421.289    22156427.113
       228.000         181.000
  24585363.905    14180889.06849  11052398.05545  24585363.047    24585374.707
       201.000         135.000
  21269631.927    -1551971.84149  -1202265.61247  21269631.121    21269636.604
       242.000         206.000
  21503440.127   -17085469.47449 -13301088.94947  21503439.469    21503445.369
       240.000         201.000
  21087043.935    -1653847.14749  -1285824.85547  21087043.214    21087049.197
       239.000         202.000
  21890455.361   -16010242.93749 -12459553.84747  21890454.744    21890460.294
       235.000         190.000
  23862231.266    -8264096.07349  -5920809.60445  23862230.362    23862237.869
       211.000         149.000
  24124035.402    -6544731.90949  -3880291.27245  24124034.828    24124043.697
       210.000         142.000
  24467930.522    -2904905.90049  -2248971.67745  24467929.935    24467937.487
       210.000         141.000
 99  4 26  2 21  0.0000000  0  9G29G26G23G21G17G 3G 9G 8G31
  22139392.130   -14271632.97549 -11110340.19646  22139391.878    22139398.252
       228.000         182.000
  24605764.949    14288097.04249  11135936.61545  24605766.083    24605772.325
       207.000         141.000
  21275930.688    -1518871.51949  -1176473.13947  21275929.880    21275935.481
       242.000         205.000
  21498225.058   -17112874.77149 -13322443.68547  21498224.399    21498230.248
       240.000         201.000
  21093439.973    -1620235.62949  -1259634.06847  21093439.166    21093445.106
       239.000         201.000
  21882430.070   -16052415.69349 -12492415.71047  21882429.000    21882435.242
       234.000         190.000
  23855909.483    -8297316.43049  -5946695.49845  23855907.679    23855916.141
       210.000         149.000
  24109281.500    -6622264.14649  -3940705.86045  24109280.183    24109289.267
       210.000         143.000
  24451165.805    -2993005.72349  -2317620.79845  24451165.031    24451172.352
       210.000         144.000
 99  4 26  2 21 30.0000000  0  9G29G23G21G17G 3G 9G 8G31G 1
  22122427.219   -14360783.70949 -11179808.19146  22122426.533    22122433.156
       229.000         182.000
  21282259.592    -1485612.61449  -1150557.09347  21282259.159    21282264.454
       242.000         205.000
  21493046.083   -17140090.07149 -13343650.36547  21493045.184    21493051.168
       238.000         201.000
  21099903.169    -1586271.31749  -1233168.37347  21099902.362    21099908.336
       238.000         201.000
  21874519.191   -16093986.78949 -12524808.75947  21874518.286    21874524.518
       235.000         190.000
  23849671.094    -8330097.79649  -5972239.33345  23849669.417    23849677.612
       208.000         148.000
  24094543.174    -6699713.98649  -4001056.26945  24094542.685    24094550.877
       205.000         143.000
  24434464.229    -3080772.65349  -2386010.49945  24434463.473    24434469.514
       210.000         141.000
  24605957.949    -1163794.69149   -889600.08545  24605957.740    24605970.626
       209.000         138.000
 99  4 26  2 22  0.0000000  0  9G29G23G21G17G 3G 9G 8G31G 1
  22105515.316   -14449656.11649 -11249059.30546  22105514.851    22105521.429
       228.000         182.000
  21288609.809    -1452241.90549  -1124553.92847  21288609.093    21288614.764
       241.000         205.000
  21487897.622   -17167145.27849 -13364732.30347  21487896.909    21487902.981
       239.000         201.000
  21106423.574    -1552006.36249  -1206468.41147  21106422.967    21106428.666
       239.000         201.000
  21866713.661   -16135005.37349 -12556771.28447  21866712.710    21866719.129
       235.000         191.000
  23843507.034    -8362488.96249  -5997479.11745  23843506.644    23843513.912
       211.000         149.000
  24079812.986    -6777120.15849  -4061372.55345  24079811.663    24079820.046
       210.000         143.000
  24417818.180    -3168247.79349  -2454172.78045  24417817.257    24417824.373
       208.000         141.000
  24585086.932    -1273470.13249   -975060.96445  24585086.849    24585099.389
       208.000         141.000
 99  4 26  2 22 30.0000000  0  9G29G23G21G17G 3G 9G 8G31G 1
  22088655.366   -14538255.28249 -11318097.50446  22088655.212    22088660.733
       228.000         182.000
  21294978.947    -1418772.03649  -1098473.48947  21294978.303    21294983.623
       242.000         205.000
  21482777.139   -17194053.11949 -13385699.39647  21482776.453    21482782.159
       240.000         201.000
  21112998.405    -1517455.44549  -1179545.61147  21112997.386    21113003.586
       238.000         201.000
  21859011.759   -16175478.56549 -12588308.82547  21859010.682    21859017.022
       235.000         191.000
  23837413.645    -8394510.03549  -6022430.53445  23837413.392    23837419.865
       211.000         148.000
  24065089.154    -6854494.83949  -4121664.37645  24065087.567    24065096.301
       208.000         145.000
  24401224.727    -3255445.96249  -2522119.31345  24401223.744    24401231.255
       211.000         140.000
  24564220.854    -1383124.03149  -1060505.05545  24564219.914    24564231.184
       208.000         139.000
 99  4 26  2 23  0.0000000  0  9G29G23G21G17G 3G 9G 8G31G 1
  22071853.451   -14626549.91049 -11386898.42246  22071852.834    22071859.111
       228.000         183.000
  21301373.763    -1385167.14749  -1072287.86147  21301373.236    21301378.728
       241.000         205.000
  21477693.674   -17220766.71649 -13406515.13947  21477692.963    21477699.092
       239.000         201.000
  21119634.711    -1482581.46349  -1152371.08747  21119634.012    21119640.288
       239.000         201.000
  21851416.507   -16215391.78549 -12619410.04447  21851415.860    21851421.570
       234.000         191.000
  23831400.129    -8426111.91449  -6047055.32745  23831401.024    23831404.893
       213.000         148.000
  24050380.402    -6931789.24949  -4181893.65045  24050379.539    24050387.552
       211.000         144.000
  24384687.947    -3342347.23349  -2589834.44745  24384687.072    24384693.921
       211.000         142.000
  24543364.988    -1492720.54149  -1145904.41545  24543362.963    24543376.494
       209.000         142.000
 99  4 26  2 23 30.0000000  0  9G29G23G21G17G 3G 9G 8G31G 1
  22055109.546   -14714539.24649 -11455461.42346  22055108.736    22055115.307
       229.000         183.000
  21307794.931    -1351423.29149  -1045993.92447  21307794.161    21307799.948
       243.000         205.000
  21472650.683   -17247267.64649 -13427165.15847  21472649.704    21472656.020
       240.000         201.000
  21126336.110    -1447365.51349  -1124930.08047  21126335.452    21126341.312
       240.000         201.000
  21843924.039   -16254765.16949 -12650090.59647  21843923.117    21843929.030
       234.000         191.000
  23825471.410    -8457267.40549  -6071332.27045  23825470.110    23825476.973
       212.000         147.000
  24035690.735    -7008983.40449  -4242044.78745  24035689.558    24035697.363
       209.000         145.000
  24368212.421    -3428926.37949  -2657298.62645  24368211.978    24368218.954
       211.000         140.000
  24522520.984    -1602254.90749  -1231255.25845  24522520.163    24522531.848
       209.000         141.000
 99  4 26  2 24  0.0000000  0  9G29G23G21G17G 3G 9G 8G31G 1
  22038426.792   -14802206.94849 -11523773.81046  22038426.455    22038432.496
       229.000         183.000
  21314242.621    -1317540.39049  -1019591.65247  21314242.007    21314247.720
       241.000         205.000
  21467647.712   -17273557.90549 -13447651.03447  21467647.307    21467652.754
       239.000         201.000
  21133108.599    -1411776.00549  -1097197.99747  21133107.944    21133114.092
       239.000         201.000
  21836536.121   -16293587.73949 -12680341.93947  21836535.871    21836541.747
       234.000         191.000
  23819629.460    -8487966.42749  -6095253.52145  23819628.744    23819635.492
       210.000         147.000
  24021021.353    -7086070.60149  -4302112.57545  24021019.574    24021026.911
       211.000         145.000
  24351798.953    -3515178.82849  -2724508.22645  24351798.011    24351803.998
       211.000         141.000
  24501691.465    -1711713.61449  -1316547.30745  24501690.343    24501701.512
       209.000         139.000
 99  4 26  2 24 30.0000000  0  9G29G23G21G17G 3G 9G 8G31G 1
  22021802.200   -14889569.14749 -11591848.15246  22021801.974    22021807.544
       228.000         183.000
  21320713.304    -1283536.88249   -993095.39347  21320712.668    21320718.218
       241.000         205.000
  21462676.876   -17299679.81949 -13468005.72747  21462676.328    21462681.922
       240.000         201.000
  21139948.045    -1375834.37049  -1069191.51947  21139947.439    21139953.450
       239.000         201.000
  21829248.235   -16331885.69849 -12710184.49347  21829248.156    21829253.929
       234.000         192.000
  23813873.102    -8518215.38749  -6118824.06545  23813872.969    23813878.410
       210.000         147.000
  24006368.251    -7163072.59149  -4362113.95745  24006367.248    24006375.332
       209.000         147.000
  24335442.805    -3601130.03349  -2791483.08945  24335441.484    24335449.068
       209.000         141.000
  24480874.875    -1821103.74849  -1401785.81045  24480874.133    24480886.565
       207.000         143.000
 99  4 26  2 25  0.0000000  0  9G29G23G21G17G 3G 9G 8G31G 1
  22005237.358   -14976617.72349 -11659678.10746  22005237.241    22005243.116
       228.000         184.000
  21327211.067    -1249391.09449   -966488.27347  21327210.609    21327216.036
       241.000         205.000
  21457741.175   -17325616.80949 -13488216.32047  21457740.365    21457746.205
       241.000         201.000
  21146857.802    -1339523.22349  -1040897.11747  21146857.325    21146863.281
       240.000         200.000
  21822061.486   -16369651.73549 -12739612.56547  21822060.782    21822066.923
       235.000         191.000
  23808207.254    -8547989.43949  -6142024.55945  23808207.251    23808214.054
       213.000         149.000
  23991734.970    -7239970.20649  -4422034.04545  23991734.588    23991742.292
       212.000         146.000
  24319147.525    -3686761.11749  -2858208.49645  24319146.295    24319153.261
       208.000         140.000
  24460077.382    -1930393.75549  -1486946.24745  24460076.002    24460088.922
       209.000         144.000
 99  4 26  2 25 30.0000000  0  9G29G23G21G17G 3G 9G 8G31G 1
  21988735.617   -15063334.29549 -11727249.35546  21988734.896    21988741.295
       230.000         184.000
  21333737.412    -1215094.69749   -939763.79347  21333736.791    21333742.066
       241.000         204.000
  21452838.268   -17351381.51149 -13508292.67747  21452837.859    21452843.505
       240.000         202.000
  21153837.191    -1302846.20549  -1012317.61747  21153836.464    21153842.508
       239.000         200.000
  21814978.646   -16406872.67449 -12768615.88147  21814978.365    21814984.089
       235.000         192.000
  23802630.617    -8577296.09349  -6164860.85645  23802630.961    23802636.533
       214.000         152.000
  23977120.496    -7316769.54749  -4481877.53945  23977119.016    23977126.699
       212.000         146.000
  24302916.657    -3772054.03649  -2924670.41345  24302915.592    24302922.290
       209.000         139.000
  24439297.984    -2039588.61849  -1572032.69345  24439296.607    24439308.110
       205.000         141.000
 99  4 26  2 26  0.0000000  0  9G29G23G21G17G 3G 9G 8G31G 1
  21972298.418   -15149711.84649 -11794556.43746  21972298.025    21972304.054
       229.000         185.000
  21340291.130    -1180654.93049   -912927.59647  21340290.344    21340295.879
       241.000         204.000
  21447965.610   -17376987.49649 -13528245.35247  21447964.643    21447970.656
       239.000         202.000
  21160880.035    -1265835.90549   -983478.41647  21160879.428    21160885.784
       238.000         200.000
  21807999.187   -16443550.77449 -12797196.19947  21807998.447    21808004.602
       234.000         192.000
  23797136.835    -8606166.18649  -6187356.98245  23797135.166    23797143.051
       211.000         150.000
  23962525.068    -7393469.15749  -4541643.35545  23962524.250    23962531.796
       212.000         148.000
  24286749.303    -3857014.19949  -2990873.10045  24286749.253    24286754.832
       210.000         138.000
  24418539.969    -2148670.13549  -1657030.76345  24418538.677    24418551.299
       208.000         141.000
 99  4 26  2 26 30.0000000  0  9G29G23G21G17G 3G 9G 8G31G 1
  21955921.878   -15235770.41949 -11861614.96846  21955921.442    21955927.340
       231.000         185.000
  21346868.001    -1146092.96449   -885996.18247  21346867.161    21346872.781
       241.000         204.000
  21443122.754   -17402436.47249 -13548075.68447  21443122.425    21443128.124
       240.000         202.000
  21167979.176    -1228529.80049   -954408.72347  21167977.974    21167984.236
       239.000         200.000
  21801118.139   -16479709.91449 -12825372.13347  21801117.550    21801123.823
       234.000         192.000
  23791721.412    -8634623.33349  -6209531.29345  23791720.045    23791728.392
       211.000         149.000
  23947947.923    -7470072.24549  -4601333.88645  23947947.981    23947955.186
       213.000         151.000
  24270647.164    -3941631.67349  -3056808.73545  24270646.201    24270653.259
       211.000         141.000
  24397802.685    -2257645.30849  -1741945.92845  24397800.894    24397814.066
       206.000         148.000
 99  4 26  2 27  0.0000000  0  9G29G23G21G17G 3G 9G 8G31G 1
  21939607.113   -15321504.66349 -11928420.77146  21939606.496    21939613.075
       230.000         185.000
  21353467.330    -1111412.93649   -858972.77847  21353466.583    21353472.380
       241.000         204.000
  21438311.095   -17427721.68649 -13567778.41947  21438310.486    21438316.275
       241.000         202.000
  21175136.229    -1190919.26849   -925101.81947  21175135.339    21175141.149
       239.000         200.000
  21794336.791   -16515345.87549 -12853140.40147  21794336.485    21794342.702
       234.000         192.000
  23786383.648    -8662672.20649  -6231387.49445  23786383.859    23786390.187
       212.000         149.000
  23933388.378    -7546582.36849  -4660952.04545  23933387.960    23933395.050
       213.000         149.000
  24254611.761    -4025898.27849  -3122470.94745  24254610.543    24254617.224
       211.000         140.000
  24377082.414    -2366527.62649  -1826788.70945  24377080.858    24377091.339
       210.000         141.000
 99  4 26  2 27 30.0000000  0  9G29G23G21G17G 3G 9G 8G31G 1
  21923356.507   -15406901.35349 -11994963.55546  21923356.576    21923362.368
       229.000         186.000
  21360090.319    -1076608.74949   -831852.61847  21360089.538    21360095.129
       241.000         204.000
  21433534.596   -17452822.61049 -13587337.54347  21433534.013    21433539.811
       240.000         202.000
  21182356.636    -1152975.73149   -895535.42647  21182355.600    21182361.797
       238.000         200.000
  21787658.910   -16550438.40349 -12880485.19847  21787658.368    21787664.689
       234.000         192.000
  23781127.123    -8690295.93749  -6252912.39745  23781126.729    23781134.151
       213.000         150.000
  23918850.224    -7622980.30449  -4720482.82545  23918848.506    23918855.718
       209.000         147.000
  24238646.582    -4109795.30149  -3187845.17245  24238644.855    24238653.161
       211.000         142.000
  24356383.300    -2475300.43649  -1911546.37145  24356382.108    24356394.110
       212.000         143.000
 99  4 26  2 28  0.0000000  0  9G29G23G21G17G 3G 9G 8G31G 1
  21907162.141   -15492003.07549 -12061276.48546  21907161.728    21907167.821
       231.000         186.000
  21366730.745    -1041712.72149   -804660.89647  21366730.091    21366735.442
       241.000         204.000
  21428790.188   -17477754.71049 -13606765.12347  21428789.468    21428795.311
       240.000         202.000
  21189638.778    -1114707.80449   -865716.26447  21189637.829    21189643.768
       239.000         200.000
  21781079.135   -16585015.60849 -12907428.44347  21781078.373    21781084.633
       234.000         192.000
  23775948.358    -8717510.90349  -6274118.82945  23775948.054    23775954.741
       214.000         151.000
  23904330.969    -7699278.17949  -4779935.56945  23904330.576    23904338.986
       212.000         151.000
  24222746.145    -4193352.26949  -3252954.49345  24222746.052    24222752.400
       215.000         141.000
  24335702.956    -2583974.23449  -1996226.70545  24335700.415    24335714.157
       205.000         144.000
 99  4 26  2 28 30.0000000  0  9G29G23G21G17G 3G 9G 8G31G 1
  21891026.563   -15576795.64749 -12127348.50846  21891025.848    21891032.294
       230.000         186.000
  21373391.123    -1006712.40349   -777387.91347  21373390.580    21373395.870
       241.000         204.000
  21424080.168   -17502505.19149 -13626051.17647  21424079.458    21424085.579
       241.000         202.000
  21196990.491    -1076074.39949   -835612.31847  21196989.669    21196995.803
       238.000         199.000
  21774602.576   -16619050.52349 -12933949.12647  21774601.897    21774608.094
       234.000         192.000
  23770854.021    -8744281.76649  -6294979.15645  23770853.261    23770860.911
       213.000         152.000
  23889832.783    -7775466.09549  -4839302.65045  23889831.774    23889839.360
       209.000         149.000
  24206909.458    -4276574.95449  -3317803.33445  24206908.556    24206915.158
       212.000         143.000
  24315040.252    -2692554.77649  -2080834.37245  24315036.800    24315050.114
       209.000         141.000
 99  4 26  2 29  0.0000000  0  9G29G23G21G17G 3G 9G 8G31G 1
  21874954.366   -15661255.07749 -12193160.96146  21874954.154    21874960.335
       228.000         186.000
  21380073.059     -971598.84149   -750026.69147  21380072.294    21380078.088
       241.000         203.000
  21419406.552   -17527065.32349 -13645188.92347  21419406.084    21419411.816
       241.000         202.000
  21204418.110    -1037042.02149   -805197.49047  21204417.177    21204423.086
       238.000         199.000
  21768233.969   -16652517.24649 -12960027.05947  21768233.466    21768239.924
       236.000         192.000
  23765847.513    -8770591.31349  -6315480.04145  23765847.326    23765853.653
       215.000         153.000
  23875359.641    -7851521.96849  -4898566.84445  23875358.933    23875366.435
       213.000         150.000
  24191134.752    -4359471.35649  -3382397.92945  24191133.537    24191139.846
       215.000         143.000
  24294395.128    -2801043.81249  -2165370.86545  24294394.321    24294404.259
       209.000         142.000
 99  4 26  2 29 30.0000000  0  9G29G23G21G17G 3G 9G 8G31G 1
  21858947.344   -15745372.33649 -12258706.77046  21858947.066    21858952.879
       230.000         186.000
  21386775.960     -936374.64349   -722579.25347  21386775.264    21386780.778
       240.000         203.000
  21414769.311   -17551434.28649 -13664177.70547  21414768.984    21414774.495
       240.000         202.000
  21211918.794     -997625.23949   -774483.12247  21211917.985    21211923.964
       238.000         199.000
  21761974.990   -16685408.25049 -12985656.37947  21761973.979    21761980.761
       233.000         192.000
  23760929.143    -8796437.08849  -6335619.52745  23760927.552    23760934.770
       209.000         152.000
  23860915.692    -7927426.00349  -4957712.76445  23860914.453    23860922.742
       209.000         150.000
  24175423.070    -4442037.00449  -3446734.74345  24175422.253    24175429.106
       215.000         145.000
  24273771.525    -2909420.31349  -2249819.64345  24273769.019    24273781.385
       203.000         141.000
 99  4 26  2 30  0.0000000  0  9G29G23G21G17G 3G 9G 8G31G 1
  21843009.299   -15829126.98549 -12323970.04646  21843009.169    21843014.868
       229.000         187.000
  21393498.157     -901049.24649   -695052.96147  21393497.750    21393503.016
       239.000         203.000
  21410165.554   -17575627.16849 -13683029.27547  21410164.951    21410170.751
       241.000         203.000
  21219488.554     -957845.74349   -743486.11947  21219487.594    21219493.848
       238.000         199.000
  21755826.581   -16717717.78649 -13010832.62047  21755826.195    21755832.095
       236.000         192.000
  23756098.501    -8821820.91649  -6355399.04945  23756096.547    23756103.925
       212.000         149.000
  23846501.103    -8003173.03849  -5016736.29745  23846499.832    23846507.067
       209.000         147.000
  24159775.356    -4524265.77749  -3510809.13745  24159773.837    24159781.297
       212.000         146.000
  24253168.094    -3017689.25149  -2334184.58245  24253166.262    24253178.092
       211.000         143.000
 99  4 26  2 30 30.0000000  0  9G29G23G21G17G 3G 9G 8G31G 1
  21827142.151   -15912509.09249 -12388943.01746  21827141.814    21827147.708
       231.000         187.000
  21400237.930     -865631.34249   -667454.58447  21400237.294    21400242.792
       239.000         203.000
  21405594.019   -17599651.18249 -13701749.26247  21405592.996    21405599.292
       240.000         203.000
  21227124.880     -917716.87649   -712216.88547  21227124.298    21227130.113
       238.000         198.000
  21749788.756   -16749447.98849 -13035557.41647  21749787.895    21749794.070
       233.000         193.000
  23751354.989    -8846747.41249  -6374822.21845  23751353.800    23751361.917
       210.000         147.000
  23832114.333    -8078775.48049  -5075647.17745  23832113.871    23832122.026
       211.000         151.000
  24144193.009    -4606151.44149  -3574616.11245  24144193.203    24144199.594
       216.000         150.000
  24232583.208    -3125862.59149  -2418475.07645  24232581.223    24232593.624
       208.000         147.000
 99  4 26  2 31  0.0000000  0  9G29G23G21G17G 3G 9G 8G31G 1
  21811344.650   -15995525.28349 -12453630.86046  21811344.161    21811350.666
       230.000         187.000
  21406995.798     -830118.49049   -639782.22347  21406995.126    21407000.686
       240.000         203.000
  21401055.745   -17623499.87649 -13720332.64347  21401055.158    21401060.881
       241.000         203.000
  21234825.357     -877250.96349   -680685.01247  21234824.737    21234830.438
       239.000         198.000
  21743858.545   -16780609.99649 -13059839.45947  21743857.910    21743864.285
       235.000         193.000
  23746697.748    -8871220.15749  -6393891.82345  23746697.813    23746702.809
       211.000         148.000
  23817752.854    -8154245.43949  -5134454.80945  23817752.523    23817758.756
       211.000         150.000
  24128682.752    -4687658.54149  -3638128.17445  24128682.780    24128689.121
       213.000         147.000
  24212019.848    -3233921.76049  -2502676.59945  24212018.638    24212030.202
       208.000         144.000
 99  4 26  2 31 30.0000000  0  9G29G23G21G17G 3G 9G 8G31G 1
  21795612.930   -16078195.90849 -12518049.43347  21795612.521    21795618.212
       232.000         188.000
  21413772.201     -794508.31549   -612034.01847  21413771.544    21413776.985
       239.000         203.000
  21396545.706   -17647200.32449 -13738800.50047  21396544.930    21396550.665
       240.000         203.000
  21242585.804     -836469.68749   -648907.40547  21242584.865    21242591.011
       238.000         198.000
  21738032.549   -16811225.99949 -13083696.05647  21738032.373    21738038.045
       236.000         193.000
  23742124.173    -8895253.94849  -6412619.38245  23742122.860    23742129.942
       213.000         147.000
  23803412.189    -8229605.82149  -5193177.08545  23803410.662    23803418.676
       209.000         149.000
  24113246.127    -4768779.08949  -3701338.98845  24113244.188    24113252.043
       211.000         148.000
  24191478.351    -3341865.61749  -2586788.33045  24191477.279    24191488.146
       208.000         141.000
 99  4 26  2 32  0.0000000  0  9G29G23G21G17G 3G 9G 8G31G 1
  21779945.591   -16160528.09349 -12582204.29247  21779944.618    21779950.853
       231.000         188.000
  21420568.995     -758790.80249   -584202.18247  21420568.469    21420573.971
       239.000         203.000
  21392065.783   -17670742.15049 -13757144.75447  21392065.101    21392071.172
       241.000         203.000
  21250410.718     -795349.24349   -616865.51547  21250410.197    21250416.104
       238.000         198.000
  21732309.922   -16841298.78749 -13107129.36347  21732309.036    21732315.151
       233.000         193.000
  23737635.967    -8918840.14249  -6430998.18745  23737637.126    23737640.978
       213.000         150.000
  23789090.887    -8304864.47649  -5251820.07145  23789091.195    23789097.755
       214.000         150.000
  24097883.476    -4849510.29049  -3764246.39145  24097883.183    24097889.330
       213.000         148.000
  24170957.604    -3449701.19449  -2670815.61645  24170957.864    24170968.335
       216.000         150.000
 99  4 26  2 32 30.0000000  0  9G29G23G21G17G 3G 9G 8G31G 1
  21764338.220   -16242545.02449 -12646113.49347  21764337.543    21764343.605
       232.000         189.000
  21427387.776     -722957.89249   -556280.41447  21427386.889    21427392.501
       240.000         203.000
  21387616.443   -17694123.29149 -13775363.78847  21387615.762    21387621.454
       241.000         203.000
  21258300.274     -753889.32749   -584559.09147  21258299.236    21258305.279
       238.000         198.000
  21726687.475   -16870844.21649 -13130151.74547  21726687.717    21726693.322
       237.000         193.000
  23733231.879    -8941984.05349  -6449032.32345  23733232.395    23733238.447
       215.000         152.000
  23774787.629    -8380029.90949  -5310390.43845  23774786.358    23774793.620
       210.000         151.000
  24082592.026    -4929867.21149  -3826862.12445  24082591.819    24082598.346
       215.000         148.000
  24150456.535    -3557434.80349  -2754763.48745  24150454.998    24150465.924
       211.000         149.000
 99  4 26  2 33  0.0000000  0  9G29G23G21G17G 3G 9G 8G31G 1
  21748792.763   -16324236.17649 -12709768.85047  21748792.015    21748798.035
       233.000         189.000
  21434233.409     -686983.58149   -528248.46947  21434232.709    21434238.290
       240.000         202.000
  21383199.619   -17717333.53349 -13793449.67747  21383199.129    21383204.786
       242.000         203.000
  21266257.199     -712075.64249   -551977.00747  21266256.537    21266262.347
       238.000         198.000
  21721171.716   -16899830.72749 -13152738.61647  21721171.086    21721176.999
       237.000         193.000
  23728916.707    -8964660.73249  -6466702.39345  23728916.313    23728922.286
       215.000         154.000
  23760508.887    -8455063.20849  -5368857.79345  23760507.603    23760516.069
       211.000         150.000
  24067374.563    -5009835.51649  -3889175.05045  24067373.334    24067379.771
       213.000         149.000
  24129977.084    -3665053.41249  -2838621.80745  24129976.565    24129985.272
       215.000         142.000
 99  4 26  2 33 30.0000000  0  9G29G23G21G17G 3G 9G 8G31G 1
  21733309.265   -16405602.35349 -12773170.98847  21733308.813    21733314.775
       232.000         189.000
  21441102.472     -650886.27549   -500120.69147  21441101.884    21441107.380
       239.000         202.000
  21378811.765   -17740391.60849 -13811416.98447  21378811.247    21378816.839
       240.000         203.000
  21274277.847     -669926.60749   -519133.61247  21274277.004    21274282.823
       237.000         198.000
  21715761.344   -16928262.39149 -13174893.13747  21715760.762    21715766.360
       234.000         193.000
  23724688.209    -8986881.92549  -6484017.52945  23724688.100    23724695.328
       214.000         156.000
  23746258.458    -8529949.81749  -5427210.88945  23746257.568    23746264.445
       211.000         150.000
  24052223.082    -5089456.54349  -3951217.36545  24052222.753    24052228.006
       211.000         148.000
  24109513.986    -3772586.98049  -2922413.91245  24109512.552    24109523.051
       215.000         147.000
 99  4 26  2 34  0.0000000  0  9G29G23G21G17G 3G 9G 8G31G 1
  21717889.943   -16486631.15549 -12836310.23347  21717889.258    21717895.438
       234.000         190.000
  21447994.580     -614667.93349   -471898.59347  21447993.753    21447999.105
       240.000         202.000
  21374457.611   -17763272.85849 -13829246.50447  21374456.941    21374462.281
       240.000         203.000
  21282363.733     -627435.16749   -486023.40147  21282362.917    21282368.713
       238.000         198.000
  21710462.033   -16956108.88549 -13196591.69547  21710462.320    21710467.502
       236.000         194.000
  23720551.806    -9008618.16349  -6500954.78345  23720549.945    23720558.060
       211.000         154.000
  23732038.766    -8604674.74949  -5485437.99745  23732036.253    23732045.219
       208.000         150.000
  24037138.829    -5168724.01649  -4012984.17345  24037137.736    24037145.608
       207.000         147.000
  24089069.248    -3880023.59949  -3006130.32445  24089066.077    24089078.228
       211.000         150.000
 99  4 26  2 34 30.0000000  0  9G29G23G21G17G 3G 9G 8G31G 1
  21702539.615   -16567297.44249 -12899167.00047  21702539.015    21702545.017
       233.000         190.000
  21454912.623     -578313.43049   -443570.39647  21454911.644    21454917.314
       240.000         202.000
  21370138.970   -17785967.02949 -13846930.23447  21370138.371    21370144.285
       241.000         203.000
  21290516.507     -584592.05749   -452639.15947  21290515.743    21290521.801
       238.000         198.000
  21705280.519   -16983339.22249 -13217810.09847  21705280.077    21705286.154
       237.000         194.000
  23716512.589    -9029842.95449  -6517493.46345  23716511.321    23716519.456
       212.000         154.000
  23717853.772    -8679215.31849  -5543521.43645  23717852.173    23717860.319
       210.000         150.000
  24022127.048    -5247610.24849  -4074453.85045  24022126.798    24022131.969
       213.000         146.000
  24068647.421    -3987339.34349  -3089752.71845  24068645.384    24068655.974
       214.000         145.000
 99  4 26  2 35  0.0000000  0  9G29G23G21G17G 3G 9G 8G31G 1
  21687254.651   -16647620.58249 -12961756.38247  21687254.216    21687259.711
       232.000         190.000
  21461848.105     -541867.52349   -415170.97647  21461847.252    21461852.764
       240.000         202.000
  21365850.353   -17808504.23749 -13864491.66647  21365849.690    21365855.414
       241.000         203.000
  21298730.555     -541427.23649   -419004.23447  21298729.756    21298735.863
       238.000         198.000
  21700208.989   -17009989.51649 -13238576.55647  21700208.578    21700214.108
       236.000         194.000
  23712565.017    -9050587.35349  -6533657.84445  23712564.463    23712571.480
       212.000         153.000
  23703696.037    -8753614.66849  -5601494.83445  23703695.673    23703702.089
       211.000         150.000
  24007183.411    -5326140.25549  -4135646.04145  24007182.863    24007188.742
       211.000         148.000
  24048244.670    -4094555.85649  -3173297.77845  24048241.209    24048253.268
       208.000         147.000
 99  4 26  2 35 30.0000000  0  9G29G23G21G17G 3G 9G 8G31G 1
  21672040.182   -16727572.62449 -13024056.59347  21672040.049    21672045.871
       232.000         191.000
  21468804.371     -505312.03649   -386686.16847  21468803.816    21468809.213
       239.000         202.000
  21361596.822   -17830856.79249 -13881909.20647  21361596.445    21361601.887
       242.000         204.000
  21307013.032     -497902.53349   -385088.87947  21307012.302    21307018.340
       237.000         198.000
  21695248.725   -17036055.86949 -13258887.97547  21695248.752    21695254.341
       237.000         194.000
  23708713.277    -9070828.55649  -6549430.14545  23708712.820    23708719.889
       215.000         153.000
  23689566.866    -8827864.20149  -5659351.52845  23689564.806    23689573.407
       208.000         150.000
  23992312.550    -5404286.66349  -4196539.28545  23992310.699    23992317.943
       205.000         147.000
  24027869.224    -4201628.21749  -3256730.43745  24027866.414    24027877.393
       212.000         150.000
 99  4 26  2 36  0.0000000  0  9G29G23G21G17G 3G 9G 8G31G 1
  21656893.213   -16807170.07249 -13086080.49647  21656892.675    21656898.662
       233.000         191.000
  21475776.976     -468670.46949   -358134.28447  21475776.269    21475782.167
       239.000         202.000
  21357374.417   -17853046.02149 -13899199.48147  21357373.568    21357379.194
       242.000         203.000
  21315362.988     -454022.98349   -350897.01947  21315362.182    21315368.303
       237.000         197.000
  21690393.775   -17061569.77949 -13278768.92747  21690393.313    21690399.114
       237.000         195.000
  23704953.649    -9090584.96249  -6564824.68145  23704952.763    23704958.607
       212.000         152.000
  23675460.347    -8901993.09449  -5717114.14945  23675459.031    23675467.837
       210.000         151.000
  23977513.578    -5482055.12749  -4257137.99445  23977512.164    23977519.713
       206.000         149.000
  24007520.674    -4308559.20149  -3340053.01345  24007518.241    24007528.619
       208.000         150.000
 99  4 26  2 36 30.0000000  0  9G29G23G21G17G 3G 9G 8G31G 1
  21641819.515   -16886382.44449 -13147804.34047  21641818.960    21641824.951
       233.000         191.000
  21482768.370     -431930.47849   -329505.70947  21482767.699    21482773.029
       239.000         202.000
  21353183.392   -17875069.55749 -13916360.64447  21353182.379    21353188.047
       242.000         203.000
  21323784.049     -409769.84749   -316414.05247  21323783.232    21323788.887
       237.000         197.000
  21685641.258   -17086543.93949 -13298229.30047  21685640.643    21685646.594
       237.000         195.000
  23701284.824    -9109865.24349  -6579848.22645  23701284.832    23701290.003
       214.000         152.000
  23661380.440    -8975983.10749  -5774768.59245  23661380.447    23661387.505
       215.000         153.000
  23962788.238    -5559435.87549  -4317434.58345  23962788.757    23962795.350
       213.000         150.000
  23987201.719    -4415334.52549  -3423254.29545  23987200.107    23987209.989
       215.000         149.000
 99  4 26  2 37  0.0000000  0  9G29G23G21G17G 3G 9G 8G31G 1
  21626823.387   -16965187.14449 -13209210.52247  21626822.652    21626828.649
       233.000         192.000
  21489781.574     -395075.94649   -300787.88347  21489780.954    21489786.276
       239.000         202.000
  21349025.310   -17896920.00949 -13933386.93847  21349024.528    21349030.512
       242.000         203.000
  21332280.576     -365120.28549   -281622.18247  21332279.710    21332286.007
       238.000         197.000
  21680992.478   -17110973.83449 -13317265.57047  21680992.331    21680997.500
       238.000         195.000
  23697707.787    -9128662.86849  -6594495.68145  23697707.439    23697711.494
       216.000         151.000
  23647334.638    -9049794.71649  -5832284.05845  23647332.742    23647339.841
       213.000         151.000
  23948139.678    -5636414.94849  -4377418.24245  23948138.619    23948145.731
       210.000         148.000
  23966916.911    -4521931.06749  -3506316.31745  23966913.781    23966925.514
       208.000         149.000
 99  4 26  2 37 30.0000000  0  9G29G23G21G17G 3G 9G 8G31G 1
  21611900.445   -17043607.18949 -13270316.97447  21611900.243    21611905.818
       232.000         192.000
  21496813.549     -358122.60149   -271993.06147  21496812.826    21496818.239
       239.000         201.000
  21344894.426   -17918628.06049 -13950302.26647  21344893.808    21344899.606
       241.000         204.000
  21340848.665     -320094.66749   -246537.28247  21340847.838    21340853.577
       237.000         196.000
  21676446.247   -17134864.68649 -13335881.80147  21676445.289    21676450.939
       237.000         195.000
  23694219.375    -9146994.38749  -6608779.92445  23694218.664    23694225.228
       213.000         151.000
  23633322.494    -9123427.59849  -5889660.21045  23633320.023    23633329.767
       212.000         150.000
  23933565.107    -5713004.35149  -4437098.18645  23933564.178    23933571.623
       214.000         150.000
  23946662.266    -4628367.72549  -3589253.64945  23946661.181    23946671.470
       213.000         153.000
 99  4 26  2 38  0.0000000  0  9G29G23G21G17G 3G 9G 8G31G 1
  21597051.730   -17121637.20949 -13331119.51047  21597051.402    21597056.602
       233.000         192.000
  21503864.170     -321071.39649   -243121.98247  21503863.555    21503868.871
       239.000         201.000
  21340791.808   -17940187.26649 -13967101.61047  21340791.058    21340796.626
       242.000         204.000
  21349485.014     -274710.36749   -211172.89047  21349484.170    21349490.460
       237.000         196.000
  21672005.908   -17158198.51649 -13354063.99647  21672005.393    21672011.414
       238.000         195.000
  23690818.088    -9164867.10349  -6622706.66845  23690817.728    23690824.020
       212.000         150.000
  23619346.576    -9196871.54949  -5946889.14345  23619347.236    23619353.309
       214.000         154.000
  23919065.178    -5789202.66349  -4496473.47545  23919063.877    23919070.890
       209.000         150.000
  23926437.751    -4734647.88449  -3672069.10145  23926435.383    23926445.958
       209.000         155.000
 99  4 26  2 38 30.0000000  0  9G29G23G21G17G 3G 9G 8G31G 1
  21582276.247   -17199282.74349 -13391622.44747  21582275.921    21582281.282
       235.000         192.000
  21510937.432     -283901.22849   -214158.21047  21510936.978    21510942.347
       239.000         201.000
  21336720.220   -17961583.50349 -13983773.97247  21336719.217    21336724.999
       241.000         204.000
  21358191.479     -228957.71949   -175521.47847  21358190.622    21358196.982
       235.000         196.000
  21667676.886   -17180947.24049 -13371790.26147  21667675.850    21667682.188
       236.000         195.000
  23687507.894    -9182262.13049  -6636261.15345  23687506.071    23687513.869
       211.000         151.000
  23605411.258    -9270101.91349  -6003951.68145  23605410.664    23605417.187
       212.000         151.000
  23904642.649    -5864992.77949  -4555530.63245  23904640.592    23904648.913
       208.000         149.000
  23906246.449    -4840751.37049  -3754746.84145  23906244.571    23906254.470
       214.000         150.000
 99  4 26  2 39  0.0000000  0  9G29G23G21G17G 3G 9G 8G31G 1
  21567561.457   -17276609.36649 -13451876.88347  21567561.478    21567566.513
       234.000         193.000
  21518025.348     -246653.96549   -185134.36547  21518024.701    21518030.020
       239.000         201.000
  21332672.179   -17982855.61949 -14000349.61647  21332671.419    21332677.122
       242.000         203.000
  21366957.902     -182889.86649   -139624.45047  21366957.033    21366963.153
       236.000         196.000
  21663455.069   -17203132.23549 -13389077.25747  21663454.862    21663460.489
       237.000         195.000
  23684283.247    -9199206.84949  -6649464.77945  23684282.193    23684289.912
       212.000         152.000
  23591508.741    -9343159.48449  -6060879.53645  23591507.939    23591514.861
       214.000         151.000
  23890290.326    -5940414.67449  -4614300.86045  23890289.377    23890296.507
       213.000         152.000
  23886081.106    -4946720.61449  -3837320.03445  23886079.601    23886089.590
       214.000         155.000
 99  4 26  2 39 30.0000000  0  9G29G23G21G17G 3G 9G 8G31G 1
  21552909.195   -17353607.16249 -13511875.09647  21552908.942    21552914.291
       233.000         193.000
  21525129.702     -209319.95649   -156042.91947  21525128.913    21525134.355
       239.000         201.000
  21328653.781   -18003972.68149 -14016804.43847  21328652.971    21328658.717
       242.000         203.000
  21375784.087     -136507.69849   -103482.50047  21375783.463    21375789.689
       236.000         195.000
  21659345.009   -17224731.06349 -13405907.49947  21659344.378    21659350.223
       236.000         195.000
  23681147.531    -9215684.82149  -6662304.67145  23681146.214    23681154.570
       212.000         153.000
  23577638.458    -9416048.49349  -6117676.07645  23577637.621    23577644.818
       215.000         153.000
  23876010.025    -6015458.47949  -4672776.52745  23876008.014    23876014.592
       211.000         151.000
  23865942.237    -5052549.57849  -3919783.76945  23865939.994    23865950.453
       211.000         153.000
 99  4 26  2 40  0.0000000  0  9G29G23G21G17G 3G 9G 8G31G 1
  21538321.042   -17430268.38249 -13571611.02747  21538320.951    21538326.191
       234.000         193.000
  21532253.501     -171884.40149   -126872.34947  21532252.822    21532258.276
       239.000         201.000
  21324666.970   -18024923.12049 -14033129.42147  21324665.971    21324672.083
       241.000         204.000
  21384673.383      -89793.98249    -67082.20147  21384672.669    21384678.390
       235.000         195.000
  21655347.518   -17245737.45849 -13422276.10447  21655347.365    21655353.193
       236.000         195.000
  23678102.441    -9231686.60649  -6674773.54045  23678101.641    23678109.913
       211.000         154.000
  23563803.785    -9488750.15649  -6174326.60945  23563801.510    23563810.718
       210.000         151.000
  23861803.991    -6090110.98049  -4730947.23445  23861803.457    23861810.022
       212.000         153.000
  23845831.398    -5158232.19449  -4002133.62445  23845829.166    23845838.601
       213.000         152.000
 99  4 26  2 40 30.0000000  0  9G29G23G21G17G 3G 9G 8G31G 1
  21523795.597   -17506599.80549 -13631089.99547  21523795.017    21523800.536
       233.000         193.000
  21539394.650     -134357.49549    -97630.60647  21539394.088    21539399.462
       239.000         201.000
  21320706.565   -18045734.76449 -14049346.26347  21320705.982    21320711.411
       242.000         204.000
  21393626.699      -42743.98849    -30419.88347  21393625.851    21393632.084
       236.000         195.000
  21651460.367   -17266165.61949 -13438194.13647  21651459.536    21651465.676
       236.000         195.000
  23675147.225    -9247215.92249  -6686874.24845  23675147.097    23675153.311
       214.000         154.000
  23550003.062    -9561272.55149  -6230837.45245  23550002.782    23550008.391
       216.000         151.000
  23847671.583    -6164377.36149  -4788817.06645  23847671.870    23847677.579
       216.000         154.000
  23825744.699    -5263786.43249  -4084383.39045  23825742.981    23825752.691
       213.000         150.000
 99  4 26  2 41  0.0000000  0  9G29G23G21G17G 3G 9G 8G31G 1
  21509344.527   -17582539.90849 -13690264.02447  21509343.941    21509349.644
       233.000         193.000
  21546558.530      -96711.08049    -68295.73047  21546557.958    21546563.689
       239.000         201.000
  21316778.358   -18066377.81749 -14065431.73347  21316777.952    21316783.248
       241.000         204.000
  21402651.336        4680.51149      6534.26447  21402650.713    21402656.601
       235.000         195.000
  21647687.980   -17285988.67849 -13453640.66447  21647687.308    21647693.542
       235.000         195.000
  23672287.869    -9262242.87149  -6698583.50745  23672286.567    23672294.899
       214.000         155.000
  23536241.491    -9633590.63749  -6287189.13545  23536239.820    23536246.849
       214.000         153.000
  23833619.146    -6238224.35049  -4846360.16845  23833619.249    23833625.104
       216.000         156.000
  23805685.383    -5369197.81449  -4166521.81045  23805683.119    23805694.230
       210.000         154.000
 99  4 26  2 41 30.0000000  0  9G29G23G21G17G 3G 9G 8G31G 1
  21494967.176   -17658093.17649 -13749136.62747  21494966.614    21494972.365
       235.000         194.000
  21553741.070      -58966.50449    -38884.36247  21553739.936    21553745.520
       240.000         201.000
  21312876.971   -18086879.96549 -14081407.39347  21312876.213    21312881.537
       243.000         204.000
  21411747.310       52480.27949     43780.83547  21411746.476    21411752.620
       236.000         195.000
  21644025.894   -17305233.40449 -13468636.54547  21644025.253    21644030.899
       238.000         195.000
  23669519.379    -9276790.43349  -6709919.20545  23669518.673    23669525.436
       215.000         154.000
  23522514.536    -9705724.76649  -6343397.40045  23522512.294    23522521.419
       212.000         152.000
  23819644.074    -6311664.38749  -4903586.12045  23819643.884    23819648.958
       219.000         156.000
  23785651.271    -5474476.35649  -4248556.75545  23785650.956    23785659.697
       218.000         154.000
 99  4 26  2 42  0.0000000  0  9G29G23G21G17G 3G 9G 8G31G 1
  21480668.552   -17733232.49249 -13807686.67247  21480668.043    21480673.926
       234.000         194.000
  21560945.761      -21105.42349     -9382.21547  21560944.878    21560950.446
       239.000         201.000
  21309002.309   -18107241.04449 -14097273.13647  21309001.695    21309007.242
       242.000         204.000
  21420921.070      100688.96949     81346.04147  21420920.245    21420926.871
       235.000         194.000
  21640476.983   -17323882.74649 -13483168.49447  21640476.670    21640482.457
       236.000         195.000
  23666846.079    -9290838.36849  -6720865.59845  23666844.854    23666852.254
       212.000         152.000
  23508825.670    -9777659.92649  -6399450.65245  23508825.149    23508832.541
       214.000         154.000
  23805750.251    -6384677.02749  -4960479.04345  23805750.182    23805754.871
       219.000         156.000
  23765645.512    -5579606.39949  -4330476.00145  23765644.906    23765653.449
       215.000         152.000
 99  4 26  2 42 30.0000000  0  9G29G23G21G17G 3G 9G 8G31G 1
  21466453.855   -17807930.40849 -13865892.76847  21466453.533    21466458.900
       234.000         194.000
  21568172.376       16870.70849     20209.57847  21568171.675    21568176.943
       238.000         200.000
  21305157.193   -18127447.50849 -14113018.40847  21305156.317    21305161.885
       241.000         204.000
  21430172.034      149303.33849    119227.35847  21430171.331    21430177.395
       234.000         194.000
  21637042.135   -17341933.27249 -13497233.82447  21637041.558    21637047.619
       237.000         195.000
  23664271.285    -9304368.51449  -6731408.51045  23664270.626    23664277.390
       209.000         150.000
  23495172.960    -9849404.54349  -6455355.45245  23495172.301    23495177.084
       216.000         151.000
  23791938.762    -6457257.53649  -5017035.23545  23791937.664    23791943.417
       214.000         155.000
  23745670.918    -5684573.21849  -4412268.03645  23745668.836    23745678.396
       210.000         154.000
 99  4 26  2 43  0.0000000  0  9G29G23G21G17G 3G 9G 8G31G 1
  21452322.650   -17882190.16749 -13923757.44747  21452322.096    21452327.932
       234.000         194.000
  21575418.858       54951.51849     49882.94547  21575418.079    21575423.755
       237.000         200.000
  21301342.867   -18147491.65149 -14128637.19947  21301342.148    21301347.826
       242.000         204.000
  21439496.589      198303.92149    157409.63047  21439495.656    21439502.206
       234.000         194.000
  21633718.919   -17359396.82249 -13510841.77947  21633718.778    21633724.179
       238.000         196.000
  23661795.169    -9317378.06549  -6741545.77045  23661793.291    23661801.390
       209.000         149.000
  23481555.639    -9920963.88749  -6511115.89345  23481555.038    23481561.257
       215.000         154.000
  23778209.004    -6529406.91249  -5073255.46645  23778207.679    23778213.443
       213.000         153.000
  23725728.461    -5789369.21249  -4493926.97045  23725726.821    23725735.767
       213.000         154.000
 99  4 26  2 43 30.0000000  0  9G29G23G21G17G 3G 9G 8G31G 1
  21438273.115   -17956020.66749 -13981287.63147  21438272.743    21438278.411
       236.000         195.000
  21582684.952       93135.10649     79636.39747  21582684.149    21582689.440
       239.000         200.000
  21297561.599   -18167362.22549 -14144120.74447  21297560.805    21297566.394
       243.000         204.000
  21448893.296      247684.04949    195887.65347  21448892.441    21448898.676
       235.000         194.000
  21630508.293   -17376269.18049 -13523989.05247  21630506.892    21630513.514
       238.000         196.000
  23659420.068    -9329858.73649  -6751270.90245  23659419.625    23659427.442
       212.000         150.000
  23467976.668    -9992321.03749  -6566718.73645  23467975.189    23467982.256
       214.000         155.000
  23764563.833    -6601111.61849  -5129129.21045  23764562.656    23764569.670
       215.000         153.000
  23705822.484    -5893974.49249  -4575437.32545  23705821.771    23705830.809
       216.000         155.000
 99  4 26  2 44  0.0000000  0  9G29G23G21G17G 3G 9G 8G31G 1
  21424300.723   -18029445.95949 -14038502.07747  21424300.345    21424305.810
       234.000         195.000
  21589966.842      131401.73949    109454.55647  21589966.167    21589971.372
       238.000         200.000
  21293814.201   -18187054.76049 -14159465.56147  21293813.610    21293818.984
       241.000         204.000
  21458355.422      297408.00049    234633.58647  21458354.970    21458360.661
       234.000         193.000
  21627404.835   -17392577.39949 -13536696.75447  21627404.699    21627409.964
       238.000         196.000
  23657142.270    -9341828.56949  -6760597.99245  23657142.551    23657149.224
       214.000         151.000
  23454435.650   -10063479.22449  -6622166.56945  23454434.463    23454441.441
       217.000         155.000
  23751000.052    -6672388.61049  -5184669.65245  23750999.055    23751006.090
       215.000         153.000
  23685948.412    -5998411.82849  -4656816.77145  23685946.610    23685956.956
       211.000         154.000
 99  4 26  2 44 30.0000000  0  9G29G23G21G17G 3G 9G 8G31G 1
  21410402.204   -18102482.97149 -14095413.96747  21410401.847    21410407.103
       235.000         195.000
  21597262.478      169740.47349    139328.90847  21597261.857    21597266.963
       238.000         200.000
  21290102.713   -18206558.70149 -14174663.41047  21290101.879    21290107.540
       242.000         204.000
  21467880.624      347463.31249    273637.73047  21467880.186    21467885.783
       234.000         193.000
  21624407.366   -17408329.50749 -13548971.10347  21624406.685    21624412.428
       237.000         196.000
  23654962.119    -9353286.49549  -6769526.20345  23654962.340    23654968.970
       214.000         153.000
  23440935.876   -10134421.11949  -6677445.86645  23440934.329    23440941.658
       215.000         154.000
  23737516.683    -6743243.78349  -5239881.40145  23737515.410    23737521.831
       213.000         153.000
  23666107.928    -6102673.21049  -4738059.16745  23666106.435    23666115.063
       216.000         155.000
 99  4 26  2 45  0.0000000  0  9G29G23G21G17G 3G 9G 8G31G 1
  21396573.751   -18175151.90949 -14152039.04147  21396573.410    21396579.354
       235.000         196.000
  21604571.234      208148.22549    169257.03247  21604570.647    21604575.945
       239.000         200.000
  21286426.021   -18225879.70049 -14189718.71947  21286425.314    21286430.523
       242.000         204.000
  21477471.315      397862.59649    312909.88847  21477470.517    21477476.824
       234.000         193.000
  21621515.314   -17423526.45749 -13560812.86747  21621514.977    21621520.806
       236.000         195.000
  23652877.214    -9364243.81149  -6778064.31545  23652878.123    23652883.117
       217.000         154.000
  23427481.241   -10205125.31649  -6732539.95145  23427480.393    23427486.965
       218.000         156.000
  23724112.288    -6813683.85049  -5294769.70045  23724111.899    23724119.552
       215.000         155.000
  23646300.466    -6206761.12149  -4819166.35345  23646297.469    23646308.579
       213.000         155.000
 99  4 26  2 45 30.0000000  0  9G29G23G21G17G 3G 9G 8G31G 1
  21382814.357   -18247457.56849 -14208381.03947  21382813.926    21382819.580
       235.000         196.000
  21611893.686      246628.28249    199241.49947  21611892.958    21611898.411
       238.000         199.000
  21282784.332   -18245016.61849 -14204630.58147  21282783.556    21282789.217
       241.000         204.000
  21487127.524      448606.21649    352450.37247  21487126.952    21487133.035
       234.000         193.000
  21618730.260   -17438162.08349 -13572217.23047  21618729.845    21618735.562
       236.000         195.000
  23650886.230    -9374707.69649  -6786217.95045  23650886.212    23650892.016
       217.000         155.000
  23414073.440   -10275583.52249  -6787442.34445  23414071.845    23414079.059
       213.000         154.000
  23710784.973    -6883719.84249  -5349343.17145  23710784.925    23710791.579
       217.000         156.000
  23626524.505    -6310683.48749  -4900144.58945  23626522.319    23626531.681
       213.000         156.000
 99  4 26  2 46  0.0000000  0  9G29G23G21G17G 3G 9G 8G31G 1
  21369131.632   -18319360.40449 -14264409.15047  21369131.278    21369136.546
       234.000         196.000
  21619236.298      285214.15149    229308.41747  21619235.685    21619241.305
       237.000         199.000
  21279180.807   -18263953.05649 -14219386.22547  21279180.170    21279185.717
       242.000         204.000
  21496856.528      499732.27849    392288.85447  21496855.966    21496861.827
       234.000         193.000
  21616058.696   -17452201.76549 -13583157.23647  21616057.974    21616064.178
       236.000         195.000
  23648994.225    -9384650.70949  -6793965.71445  23648994.612    23648999.190
       215.000         155.000
  23400717.354   -10345769.12549  -6842132.33845  23400716.511    23400723.245
       215.000         155.000
  23697538.232    -6953332.10849  -5403586.44345  23697537.246    23697543.600
       214.000         156.000
  23606785.893    -6414409.18649  -4980969.57245  23606784.463    23606792.823
       215.000         155.000
 99  4 26  2 46 30.0000000  0  9G29G23G21G17G 3G 9G 8G31G 1
  21355524.539   -18390865.76349 -14320127.53847  21355523.938    21355529.542
       237.000         197.000
  21626596.931      323894.60449    259449.03647  21626596.279    21626601.891
       239.000         199.000
  21275608.772   -18282724.06549 -14234012.96147  21275608.053    21275613.957
       243.000         204.000
  21506658.509      551241.93849    432426.25047  21506657.711    21506663.589
       234.000         193.000
  21613500.123   -17465645.87449 -13593633.14247  21613499.606    21613505.233
       237.000         194.000
  23647199.323    -9394083.45349  -6801315.85045  23647199.035    23647204.793
       215.000         154.000
  23387408.899   -10415705.32249  -6896627.97045  23387408.154    23387415.370
       216.000         158.000
  23684371.666    -7022522.67649  -5457501.13545  23684370.482    23684376.421
       217.000         156.000
  23587083.458    -6517944.93449  -5061646.53545  23587081.263    23587091.613
       216.000         158.000
 99  4 26  2 47  0.0000000  0  9G29G23G21G17G 3G 9G 8G31G 1
  21341994.525   -18461966.22249 -14375530.43147  21341994.035    21341999.876
       236.000         197.000
  21633976.439      362674.05149    289666.79447  21633975.790    21633981.568
       238.000         199.000
  21272065.352   -18301344.68549 -14248522.51247  21272064.626    21272070.190
       241.000         204.000
  21516531.626      603125.55649    472855.04447  21516530.776    21516536.330
       234.000         192.000
  21611056.577   -17478487.57849 -13603639.65547  21611055.757    21611062.003
       237.000         194.000
  23645499.449    -9403016.26749  -6808276.43845  23645498.552    23645503.507
       212.000         152.000
  23374144.940   -10485407.37649  -6950941.16645  23374142.698    23374150.374
       214.000         156.000
  23671288.136    -7091276.78749  -5511075.71545  23671287.089    23671293.425
       215.000         155.000
  23567417.269    -6621290.34949  -5142175.22245  23567415.838    23567423.683
       214.000         156.000
